GEFSMA_500_meanwind_024.txt.gz
Wind_Speed
30 31 31 31 31 31 31 32 34 35 36 37 37 37 37 37 37 36 36 36 36 37 38 39 40 41 41 41 41 41 42 42 43 44 45 45 46 46 46 47 47 47 47
31 33 33 33 33 33 33 34 35 36 37 38 38 37 37 37 38 38 38 38 39 40 41 42 42 43 44 45 45 46 47 48 49 50 50 51 51 52 52 52 53 53 53
31 32 32 32 32 33 34 36 37 38 38 39 38 38 38 38 39 39 40 41 42 43 44 45 46 47 48 49 51 52 53 54 55 56 57 57 58 58 59 59 59 59 59
31 30 30 30 31 33 34 36 38 39 39 39 39 39 39 39 40 41 42 43 44 46 47 48 50 51 53 55 56 58 59 61 62 63 64 65 65 66 66 66 66 66 65
30 30 30 31 33 35 36 38 39 40 40 39 39 39 40 41 42 43 44 46 48 49 51 53 55 57 59 60 62 64 66 67 69 70 71 72 72 72 73 73 72 72 71
30 31 31 33 35 37 39 41 42 41 41 40 40 40 41 42 43 45 47 49 51 53 56 58 61 63 65 67 68 70 71 72 73 74 75 76 76 77 78 78 78 77 76
32 33 34 37 39 40 42 43 43 43 43 42 42 41 43 44 46 48 51 54 57 60 62 64 67 69 70 72 73 74 75 76 77 77 78 79 79 80 81 82 82 82 82
34 36 38 40 42 43 44 44 44 44 44 44 44 44 45 47 50 53 57 60 63 65 67 69 71 73 74 75 76 77 78 78 79 80 81 82 83 84 85 86 86 87 88
37 39 41 43 44 45 45 45 44 44 45 47 49 51 53 54 55 56 60 63 66 68 70 72 73 75 76 77 78 78 79 80 81 83 84 86 88 89 90 91 92 93 94
40 42 43 44 44 44 45 45 46 47 48 51 54 57 61 64 66 65 64 65 67 69 71 73 74 76 78 79 81 82 84 85 86 88 90 92 93 95 97 98 99 100 100
42 43 44 44 44 44 45 46 48 51 53 56 59 62 65 68 72 74 73 73 72 71 72 73 75 78 80 83 85 87 89 91 94 96 98 99 101 102 104 105 106 107 107
43 43 44 44 44 45 47 49 52 55 58 61 64 67 69 71 73 75 77 77 77 76 76 76 79 82 86 89 92 95 98 101 103 105 107 109 110 111 112 112 112 113 113
43 44 44 44 45 47 50 53 55 59 62 65 68 70 72 74 75 76 78 78 78 78 80 82 86 90 95 99 102 106 108 111 113 114 115 115 116 115 114 113 111 110 109
43 44 45 46 48 50 53 56 59 62 65 68 70 72 73 74 75 77 79 82 83 82 84 88 93 98 103 107 111 114 116 117 117 116 115 113 110 107 104 102 100 99 98
44 45 46 48 51 53 56 59 62 66 69 71 72 72 72 73 76 79 83 88 92 93 91 94 100 105 110 114 116 117 116 114 110 107 103 99 96 93 91 90 89 88 87
45 47 49 51 53 56 59 63 66 69 71 71 71 71 73 76 80 85 90 95 100 105 104 103 108 111 113 114 113 110 106 101 96 92 89 87 85 84 83 82 82 81 80
47 49 51 53 56 59 62 66 68 70 70 70 71 74 77 82 87 92 97 102 107 113 116 113 112 110 107 103 98 94 92 89 86 83 81 80 78 77 77 76 75 74 73
49 51 53 56 59 62 65 68 69 69 69 71 74 79 83 88 93 99 104 109 113 116 118 116 107 99 92 87 83 80 80 80 79 76 74 73 71 70 68 67 66 66 65
51 53 55 59 62 65 67 68 68 69 71 75 80 85 90 95 100 106 111 114 115 113 109 105 97 88 82 78 76 73 72 70 69 66 64 63 62 61 60 60 59 58 57
53 55 58 61 64 66 67 67 68 71 75 81 86 92 97 102 108 112 115 114 110 104 98 92 88 82 78 73 71 66 61 57 54 53 54 54 54 53 53 52 49 48 48
55 58 61 64 66 66 66 68 71 76 81 86 92 97 103 109 113 114 112 107 101 94 89 86 82 76 70 64 59 53 48 43 41 44 45 46 47 46 45 43 41 39 39
57 61 63 64 65 65 68 71 76 81 87 93 98 103 109 112 112 107 102 96 91 86 82 77 70 63 56 50 45 41 38 35 32 35 40 38 41 39 37 35 33 32 32
59 62 63 63 64 67 71 76 81 87 93 98 104 109 111 109 104 97 91 85 79 72 67 61 54 48 44 41 37 34 32 30 30 33 35 31 33 31 29 28 29 29 29
60 60 61 63 66 71 76 81 87 92 98 103 108 110 107 100 93 87 80 73 64 55 50 45 42 40 37 35 33 31 29 27 28 31 32 28 27 25 25 26 26 26 27
58 60 62 66 71 76 82 87 93 97 102 106 106 103 97 89 82 75 68 58 49 42 38 36 36 34 33 33 32 30 27 25 23 26 29 27 24 22 22 23 23 23 24
58 61 65 70 76 82 88 94 99 102 105 103 98 90 83 77 70 62 54 46 38 32 29 28 29 30 30 30 30 29 28 26 24 23 25 24 22 19 16 19 19 19 20

GEFSMA_500_meanwind_030.txt.gz
Wind_Speed
25 27 28 29 30 31 32 32 32 32 32 33 35 36 37 38 39 40 41 41 41 41 40 40 41 41 41 42 42 42 42 42 43 43 43 43 44 44 44 45 45 46 46
27 28 28 29 29 30 31 31 31 31 32 33 35 36 37 39 40 41 42 42 42 42 42 42 42 42 42 43 44 44 45 45 46 46 47 47 48 48 49 50 50 51 51
27 27 28 29 30 31 31 31 32 32 33 35 37 38 40 41 42 43 43 43 43 44 43 44 44 44 45 45 46 47 48 49 50 51 52 52 53 54 54 55 56 57 57
28 28 29 30 32 32 32 32 32 33 35 37 39 41 42 44 45 45 45 45 45 45 45 46 46 47 47 48 49 51 52 53 55 56 57 58 59 60 60 61 62 62 63
29 29 31 32 33 33 32 33 34 35 37 39 41 43 45 46 46 46 46 46 46 46 47 48 49 50 52 53 54 56 57 58 60 61 62 63 64 65 66 66 67 67 68
30 31 33 34 34 34 34 35 36 38 40 41 43 45 45 46 46 46 46 47 48 49 50 52 53 55 57 59 60 62 63 64 65 66 67 67 68 69 70 70 71 72 72
32 33 34 35 35 35 37 38 40 41 42 43 44 45 46 46 46 47 48 49 51 53 55 57 59 61 62 64 65 66 67 68 69 70 71 71 72 72 73 73 74 74 75
33 34 35 36 37 38 39 41 42 44 45 45 45 45 45 45 47 48 50 52 55 57 60 62 64 66 67 68 69 70 71 71 72 72 73 74 74 75 75 76 76 77 77
34 36 37 38 39 40 42 43 44 46 47 48 48 48 48 47 47 48 51 55 58 61 63 65 67 68 69 70 71 71 72 72 73 74 75 76 78 79 79 80 81 81 82
36 38 39 40 41 43 44 45 46 48 48 49 50 51 53 54 54 53 53 57 60 62 65 66 67 68 69 70 71 73 74 76 78 80 81 83 85 86 88 89 89 90 90
38 40 41 42 44 45 46 47 49 49 50 51 52 54 56 58 61 62 60 61 62 64 65 66 67 68 70 72 74 77 80 83 85 88 90 92 94 96 97 98 99 100 100
39 40 42 44 45 46 47 49 50 51 52 53 55 57 59 61 64 66 66 66 66 66 67 67 68 71 74 78 81 85 88 92 95 98 101 103 105 107 108 109 110 111 111
39 41 43 45 46 47 49 50 51 52 54 56 58 61 63 66 68 70 71 71 70 70 71 72 74 78 82 87 91 95 99 103 106 110 112 115 117 119 120 120 120 120 119
40 42 44 46 47 48 50 51 53 54 57 59 61 64 66 69 71 73 74 75 74 73 74 76 81 86 92 97 101 106 110 114 118 120 122 123 124 123 123 121 120 118 116
41 42 44 46 48 49 51 53 55 57 59 62 64 66 69 71 73 75 76 77 79 79 79 82 88 94 101 107 113 118 121 124 124 124 121 118 114 111 108 106 103 101 100
41 43 45 47 49 51 53 55 57 59 61 64 66 69 71 73 74 75 77 80 84 88 90 91 97 103 110 117 121 124 124 121 117 111 105 100 96 92 89 86 84 83 82
42 44 46 49 51 53 55 57 59 61 64 66 69 71 73 73 75 77 81 85 91 97 101 102 106 112 115 117 115 112 107 100 93 86 82 78 75 73 71 69 68 67 67
43 45 47 50 52 55 57 59 61 64 66 69 71 72 73 75 78 82 86 92 98 104 110 113 113 113 109 103 96 88 80 74 70 65 61 59 56 54 53 52 52 53 54
44 46 49 51 54 56 58 61 64 66 69 70 72 73 75 78 82 87 93 98 104 109 113 115 111 102 91 80 71 64 59 55 53 52 50 49 47 45 43 42 41 41 42
45 48 51 53 56 58 61 63 66 68 70 71 73 75 79 83 89 94 99 105 109 111 109 105 96 82 69 60 56 50 45 42 41 43 43 42 42 41 40 39 37 35 35
47 50 53 55 58 60 63 66 68 69 70 71 74 78 83 89 95 100 105 108 108 105 97 88 75 63 55 50 45 41 38 35 36 39 38 38 40 39 39 38 37 34 32
49 52 55 57 60 63 65 67 68 69 71 74 78 83 89 95 100 104 107 105 99 91 80 69 59 53 48 43 39 36 34 32 32 35 35 34 36 35 35 33 32 30 28
51 54 56 59 62 64 66 67 68 70 74 79 84 89 94 100 104 105 101 93 82 72 64 56 50 46 42 38 34 31 30 31 34 36 33 30 32 32 31 29 26 23 23
53 55 58 61 63 64 65 66 69 73 78 84 89 94 99 102 102 99 91 78 66 57 52 48 44 41 37 34 32 31 29 29 32 36 34 30 29 27 26 23 20 20 19
54 57 59 61 62 63 65 68 73 77 82 88 93 98 101 101 96 88 76 63 53 47 44 41 40 38 35 35 33 31 30 30 29 31 32 29 27 24 21 18 18 18 19
55 58 59 60 61 64 67 72 77 82 87 91 96 99 99 93 83 72 61 51 44 39 36 35 35 34 34 34 34 34 33 31 29 27 27 25 23 19 16 17 18 20 21

GEFSMA_500_meanwind_036.txt.gz
Wind_Speed
28 27 27 26 26 26 26 27 28 28 28 28 28 28 28 28 29 30 32 33 34 35 36 38 39 39 40 40 40 40 40 41 41 41 41 42 42 42 42 42 42 42 42
29 29 28 28 28 28 28 29 30 29 30 30 29 29 30 31 32 33 34 35 37 38 39 40 41 41 42 42 43 43 43 43 44 44 44 45 45 46 46 46 47 47 47
30 29 29 29 29 29 30 31 31 31 31 31 31 31 32 33 34 36 37 38 40 41 42 42 43 43 44 44 45 45 46 46 47 48 49 49 50 50 50 51 51 52 52
31 30 30 31 31 31 32 32 32 33 33 33 33 34 34 35 37 38 40 41 43 43 44 44 45 46 46 47 48 49 50 50 51 52 54 55 55 56 56 57 57 58 58
32 31 31 32 32 32 33 33 34 35 35 35 35 36 37 39 40 41 42 44 45 46 47 47 48 48 49 50 52 53 54 55 56 57 58 59 60 61 62 62 63 63 64
33 33 33 33 34 34 34 35 35 36 36 36 37 39 40 42 43 44 46 47 48 48 49 50 51 52 53 54 56 57 58 59 60 61 62 63 64 65 66 66 67 67 68
34 34 34 35 35 36 36 37 38 38 38 39 40 42 43 44 46 47 49 50 51 51 52 53 55 56 57 58 60 61 62 63 64 65 66 67 67 68 69 69 70 70 71
35 36 36 36 37 38 38 39 40 40 40 41 42 44 46 47 48 50 51 52 53 54 55 57 59 60 61 62 63 64 65 66 67 68 69 70 70 71 72 72 73 73 74
37 38 38 38 39 40 41 42 42 42 43 44 45 46 48 49 50 50 53 54 56 57 59 60 62 64 65 66 67 67 68 69 70 71 72 73 74 75 76 77 78 78 79
38 38 39 40 41 42 43 43 44 45 45 46 47 49 50 52 53 52 52 54 56 58 60 62 64 66 67 69 70 71 71 72 74 75 76 77 78 80 81 83 84 85 86
38 39 40 41 42 43 44 45 45 46 47 49 50 51 52 54 55 57 55 56 57 59 61 63 65 67 69 70 71 72 74 75 76 78 80 82 83 85 88 90 92 93 95
39 40 41 42 43 44 45 46 47 48 49 51 52 54 55 56 58 59 60 60 61 61 62 63 65 67 70 71 73 74 76 78 80 82 85 88 90 93 96 98 101 103 105
39 40 42 42 43 44 45 46 47 49 51 52 54 56 57 59 61 63 65 66 66 66 66 67 67 69 70 72 74 76 79 82 85 89 92 96 99 102 105 108 111 113 115
40 41 42 43 44 45 46 47 48 50 52 54 56 58 60 61 63 65 67 69 70 69 70 71 73 74 75 77 80 83 86 90 94 98 101 105 107 109 109 108 108 108 109
40 41 42 43 44 45 46 47 49 52 54 56 58 60 62 64 66 68 69 71 72 73 72 73 75 78 81 85 89 92 96 100 104 106 107 106 103 98 93 88 85 83 83
40 41 42 43 44 44 46 48 51 53 56 58 60 62 65 66 68 69 71 72 73 75 75 76 79 83 88 93 98 102 105 107 106 103 99 92 84 76 70 65 63 61 61
40 41 42 42 43 45 47 50 53 55 58 60 62 64 66 68 69 70 72 73 74 76 78 79 84 89 95 100 104 106 105 101 94 86 79 71 65 59 55 52 50 49 49
40 41 41 42 44 46 49 52 55 57 60 62 64 66 67 69 70 72 73 75 77 80 84 86 90 96 100 103 102 98 92 84 75 67 62 57 52 49 46 45 44 44 45
40 40 41 43 45 48 51 54 56 59 61 64 65 67 68 69 71 73 75 78 81 86 90 94 96 99 100 98 92 83 73 65 59 55 51 47 45 43 42 42 42 42 43
39 40 42 44 47 50 53 55 58 60 63 64 66 67 69 70 72 75 78 83 87 92 97 99 99 97 92 84 75 64 56 51 48 46 44 43 42 41 42 42 42 41 40
39 41 43 46 49 52 55 57 60 61 63 65 66 68 70 72 75 79 84 89 94 98 100 100 95 87 76 65 56 50 44 41 40 41 39 39 40 40 40 39 38 37 35
40 42 45 48 51 54 56 59 61 62 64 65 67 69 72 75 80 84 90 95 98 99 97 92 83 71 60 52 45 40 38 35 35 37 36 36 38 37 36 35 32 30 28
41 44 47 50 53 55 58 60 61 63 64 67 69 72 76 80 85 90 94 96 95 92 86 77 66 56 49 43 38 35 34 34 34 35 33 32 33 32 31 28 25 24 24
43 46 49 51 54 56 58 60 61 63 65 68 72 76 81 86 91 94 94 92 87 80 71 62 54 47 43 39 36 34 32 31 31 34 33 30 29 28 26 24 23 22 22
44 47 50 52 54 57 58 60 62 64 67 71 76 81 86 90 93 93 90 84 75 65 56 50 45 42 39 37 36 33 32 31 29 30 31 29 27 25 24 23 22 22 22
45 48 50 53 55 56 58 60 63 67 70 75 81 86 90 92 91 87 81 71 60 51 45 42 40 39 37 37 36 35 33 31 29 27 27 26 25 22 20 22 21 22 24

GEFSMA_500_meanwind_042.txt.gz
Wind_Speed
28 28 27 27 29 30 31 32 32 33 32 32 32 32 32 32 32 31 31 31 30 30 30 31 32 33 33 34 35 36 36 36 37 37 37 38 38 39 39 40 40 41 41
31 30 29 29 29 31 32 33 34 35 35 34 34 34 34 34 34 33 33 33 33 32 33 33 34 35 36 37 38 38 39 39 40 40 41 41 42 43 43 43 44 44 44
33 32 31 31 31 32 33 35 36 36 36 36 36 36 36 36 36 35 34 34 34 35 35 36 37 37 38 40 41 42 42 43 43 44 44 45 46 47 48 48 49 49 49
35 35 34 33 33 34 35 36 37 37 38 37 37 37 37 38 37 37 36 36 36 37 38 39 40 40 42 43 44 45 46 46 47 47 48 49 50 51 52 52 53 54 54
37 37 36 35 35 36 37 38 38 38 39 39 39 39 39 39 39 39 39 39 39 40 41 42 43 44 45 46 47 48 49 49 50 51 52 52 53 54 55 56 57 57 58
39 39 39 38 37 37 38 39 40 40 39 40 40 40 41 41 41 42 42 42 43 44 45 45 46 47 48 49 50 51 52 53 53 54 55 55 56 57 57 58 59 60 61
39 39 39 39 39 39 39 40 40 41 41 41 41 42 43 43 44 45 45 46 46 46 47 48 49 50 52 52 53 54 55 56 57 57 58 58 59 59 60 60 61 62 64
39 39 39 40 40 39 40 40 41 41 42 43 43 44 45 45 45 46 47 48 49 49 50 51 52 53 55 55 56 58 59 59 60 61 61 61 61 62 63 64 65 66 67
40 40 40 41 40 40 41 41 41 41 42 44 45 46 47 48 48 47 48 49 50 51 52 53 55 57 58 59 60 61 62 63 63 64 64 65 65 66 67 68 69 70 71
41 41 41 41 41 41 42 42 42 42 43 44 46 48 49 50 50 50 50 51 51 52 53 55 56 58 61 63 64 65 66 66 67 67 68 68 69 70 71 72 73 74 75
42 42 42 42 42 42 42 42 43 43 44 45 47 48 49 51 52 52 52 52 53 54 55 57 58 60 62 64 65 67 68 69 70 71 71 72 73 74 75 76 77 79 80
42 42 42 42 42 42 42 43 43 44 45 47 48 49 50 51 53 53 54 54 54 55 57 59 61 63 64 65 66 68 69 71 72 73 74 75 77 78 80 81 83 86 87
42 41 42 42 42 42 42 43 44 45 47 48 49 50 51 52 54 55 56 57 57 57 59 61 63 65 66 67 68 70 71 72 73 75 77 79 81 84 87 89 92 94 96
42 42 41 41 41 41 41 43 44 46 48 49 50 51 52 53 55 56 58 60 61 61 62 63 65 67 68 70 71 72 73 75 77 80 83 86 89 92 94 96 98 99 100
42 41 41 41 41 41 42 44 45 47 48 50 51 52 53 54 56 58 60 62 65 66 65 65 67 68 70 72 73 75 77 80 83 87 91 94 96 98 98 98 96 93 91
41 40 40 40 40 41 43 44 46 47 49 50 51 52 54 56 58 60 62 65 67 69 70 69 70 72 73 75 77 80 84 88 91 95 97 98 98 96 92 87 81 76 71
40 40 40 40 41 42 43 45 47 48 50 51 52 54 56 58 60 62 65 67 68 70 71 71 73 75 78 80 83 87 91 94 96 97 97 95 91 84 77 71 64 58 55
39 39 39 40 41 43 44 46 48 49 51 52 54 56 58 60 63 65 67 68 69 71 74 74 75 79 82 86 89 92 94 95 94 92 88 83 76 69 62 55 50 47 45
38 39 40 41 42 44 46 47 49 50 52 54 56 58 60 63 65 67 68 69 71 73 76 78 80 84 88 92 93 93 92 90 86 80 74 68 61 55 50 46 44 42 40
38 39 40 42 43 45 47 48 50 51 53 55 58 60 63 64 66 67 69 71 73 76 79 83 86 89 91 93 93 90 85 79 72 67 61 56 50 47 45 43 41 39 37
38 39 41 42 44 46 48 49 50 52 55 57 60 62 64 65 67 69 71 73 76 80 84 88 90 91 91 91 87 82 75 66 59 56 50 47 45 43 42 41 39 37 36
37 39 41 43 44 46 47 49 51 54 56 59 61 63 65 66 68 70 73 77 82 86 90 92 92 91 89 85 78 69 61 54 47 47 44 41 42 40 39 38 38 36 35
37 40 42 44 45 46 48 50 53 55 58 60 62 63 65 67 70 73 77 82 87 91 93 92 90 86 80 72 64 57 52 47 43 43 42 38 39 38 38 38 37 35 34
38 40 41 43 44 47 49 52 54 56 59 61 62 64 66 70 74 78 82 86 89 91 90 87 82 74 65 58 52 48 45 42 39 41 42 38 36 35 36 37 37 34 32
37 39 40 43 45 48 50 53 55 57 58 60 63 66 70 74 78 83 87 89 88 86 81 74 66 59 52 49 46 44 42 40 38 39 41 38 36 34 34 36 35 33 31
36 39 41 44 46 49 51 54 55 57 58 61 65 70 74 78 83 88 89 87 81 73 65 57 52 49 46 44 44 43 43 41 39 37 38 36 35 34 31 33 34 32 29

GEFSMA_500_meanwind_048.txt.gz
Wind_Speed
28 28 27 27 27 27 28 28 28 29 30 30 32 33 34 35 36 37 37 37 37 36 35 34 34 34 34 34 33 34 34 34 34 33 33 33 34 34 35 35 35 36 36
29 29 29 29 29 29 29 29 30 30 31 31 32 33 34 36 37 38 38 38 38 37 36 36 35 35 36 36 36 36 36 36 36 36 36 36 37 37 38 39 39 39 39
30 30 30 30 31 31 30 31 31 32 32 33 33 34 35 36 37 38 38 39 38 38 38 38 37 37 37 37 38 38 38 39 39 39 40 40 40 41 41 42 42 42 43
31 31 32 32 32 32 32 32 32 33 33 34 35 35 36 37 38 38 39 39 39 39 40 40 40 40 40 40 40 40 41 41 42 42 43 43 43 44 44 45 45 46 46
31 32 33 33 33 33 33 33 34 34 34 35 35 36 37 38 39 40 40 40 40 41 41 41 42 42 43 43 43 43 43 44 44 45 45 46 46 47 47 48 48 49 50
33 33 33 33 33 33 33 34 34 34 34 35 35 36 37 37 39 40 41 42 42 42 43 43 44 44 44 44 45 45 46 46 47 48 48 49 49 49 50 51 52 53 53
35 35 35 35 34 34 34 34 34 35 35 35 35 36 37 38 39 40 41 42 43 43 44 44 45 45 46 46 47 47 48 49 49 50 51 51 52 52 53 54 55 55 55
38 38 37 37 36 36 35 35 36 36 36 36 37 37 38 39 40 40 41 42 43 44 44 45 46 47 47 48 48 49 50 51 51 52 53 54 55 56 56 57 58 58 58
41 40 40 39 38 37 37 36 36 36 37 37 37 38 39 40 41 41 42 43 44 45 46 46 47 48 49 49 50 51 52 53 54 55 56 57 58 58 59 60 60 61 61
44 43 42 41 39 38 38 38 37 37 38 38 38 39 40 41 41 42 43 44 45 46 47 48 49 50 50 51 52 53 55 56 57 58 59 60 61 62 62 63 63 64 65
46 45 44 43 42 41 40 39 39 38 38 39 40 40 41 42 42 43 44 44 46 47 48 50 51 52 53 53 54 56 57 58 60 61 62 63 64 65 66 66 67 68 69
48 47 46 45 44 43 42 41 40 40 40 40 41 41 42 43 44 44 45 45 46 48 50 52 53 55 55 56 57 59 60 61 62 63 64 65 66 68 69 70 71 73 74
49 48 48 47 46 45 43 42 42 41 41 42 42 43 43 45 45 47 47 48 48 49 51 53 55 57 59 60 61 62 63 64 65 66 67 68 69 71 73 74 76 77 79
50 49 48 48 46 45 44 43 43 42 43 43 44 44 45 47 47 48 49 51 51 52 53 55 57 59 61 62 64 65 66 67 68 69 70 72 73 75 77 79 81 83 85
51 49 49 48 47 45 44 44 43 42 43 44 45 46 47 48 49 50 52 54 55 56 57 58 60 61 63 64 66 67 68 69 71 72 74 76 78 80 82 84 86 88 90
50 49 48 48 46 45 44 43 42 42 43 44 45 47 49 51 52 53 56 58 59 60 61 62 63 65 66 67 68 69 71 72 74 77 79 82 84 86 88 89 91 91 92
49 48 47 46 45 44 43 42 41 42 43 44 46 49 51 53 55 56 58 60 62 64 64 65 67 68 69 70 71 73 75 77 79 82 85 88 89 91 92 91 90 88 85
47 46 45 43 42 42 41 40 41 42 44 46 48 51 53 56 58 60 61 63 64 66 67 68 69 70 72 73 75 77 79 82 85 88 90 92 92 91 89 86 82 78 74
44 43 41 40 40 39 39 39 40 43 45 47 50 53 56 59 60 62 63 65 66 67 69 70 71 72 74 77 79 81 84 87 90 92 92 91 88 84 80 76 72 68 64
40 38 38 37 37 36 36 38 40 44 46 49 53 56 59 60 62 64 65 66 68 69 71 72 73 75 77 80 83 85 87 89 89 89 87 82 78 74 70 66 63 59 56
35 34 34 34 33 34 36 38 41 46 49 52 56 59 61 62 64 65 67 68 69 70 72 73 75 77 81 84 87 89 88 85 81 79 75 71 68 64 61 59 56 53 50
31 31 31 31 32 34 36 39 44 48 51 55 57 60 62 63 65 66 68 69 71 72 74 77 80 83 86 88 88 85 82 76 68 66 64 59 58 56 54 53 51 50 47
27 27 28 29 31 35 39 43 47 51 53 56 59 61 62 64 65 67 68 70 72 76 79 82 84 87 87 85 81 74 68 63 58 57 55 51 51 49 49 49 48 47 45
24 25 27 30 34 38 42 46 49 51 54 57 59 61 62 63 65 67 70 72 76 80 83 85 85 84 79 73 67 61 56 53 50 52 53 48 47 46 44 45 46 45 43
22 25 30 34 36 40 43 46 49 52 54 56 58 60 62 64 67 70 73 76 79 81 82 81 78 72 66 61 56 53 50 49 47 47 50 48 45 42 40 41 43 42 40
26 29 31 34 37 40 44 47 49 51 53 55 58 61 64 67 71 73 75 77 77 77 75 71 65 60 56 53 51 50 49 48 47 45 46 45 42 40 35 35 38 39 37

GEFSMA_500_meanwind_054.txt.gz
Wind_Speed
25 25 25 25 26 26 26 27 27 27 28 28 28 29 29 29 30 30 31 32 33 34 35 35 36 36 36 36 35 35 35 34 34 34 34 34 34 33 33 33 33 32 32
27 26 26 26 27 27 28 28 28 29 29 30 30 31 31 31 31 32 32 33 34 34 35 36 36 37 37 37 36 36 36 36 36 36 35 35 36 36 36 36 36 36 36
28 28 28 28 28 28 29 29 30 30 31 31 32 32 32 32 33 33 34 34 35 35 35 35 36 36 37 37 37 37 37 38 38 38 38 38 38 38 39 39 39 39 39
30 29 29 30 30 30 30 30 30 31 32 32 33 33 34 34 34 34 34 35 35 35 35 36 36 36 37 37 38 39 39 39 39 40 40 41 41 41 42 42 42 42 43
33 32 32 32 32 32 32 32 32 32 33 33 34 34 35 35 34 35 35 35 35 36 36 36 37 37 37 37 38 39 40 40 40 41 41 42 43 44 44 45 45 45 46
36 35 35 35 35 35 34 34 34 34 35 35 35 36 36 36 36 36 36 36 36 36 37 37 37 37 37 38 38 39 40 40 41 42 42 43 44 45 45 46 47 48 48
39 38 38 38 38 38 37 37 37 37 37 37 37 37 37 37 37 37 37 37 37 37 37 37 38 38 38 39 39 40 41 42 42 43 44 44 45 46 47 48 49 50 50
42 42 41 41 41 41 40 40 40 39 40 39 39 39 38 37 38 38 38 38 38 38 38 38 39 39 40 40 41 42 43 43 44 45 46 46 47 48 49 50 51 52 53
46 45 45 45 45 44 43 43 42 42 42 42 41 41 40 40 39 39 39 39 39 39 40 40 40 40 41 42 43 43 44 45 46 47 48 49 50 50 51 52 53 54 55
49 48 48 48 48 47 46 45 45 45 45 44 44 43 43 42 41 41 40 41 41 41 42 42 42 43 43 45 46 46 47 47 48 49 50 51 52 53 54 55 56 57 58
52 51 51 50 50 50 49 48 48 47 47 46 46 45 45 44 43 43 42 42 43 44 43 44 45 45 46 47 48 49 50 50 52 53 54 54 55 57 58 59 59 60 62
54 54 53 53 52 52 51 50 50 50 49 48 48 47 47 46 46 45 45 45 45 45 46 46 47 49 50 50 51 52 53 54 55 56 57 58 59 60 61 62 63 64 65
57 56 55 55 55 54 53 52 52 51 51 50 50 49 48 48 48 48 47 47 47 47 48 49 51 52 53 54 55 56 57 59 59 60 61 63 64 65 65 66 67 68 68
60 59 58 57 56 55 54 53 53 53 52 52 51 50 50 50 49 49 49 49 49 49 50 52 53 55 57 58 59 60 62 63 64 65 67 68 68 69 70 71 71 72 72
63 62 60 58 57 56 55 55 55 54 54 53 52 51 51 50 51 51 50 50 51 51 53 54 56 58 60 61 63 64 65 66 68 69 70 71 72 73 74 75 75 76 77
64 63 60 58 57 57 57 56 55 55 54 53 52 51 50 50 51 51 50 51 53 54 55 57 59 61 63 64 66 68 69 70 71 72 73 74 75 76 76 77 78 79 80
64 62 60 58 57 56 56 56 55 55 53 52 51 50 50 50 51 51 51 54 56 57 59 61 64 65 67 68 69 71 72 72 74 75 75 76 77 78 80 81 82 83 84
60 59 58 57 55 54 54 54 53 53 51 50 50 49 49 50 51 52 54 57 58 60 62 64 66 67 69 71 72 73 74 75 76 77 78 79 81 82 84 85 86 86 86
54 54 54 53 52 52 51 51 50 49 48 48 48 48 48 49 51 53 56 59 61 63 64 66 67 69 71 72 73 74 76 77 78 80 82 83 84 85 85 85 84 83 82
47 48 48 48 47 47 47 46 46 45 45 45 45 46 48 50 53 55 58 60 62 64 66 68 70 71 72 74 75 76 77 79 81 83 84 83 83 82 82 81 78 76 74
39 40 40 41 41 41 41 41 42 42 42 43 44 46 48 51 54 56 58 61 63 66 68 69 70 72 74 76 78 79 80 80 81 81 80 79 78 76 74 72 70 67 65
31 32 33 34 34 35 36 37 38 39 40 41 43 46 48 52 55 57 60 62 64 66 68 70 71 74 76 78 79 80 79 78 75 74 72 69 68 65 63 62 62 61 60
24 25 26 28 29 31 32 33 34 36 39 41 44 47 49 53 56 57 59 61 64 67 70 72 74 76 77 78 77 75 73 70 67 66 63 59 59 59 59 59 59 58 56
19 21 23 24 25 27 28 30 33 35 38 40 43 46 49 52 55 57 59 62 65 68 71 73 74 75 74 73 71 68 66 62 59 59 59 56 55 55 54 53 53 53 51
15 17 19 22 25 26 27 30 32 34 37 40 43 46 49 52 55 57 60 63 66 68 70 71 72 71 69 67 64 61 57 56 54 54 56 54 51 48 46 46 48 49 48
13 15 16 19 21 24 27 29 31 34 37 40 44 47 50 53 55 58 61 63 65 67 68 69 68 65 61 57 55 53 52 52 51 49 49 47 45 45 40 39 42 43 43

GEFSMA_500_meanwind_060.txt.gz
Wind_Speed
28 27 27 26 26 26 25 25 24 23 23 23 24 24 24 24 25 25 25 26 26 27 27 28 28 28 29 30 30 31 31 32 32 32 32 32 32 31 31 31 31 31 31
31 30 30 29 29 28 27 27 26 26 25 25 25 25 25 26 26 26 26 27 27 27 28 28 29 29 29 30 30 31 31 32 32 32 32 33 33 33 33 33 33 33 34
34 33 33 32 31 31 30 29 29 29 28 28 27 27 27 27 27 27 28 28 28 28 29 29 30 30 30 30 30 31 31 32 32 33 33 33 34 34 35 35 35 35 35
36 36 36 35 35 34 33 33 32 32 31 31 30 30 30 29 29 29 29 29 29 30 30 30 31 31 31 31 31 32 32 32 32 33 33 34 34 35 35 36 36 37 37
40 39 39 38 38 37 37 36 36 35 35 34 33 33 32 32 31 31 31 31 31 31 31 32 32 32 32 32 32 33 33 33 33 34 34 34 35 35 36 36 37 38 39
43 42 42 41 41 41 40 40 40 39 38 37 37 36 35 35 34 33 33 33 33 33 33 34 34 34 34 34 34 34 35 35 35 35 36 36 36 36 37 38 38 39 40
46 45 45 45 44 44 44 44 43 42 42 41 41 40 39 37 36 36 36 36 36 36 36 36 36 37 37 37 37 37 37 37 38 38 37 37 38 38 38 39 39 40 41
48 48 48 48 48 48 48 47 47 46 46 45 44 43 42 40 39 39 38 38 38 38 39 39 39 39 40 40 40 40 40 41 40 40 40 40 40 40 41 41 41 41 42
51 51 51 51 51 51 51 50 50 49 49 48 48 46 45 43 42 42 41 41 41 41 41 42 42 43 43 44 44 43 44 44 44 44 44 44 43 43 43 44 44 44 45
53 54 54 54 54 54 53 53 52 52 52 51 50 50 49 48 46 45 44 44 44 44 45 45 45 46 46 46 47 47 47 47 47 47 47 47 47 47 47 47 47 48 48
55 56 57 57 57 57 56 56 55 55 54 54 53 53 52 51 50 48 48 47 47 47 47 48 49 49 49 49 51 50 50 50 51 51 50 50 51 51 51 51 51 52 52
56 57 58 59 59 59 59 59 59 58 57 57 56 56 55 54 52 51 51 50 50 50 50 50 51 52 52 52 53 52 52 53 54 54 54 55 55 55 55 56 56 57 57
58 59 60 61 61 62 62 62 61 61 60 59 59 57 57 56 54 53 54 53 53 53 53 54 54 54 55 56 56 55 55 56 56 57 58 59 59 59 60 60 60 61 62
62 63 64 64 64 64 64 63 63 62 61 61 60 59 58 57 57 56 55 56 56 56 56 57 57 57 58 59 58 58 58 59 60 60 61 62 62 62 63 64 64 65 66
65 66 67 67 67 66 65 65 64 63 62 61 61 60 59 58 57 57 57 58 59 59 58 59 60 59 60 61 60 61 62 63 63 63 64 64 65 65 66 67 68 69 71
64 65 66 66 66 66 65 63 63 62 61 60 60 60 59 58 58 58 59 59 60 60 60 60 61 61 62 62 63 64 64 64 65 66 67 67 68 69 70 71 72 74 75
61 62 63 62 61 60 60 59 58 58 58 58 58 58 58 57 58 58 58 59 60 59 60 61 61 62 62 63 64 64 65 66 66 67 68 69 70 72 73 75 76 76 76
55 56 57 56 56 55 54 54 52 52 52 53 54 54 55 55 57 57 58 58 58 58 59 60 60 60 62 63 63 64 65 66 67 69 70 72 73 74 75 76 76 77 77
47 47 47 47 47 47 47 46 46 45 46 46 48 49 50 51 53 54 54 54 55 56 58 59 59 60 61 62 63 64 65 66 68 70 71 73 74 75 76 76 76 77 77
37 37 36 37 37 38 38 38 38 38 39 40 42 44 45 47 49 50 51 53 54 56 58 58 58 59 61 62 63 63 65 67 69 71 73 74 75 75 76 76 76 77 76
27 27 28 28 29 29 29 30 31 33 34 35 38 40 41 44 46 47 49 51 53 54 55 55 57 59 60 61 62 64 65 67 70 71 72 73 73 73 73 73 73 72 70
19 19 19 20 22 23 24 25 27 29 30 32 34 36 38 40 42 44 47 48 50 51 52 54 56 58 59 61 63 65 66 68 68 69 68 68 68 67 66 65 65 63 62
13 13 14 15 16 18 19 20 21 23 26 28 30 33 35 38 40 43 44 46 47 49 52 54 56 58 60 61 63 65 66 66 66 66 63 60 60 58 58 57 57 56 54
11 10 10 10 11 13 14 16 17 20 22 25 27 30 33 35 37 39 42 45 47 50 52 54 56 58 60 61 62 63 62 61 60 59 57 53 53 53 53 53 52 51 50
11 10 9 9 10 11 12 15 17 19 21 23 25 28 31 34 37 40 42 45 48 51 53 55 57 58 59 60 59 58 56 54 51 51 50 48 47 46 47 48 49 48 46
11 10 9 9 10 11 12 13 15 18 20 23 26 29 32 35 38 41 44 47 49 51 53 55 55 56 56 55 54 52 50 47 45 44 44 43 43 43 40 42 44 45 43

GEFSMA_500_meanwind_066.txt.gz
Wind_Speed
28 28 27 27 27 27 26 26 26 26 26 26 26 25 25 25 24 24 24 24 24 25 25 25 25 25 25 25 25 25 25 25 25 25 25 25 25 25 25 25 25 26 26
29 29 29 29 29 29 29 29 30 29 29 29 29 29 28 28 27 26 26 26 26 26 27 27 27 27 27 27 27 27 27 26 26 26 26 26 26 26 26 26 26 26 26
32 32 32 32 32 32 32 32 33 33 33 33 32 32 32 31 31 30 28 28 29 29 29 29 29 29 28 28 28 28 28 28 28 27 27 27 27 27 27 27 27 27 27
34 34 34 35 35 36 36 36 36 36 36 36 36 36 35 35 34 33 32 31 31 31 31 31 31 31 30 30 30 30 30 30 30 29 29 29 29 29 29 29 30 30 30
37 37 37 38 38 38 38 39 39 40 40 40 40 39 39 39 39 38 36 35 34 34 34 34 34 33 33 33 32 32 32 32 32 32 32 32 32 32 32 32 32 32 32
39 40 40 41 41 41 42 42 43 43 44 44 44 44 44 43 43 42 41 40 38 37 37 37 36 36 36 36 35 35 35 35 35 35 35 35 35 35 35 35 35 35 35
42 43 43 44 44 45 45 46 47 47 47 48 48 48 48 47 46 45 45 44 43 41 41 40 39 39 39 39 38 38 38 38 38 38 38 38 39 39 39 38 38 38 38
45 45 46 46 47 48 48 49 49 50 50 51 52 52 52 50 49 49 48 48 46 45 43 43 43 43 43 42 42 41 41 41 41 40 40 41 41 42 42 42 42 42 42
46 47 48 49 49 50 51 51 52 53 53 54 55 56 55 54 53 52 51 50 49 48 47 46 46 45 45 45 45 44 44 44 44 43 43 44 44 45 45 45 45 45 45
47 49 50 51 52 52 53 54 55 55 56 57 57 58 58 57 57 55 53 52 52 51 50 49 48 48 48 47 46 47 47 47 47 46 46 47 47 47 48 48 48 48 48
48 49 51 52 53 54 55 56 57 58 59 59 59 59 59 59 59 58 56 55 54 54 53 52 51 51 51 49 49 50 50 49 49 49 49 49 49 50 51 51 51 51 51
48 49 51 52 53 55 57 58 59 60 61 61 62 61 61 61 60 58 58 57 56 55 54 54 53 53 52 52 52 52 52 51 51 51 51 52 52 52 52 54 54 54 55
47 49 50 52 54 55 57 58 60 61 62 62 62 62 61 61 60 59 59 57 56 55 56 54 55 55 55 55 54 53 52 52 52 52 53 54 54 55 56 56 56 56 57
47 48 49 51 53 54 56 57 59 60 60 60 60 60 60 60 60 59 59 58 56 55 55 54 55 57 57 56 55 54 54 53 54 54 54 55 56 57 58 58 59 59 59
45 47 48 50 51 52 54 55 56 57 57 57 57 57 58 58 58 58 57 57 57 57 57 57 57 58 57 56 55 55 55 55 56 56 56 56 57 58 59 59 60 60 61
43 45 46 48 49 51 53 53 54 54 54 54 54 54 55 56 56 55 55 55 56 57 57 57 57 57 57 57 57 59 58 56 57 57 57 58 58 59 60 60 61 61 62
42 43 43 45 47 49 50 50 50 50 49 49 48 49 49 50 51 52 53 53 55 55 56 56 57 56 56 57 59 59 59 58 58 59 60 60 60 60 60 61 61 62 62
38 39 41 42 44 45 45 45 44 44 44 43 42 42 43 44 45 46 48 49 49 50 51 53 54 55 56 57 57 58 59 60 59 59 60 60 60 60 61 61 62 62 62
35 36 38 39 40 41 41 39 37 37 37 37 36 36 36 38 39 40 42 43 44 46 48 49 51 54 54 55 56 57 57 58 58 59 59 59 60 60 60 60 61 61 62
32 34 35 36 37 37 36 35 33 32 31 30 30 31 32 33 34 35 36 38 39 41 43 46 48 50 51 53 54 55 56 57 57 58 58 58 58 59 60 60 61 61 62
30 31 32 33 33 32 31 30 29 28 26 26 25 26 27 29 29 31 32 33 36 38 41 43 46 49 50 51 52 53 55 56 56 57 57 58 58 59 60 61 61 61 61
29 29 30 30 30 29 28 27 26 25 23 23 23 23 24 24 26 27 30 32 34 37 39 42 45 46 48 49 50 52 54 55 55 56 56 57 58 58 59 59 58 58 58
28 28 28 27 26 26 25 24 23 21 20 20 19 20 21 23 24 25 28 30 33 36 38 41 43 44 46 47 50 51 53 54 54 55 54 55 56 56 56 55 55 54 54
26 27 26 25 24 23 22 22 20 19 19 19 20 20 21 22 24 26 29 31 33 36 38 41 42 44 46 48 49 51 52 53 54 54 53 52 52 52 52 52 52 51 49
25 25 24 24 23 22 21 21 20 20 20 20 20 21 23 24 26 28 30 32 35 37 39 42 44 46 48 49 50 52 52 52 52 53 52 49 48 47 47 48 48 47 45
23 23 23 22 22 22 21 21 21 21 22 22 23 25 27 28 30 31 33 35 38 40 42 44 46 48 49 50 51 51 51 51 51 50 49 46 45 44 42 44 45 45 43

GEFSMA_500_meanwind_072.txt.gz
Wind_Speed
25 25 25 25 26 26 26 26 26 27 28 29 29 29 30 30 30 30 30 31 31 30 30 30 29 29 29 28 28 28 28 27 27 26 26 25 25 24 23 23 22 22 21
26 26 27 27 28 28 28 29 29 30 30 31 32 33 33 33 33 33 33 33 34 34 34 33 33 32 32 31 31 30 30 30 29 29 28 28 27 27 26 25 25 24 23
28 28 29 29 30 31 31 31 32 33 33 34 35 35 36 36 36 36 36 36 36 37 37 37 36 36 35 35 34 33 33 32 32 31 31 30 30 29 29 28 27 27 26
31 31 31 31 32 33 33 34 35 36 36 37 38 38 39 39 40 40 40 40 40 40 40 40 40 39 39 38 38 37 36 35 35 34 34 33 33 32 32 31 30 30 29
33 33 33 34 35 35 35 36 37 38 39 40 41 41 42 42 43 43 43 43 43 43 43 43 43 43 42 42 41 41 40 39 38 38 37 37 36 36 35 35 34 33 32
36 36 36 37 37 37 38 39 40 40 41 42 43 44 44 45 45 45 46 46 46 46 46 46 46 45 45 45 44 44 43 42 42 41 41 40 40 39 39 38 37 36 35
38 38 38 39 39 40 41 41 42 43 44 45 46 46 47 47 47 48 49 49 49 49 49 49 48 48 48 48 47 46 46 45 45 44 44 43 43 42 42 41 40 39 38
40 40 40 41 41 42 43 44 45 46 46 47 48 49 49 49 49 50 51 51 52 52 51 51 50 50 49 49 48 48 48 47 47 46 46 45 45 45 44 44 43 42 41
41 42 42 43 43 44 45 45 46 47 48 49 50 51 52 52 52 52 53 53 53 53 52 51 51 51 51 51 50 50 49 49 49 48 48 47 46 46 46 45 45 44 44
42 43 44 44 45 45 46 47 48 48 49 50 51 52 53 54 54 54 54 54 54 54 53 54 53 53 53 53 53 52 51 51 50 49 48 47 46 46 46 46 46 46 46
43 44 45 45 46 47 47 47 48 49 50 51 52 52 53 54 55 56 56 55 55 55 56 55 55 54 55 54 55 54 52 52 52 51 49 48 47 48 47 47 48 48 47
44 44 45 46 46 47 47 47 48 49 50 51 52 53 53 54 54 55 56 56 56 56 55 55 54 54 54 54 54 53 52 50 49 49 49 50 49 49 48 48 49 49 49
44 44 45 45 45 46 46 47 48 48 49 50 50 51 52 53 54 55 56 56 56 55 54 53 53 53 53 53 52 51 51 53 51 50 51 52 51 49 49 49 49 49 50
44 44 44 44 44 45 45 46 46 46 47 48 48 49 51 53 54 54 55 55 55 53 52 51 50 49 49 50 50 50 50 51 52 52 49 49 50 50 49 48 48 48 49
43 43 43 43 43 43 44 44 44 44 45 46 47 49 51 51 52 52 52 52 52 50 48 48 48 48 47 46 47 47 49 49 51 52 50 48 49 49 50 49 49 49 49
42 43 42 42 42 42 42 42 42 43 44 45 46 47 48 47 47 48 48 47 47 47 45 44 45 45 44 44 43 44 45 46 47 49 50 49 49 51 50 50 51 50 50
41 41 41 40 40 40 40 40 40 41 43 43 44 44 43 43 43 44 43 42 42 42 41 40 41 41 41 42 41 42 44 45 46 48 48 48 49 49 50 50 51 52 52
39 39 38 38 38 38 38 38 39 40 41 41 41 40 40 40 41 41 39 38 37 37 37 37 37 37 38 38 40 41 42 44 45 47 48 49 49 50 50 51 52 52 53
36 36 35 35 35 36 36 37 37 38 39 38 37 38 38 37 37 36 35 35 35 34 34 35 35 35 36 36 38 39 41 42 44 45 46 48 49 49 50 51 51 51 52
33 33 33 33 34 34 35 35 36 36 36 35 35 35 34 34 33 32 32 32 32 31 31 31 32 33 34 35 37 39 40 42 43 45 46 47 48 49 50 51 51 51 52
31 32 32 32 32 33 33 34 34 34 33 33 33 32 32 32 31 30 29 29 29 29 29 30 31 32 33 34 36 38 40 42 43 45 46 48 48 49 50 51 51 52 52
30 30 31 31 31 32 32 33 33 32 32 32 31 31 31 30 30 29 29 29 29 29 29 30 32 33 34 36 37 39 41 43 45 46 47 49 50 51 52 53 53 53 53
29 29 29 30 30 30 31 31 31 30 30 30 30 30 30 29 29 29 29 29 30 30 31 32 33 34 35 37 39 41 43 45 47 48 49 51 52 53 54 54 54 54 53
28 29 29 29 29 29 29 29 29 29 30 29 30 30 30 30 30 30 30 31 31 32 33 34 35 36 38 39 41 42 44 47 49 50 51 52 53 53 54 54 53 53 53
27 27 28 28 28 28 28 28 29 29 29 29 29 30 30 31 31 31 32 33 33 34 36 37 38 39 40 42 43 45 47 48 50 51 51 51 51 52 52 52 52 51 51
26 26 27 27 27 27 27 28 28 29 29 29 30 31 31 32 32 33 34 35 36 37 38 39 40 41 42 43 45 47 48 49 49 49 49 48 48 47 47 48 48 48 46

GEFSMA_500_meanwind_078.txt.gz
Wind_Speed
23 23 23 23 24 24 24 25 26 27 27 28 29 30 31 31 32 33 34 34 35 36 36 37 37 38 38 38 38 38 38 37 37 36 35 34 33 32 31 30 29 27 26
25 25 25 26 26 26 26 27 28 28 29 30 31 32 33 33 34 35 36 37 37 38 39 39 40 40 40 40 40 40 40 40 39 39 38 37 36 35 34 32 31 30 29
27 27 27 28 28 28 29 29 30 31 32 33 34 35 35 36 37 37 38 38 39 40 41 41 42 42 42 42 42 42 42 42 42 42 41 40 39 38 37 36 34 33 32
30 30 30 30 31 31 31 32 33 33 34 35 36 37 37 38 39 40 40 41 41 42 43 43 43 44 44 44 44 44 44 44 44 43 43 43 42 41 39 38 37 36 35
32 32 32 32 33 33 33 34 35 36 37 38 39 40 40 41 41 42 42 43 43 44 44 45 45 45 45 45 45 45 45 45 45 45 45 44 44 43 42 41 40 39 38
34 34 34 34 35 35 36 37 38 39 40 41 42 42 42 43 43 43 44 44 45 45 46 46 47 47 46 46 46 46 46 46 46 46 46 46 46 46 45 44 43 42 41
37 36 36 36 37 38 38 39 40 41 42 43 44 43 43 43 44 44 45 45 46 47 48 48 48 47 47 47 47 47 48 48 48 48 47 47 48 47 47 45 45 44 43
38 38 38 39 39 40 41 41 42 43 43 45 45 45 44 43 43 45 45 46 47 47 48 48 48 48 48 48 49 49 49 49 49 50 50 50 50 49 48 47 46 46 45
40 40 40 41 42 42 43 43 44 45 45 45 46 46 46 45 44 44 45 46 46 47 47 48 48 49 49 50 50 50 50 51 51 51 51 51 51 50 50 49 48 47 47
42 42 42 43 43 44 44 45 46 46 46 46 46 46 47 47 46 45 44 45 45 46 47 48 49 49 50 51 51 51 51 51 50 51 51 51 50 50 50 50 48 48 47
43 43 43 44 44 45 45 46 46 47 46 46 46 46 46 47 47 47 45 45 45 46 48 49 49 49 50 51 52 51 51 50 50 49 49 50 50 50 50 50 50 48 47
44 44 45 45 45 46 46 47 47 46 46 46 46 46 46 46 45 46 45 45 45 46 48 48 48 48 49 50 50 49 48 49 48 48 48 48 47 47 48 47 47 46 46
45 46 46 47 47 47 47 47 46 46 46 46 46 46 45 45 45 45 45 45 45 46 46 47 47 47 47 48 47 46 46 45 44 45 45 43 44 44 44 44 44 43 43
47 47 47 47 47 46 46 46 46 46 45 45 45 45 44 44 44 44 45 45 45 45 44 44 44 45 45 45 43 42 41 40 41 40 39 40 41 41 42 41 40 40 41
47 47 47 47 46 47 46 45 45 45 44 44 43 43 43 43 43 44 44 44 44 43 41 41 42 42 42 41 40 39 38 37 36 36 37 38 39 39 40 39 39 40 40
46 46 47 46 46 45 44 44 44 43 43 42 42 42 42 42 42 43 43 43 42 41 40 40 40 39 38 38 37 36 36 35 33 33 34 34 34 34 35 36 38 39 40
46 46 45 45 44 44 43 43 42 42 41 41 41 41 41 41 41 41 41 40 40 40 39 39 38 38 36 35 34 34 33 32 31 31 31 31 32 33 33 35 36 37 39
45 44 43 42 42 42 42 41 40 39 39 39 39 39 39 40 40 40 39 39 39 39 38 37 37 36 34 33 33 33 32 31 30 30 31 32 32 33 34 36 37 38 39
43 42 42 41 41 41 40 39 38 38 38 38 38 38 38 38 38 38 38 37 37 37 37 36 35 34 33 33 33 33 33 32 32 32 33 34 35 35 35 36 37 38 39
41 40 40 40 39 38 38 37 37 36 36 36 36 36 37 37 37 37 36 36 36 36 36 35 35 34 34 34 34 34 34 34 34 35 35 36 36 37 38 39 40 41 42
39 38 38 37 36 36 36 35 35 35 35 35 35 35 36 35 35 35 35 35 35 35 35 35 35 35 35 35 35 35 35 36 36 37 38 38 39 40 41 42 43 43 45
36 36 36 35 34 34 34 34 34 33 33 33 34 34 34 34 34 34 34 34 34 35 35 35 35 35 36 36 36 37 38 38 39 39 40 41 42 43 43 44 44 45 46
34 34 33 33 33 32 32 32 32 32 32 32 33 33 33 33 33 33 34 34 35 35 35 35 36 37 37 37 38 39 39 40 41 41 42 43 44 44 45 45 45 45 46
31 31 31 31 30 30 30 30 30 30 31 32 32 32 32 33 33 33 34 35 35 36 36 36 37 38 38 39 40 41 41 42 43 43 44 45 46 46 46 45 45 45 45
29 29 29 28 28 28 29 29 29 29 30 31 32 32 32 33 33 34 34 35 36 36 37 38 38 39 40 41 41 42 43 44 45 45 45 46 46 46 46 46 46 45 45
27 27 27 27 27 27 28 28 29 29 30 31 31 32 32 33 33 34 35 36 36 37 38 39 40 40 41 42 43 44 45 46 46 46 46 46 47 47 47 47 47 46 45

GEFSMA_500_meanwind_084.txt.gz
Wind_Speed
21 21 21 21 21 21 21 22 22 23 24 25 26 27 28 30 31 32 33 34 35 36 36 36 36 36 36 36 35 35 36 36 36 36 36 35 35 35 35 34 33 33 32
24 24 24 24 24 23 24 24 25 25 26 27 28 29 30 32 33 34 35 36 37 38 38 38 37 37 37 37 37 37 37 37 37 37 37 36 36 36 36 35 35 34 33
27 27 27 27 27 26 26 27 27 28 29 30 31 31 32 33 35 36 37 38 39 39 39 39 39 38 38 38 38 38 38 38 38 38 37 37 36 36 36 36 36 36 35
30 30 30 30 29 29 29 30 30 31 32 32 33 34 35 36 37 38 39 40 41 40 40 40 40 39 39 39 39 39 39 38 38 38 38 38 37 37 38 38 38 38 37
33 33 33 33 32 32 32 33 33 34 34 35 36 36 37 38 39 40 41 42 42 41 41 41 41 40 40 40 40 39 38 38 38 39 39 39 39 39 39 40 40 40 40
36 36 36 36 35 35 35 36 36 36 36 37 38 39 40 40 41 42 42 43 43 42 42 42 42 41 41 40 40 39 39 39 40 40 40 40 40 40 41 40 41 41 41
39 39 38 38 38 38 38 38 38 38 39 40 41 41 41 42 42 43 43 44 43 43 42 42 42 42 41 41 40 40 40 40 40 41 40 41 41 42 41 41 41 42 43
42 42 41 41 40 40 40 40 41 41 41 42 43 44 43 42 42 43 44 44 44 43 43 43 43 42 42 41 41 41 40 40 41 41 40 41 41 41 42 42 43 43 43
44 44 43 43 42 42 42 42 43 43 43 44 45 46 45 44 43 42 42 43 43 44 44 43 43 42 42 42 41 41 41 41 41 40 40 41 41 41 41 42 43 43 43
46 46 45 45 44 44 44 44 44 45 45 45 45 45 46 46 46 44 42 42 43 43 43 42 42 42 42 42 41 41 41 41 40 39 40 39 39 39 40 40 41 41 41
48 48 47 46 46 45 45 45 46 46 46 46 46 46 46 46 46 45 44 43 42 43 42 42 42 42 41 41 41 40 40 39 39 39 38 37 38 38 38 38 38 38 38
50 49 48 48 47 47 47 47 47 47 47 47 47 47 46 46 45 45 44 43 43 42 42 42 42 42 41 41 40 39 38 38 38 38 37 37 37 36 36 35 35 35 35
51 50 49 49 49 49 48 48 48 48 48 47 47 46 46 45 45 44 43 43 42 41 41 41 41 41 40 40 39 38 38 37 37 36 35 35 35 34 34 33 34 34 34
51 50 50 50 49 49 48 48 49 48 48 47 46 46 45 45 44 43 42 41 41 41 40 40 40 40 39 39 38 37 36 36 35 35 34 34 33 32 31 31 32 32 33
51 50 50 49 49 49 49 49 48 48 47 46 45 45 44 43 43 42 41 41 40 40 39 39 39 38 38 38 37 37 36 35 34 34 33 32 31 31 30 30 30 30 30
50 49 49 49 48 48 48 48 48 47 46 45 44 43 42 42 41 40 40 40 39 39 38 38 37 37 37 37 36 36 35 35 34 33 32 32 31 32 32 31 30 29 29
49 48 48 48 47 47 46 46 45 45 45 43 42 42 41 40 39 39 39 38 38 38 37 36 37 36 36 36 36 35 35 34 33 33 32 32 32 33 32 31 31 31 31
47 46 46 46 45 44 44 44 44 43 42 42 41 40 39 39 38 38 37 37 37 36 36 36 36 36 36 35 35 35 34 33 33 33 33 33 33 33 32 33 32 32 32
47 46 46 45 45 44 44 43 42 41 41 40 39 39 38 37 37 37 36 36 36 35 35 35 35 35 35 35 35 34 34 34 33 33 33 33 33 33 34 34 34 35 35
46 45 44 44 44 44 43 42 41 39 39 38 38 37 36 36 36 35 35 34 34 34 34 34 34 34 34 34 34 34 34 34 34 35 35 34 35 35 36 36 37 37 38
44 44 43 42 41 40 40 39 38 38 37 37 36 36 35 35 34 33 33 33 33 33 33 33 33 34 34 34 34 35 35 36 36 36 36 36 36 37 38 38 39 40 41
41 41 41 40 39 39 38 38 37 36 36 35 34 34 33 33 32 32 32 32 32 32 32 33 33 34 34 35 35 36 36 37 37 38 38 38 39 40 40 40 41 42 42
38 38 37 37 37 36 36 36 35 34 34 33 33 32 32 31 31 31 31 31 31 32 32 33 34 34 35 36 36 37 37 38 39 39 40 41 41 42 43 43 43 43 43
35 35 35 35 34 34 34 33 33 33 32 32 31 31 30 30 30 30 30 31 31 31 32 33 34 35 36 37 37 38 39 40 40 41 42 42 43 44 44 45 44 44 44
33 33 33 32 32 32 32 32 31 31 31 31 30 30 29 30 30 30 30 30 31 32 33 34 35 36 37 37 38 39 40 41 42 43 43 44 45 45 46 46 45 45 45
31 31 31 31 30 30 30 30 30 30 30 29 29 29 29 29 29 30 30 31 32 33 34 35 36 37 37 38 39 40 41 42 43 44 44 45 46 46 46 47 47 46 45

GEFSMA_500_meanwind_090.txt.gz
Wind_Speed
22 21 21 21 21 21 21 22 22 22 23 23 24 25 26 27 28 28 30 31 33 34 35 35 36 36 36 36 36 35 35 35 35 34 34 34 34 33 32 31 31 30 30
25 24 24 24 23 23 24 24 25 25 25 26 27 27 28 29 30 31 32 33 34 36 36 37 37 38 38 37 37 36 36 36 36 35 35 35 34 34 33 32 32 31 31
28 27 27 26 26 26 26 27 27 28 28 29 29 29 30 31 32 33 34 35 36 37 38 38 39 39 39 38 38 37 36 36 37 36 36 35 35 35 34 33 33 32 32
31 30 30 30 30 29 29 30 30 30 30 31 31 32 33 33 34 36 37 38 39 39 39 40 40 41 40 39 38 37 37 37 37 37 37 36 36 36 35 34 34 33 32
34 34 33 33 33 33 33 32 32 33 33 33 34 34 35 35 37 38 39 40 41 41 41 42 42 41 41 40 38 38 38 38 38 38 37 37 37 37 36 35 34 34 33
38 38 37 37 36 36 36 36 36 36 36 36 37 37 37 38 39 40 41 42 43 43 43 43 42 42 41 40 39 39 38 38 38 38 38 38 37 37 36 35 35 34 34
41 40 40 40 39 39 39 40 39 39 39 39 39 40 40 41 41 42 43 44 45 44 44 43 43 42 41 40 40 40 39 39 38 38 38 38 37 37 36 36 35 35 35
44 44 43 42 42 42 43 43 42 41 41 42 42 43 42 42 42 43 44 44 45 45 45 45 44 43 41 41 41 40 40 39 38 38 38 37 37 37 36 36 36 36 35
46 47 47 46 45 45 45 45 45 44 44 44 45 46 46 45 46 45 44 44 44 44 45 45 44 43 42 42 41 40 39 39 38 38 37 37 36 36 36 35 36 35 35
48 48 49 49 48 48 48 48 48 47 47 47 47 47 48 49 48 47 46 45 45 45 45 44 43 43 43 42 41 40 39 39 38 38 37 36 36 35 35 34 34 34 33
50 50 51 51 51 51 51 51 51 50 49 49 48 48 49 48 48 48 47 46 46 45 44 43 43 43 42 41 41 40 39 38 37 36 36 35 35 34 34 34 33 33 31
51 51 51 52 53 53 53 53 52 51 50 49 50 49 49 48 48 47 47 46 46 45 44 43 43 42 41 41 40 39 38 37 36 36 35 35 34 34 34 33 32 31 31
52 52 52 52 52 52 52 51 51 50 50 50 50 49 49 48 48 47 47 46 46 45 44 43 43 42 41 40 39 38 37 36 36 35 35 34 34 33 33 32 31 30 30
52 53 53 52 52 52 51 51 50 50 50 50 50 49 48 47 47 47 47 46 45 44 44 43 42 41 40 39 38 37 36 35 35 35 34 34 33 32 32 31 30 30 30
53 53 52 52 51 51 51 51 51 50 50 50 49 49 48 48 47 47 46 45 44 43 42 41 40 40 39 38 37 36 35 35 34 34 33 33 33 32 31 30 30 30 30
53 52 52 51 51 50 51 50 50 49 49 49 48 48 47 47 46 45 44 43 42 42 41 40 39 38 38 37 36 35 34 34 33 33 32 32 32 31 31 31 30 30 30
51 50 50 50 50 50 50 49 49 48 48 47 47 46 45 45 44 44 43 42 41 40 39 38 38 37 36 35 34 34 33 33 33 32 32 32 31 31 31 31 31 31 30
50 50 49 48 48 48 48 47 47 47 47 47 46 45 44 44 44 43 42 40 40 39 38 37 36 35 34 34 33 33 32 32 32 32 32 31 31 31 31 31 32 32 32
48 48 48 47 47 47 46 46 46 46 46 46 45 45 44 44 43 42 40 39 38 37 37 36 35 34 33 33 32 32 31 31 31 31 31 31 31 32 32 32 33 33 33
47 47 46 46 46 46 46 46 46 46 45 45 44 44 43 42 40 39 38 37 36 36 35 34 33 33 32 31 31 31 31 31 31 31 31 32 32 33 33 33 34 35 35
45 44 44 44 44 44 44 44 44 44 43 43 42 42 41 39 38 38 36 35 35 34 33 33 32 32 31 31 31 31 31 31 32 32 32 33 33 34 34 35 36 36 37
41 41 41 42 42 42 42 42 42 42 41 41 40 39 38 37 36 35 35 34 33 33 32 32 31 31 31 30 30 30 31 31 32 32 33 34 35 35 36 37 37 38 39
39 39 39 40 40 40 40 40 39 39 38 37 37 36 35 35 34 33 33 32 32 32 31 31 31 30 30 30 30 31 31 32 32 33 34 35 36 36 37 38 39 39 39
38 38 38 38 38 38 38 37 37 36 35 34 34 34 33 32 32 31 31 31 31 30 30 30 30 30 30 30 30 31 32 32 33 34 35 36 36 37 38 39 39 39 40
36 36 35 35 35 35 35 34 34 34 33 33 32 32 32 31 31 31 30 30 30 30 30 30 30 30 30 30 31 32 32 33 34 35 36 36 37 38 39 40 40 40 41
34 34 33 33 33 33 32 32 32 32 31 31 31 30 30 30 29 29 29 29 29 29 29 29 30 30 30 31 32 32 33 34 35 36 37 37 38 39 40 41 41 41 41

GEFSMA_500_meanwind_096.txt.gz
Wind_Speed
24 23 23 23 23 23 23 23 23 23 23 23 24 24 25 25 25 26 27 27 28 29 30 31 32 33 33 34 34 35 35 36 36 35 34 33 33 32 32 32 31 31 31
26 26 26 26 26 25 25 25 25 25 25 25 26 26 27 27 28 28 29 29 30 32 33 33 34 35 35 36 36 36 36 36 37 36 35 34 34 33 33 32 32 32 32
28 28 28 28 28 27 27 27 28 28 28 28 28 28 29 30 30 30 31 32 32 34 35 36 36 37 37 37 37 37 37 37 37 36 35 35 35 34 34 33 33 33 32
30 30 30 30 30 30 30 30 30 30 30 30 30 31 31 32 33 33 34 35 35 36 37 38 38 38 38 38 38 38 38 38 37 37 36 36 35 35 34 34 33 33 32
32 32 32 33 32 32 32 32 32 32 32 33 33 33 34 35 36 37 37 38 38 39 40 40 40 40 39 39 39 39 38 38 37 36 37 36 36 35 35 34 34 32 31
35 34 34 34 34 34 34 35 35 35 35 36 36 36 36 37 38 38 39 40 41 41 42 42 42 41 40 40 40 39 39 38 37 36 37 36 36 36 35 34 33 32 31
37 37 36 36 37 37 37 37 38 38 38 39 39 39 39 39 40 41 42 43 43 44 44 44 44 43 42 41 40 40 39 38 37 37 37 37 36 35 35 34 33 32 31
40 40 39 39 39 39 39 40 40 40 40 41 41 41 40 41 42 43 44 45 45 45 45 45 44 43 42 42 41 40 39 38 38 38 37 36 35 35 34 33 32 31 30
42 42 42 43 43 43 42 42 42 42 42 43 43 44 44 44 44 44 45 45 46 45 45 45 44 43 42 42 42 40 39 39 38 37 36 35 34 34 33 32 31 30 30
45 45 45 46 46 45 45 44 44 44 44 44 45 46 46 46 47 46 46 46 45 45 45 44 43 42 42 42 41 40 40 39 38 37 36 35 34 33 32 30 30 29 29
47 46 46 47 47 47 46 46 46 46 46 46 47 47 47 48 48 48 47 46 45 45 44 44 43 42 42 42 41 40 40 39 38 37 36 35 33 32 30 29 29 28 28
49 48 48 48 48 48 47 47 47 47 47 47 47 48 48 48 48 48 47 46 45 45 44 44 43 43 42 41 40 40 39 38 37 36 35 34 32 30 29 28 28 28 27
49 49 49 49 49 49 48 48 48 48 48 48 48 48 48 47 47 46 46 46 45 45 45 44 43 43 42 41 40 39 38 37 35 34 33 32 31 29 28 28 27 27 27
51 50 49 49 49 49 49 49 49 49 48 48 48 47 47 46 46 45 45 45 45 45 44 43 42 41 41 40 39 38 37 36 34 33 32 31 29 28 28 28 27 27 26
50 50 49 50 50 50 49 49 49 49 49 49 48 47 46 46 45 45 45 45 45 44 43 42 42 41 41 39 38 37 36 35 34 32 31 29 28 28 27 27 26 26 26
50 49 50 51 51 51 51 50 51 51 50 49 48 48 47 46 45 45 45 45 44 43 42 42 41 40 39 38 37 36 35 34 32 30 29 28 28 27 26 26 26 25 25
50 49 50 50 50 51 51 50 50 49 49 48 48 47 47 46 46 45 45 44 44 43 42 41 40 39 38 37 36 35 34 32 30 29 28 27 27 26 26 25 25 25 25
49 49 49 48 48 48 48 47 47 47 47 47 46 46 46 45 45 45 44 44 44 43 42 41 39 38 37 35 34 33 32 31 30 28 28 27 27 26 26 26 25 25 25
47 47 47 47 47 47 47 47 46 46 46 46 46 45 45 45 45 44 44 43 43 42 41 40 39 37 36 35 33 32 31 30 29 28 27 27 27 26 26 26 26 26 26
45 46 46 46 46 46 45 45 45 45 45 45 44 44 43 43 43 43 42 41 41 40 40 39 37 35 34 32 31 31 30 29 28 28 27 27 26 26 26 26 27 27 27
44 44 44 45 45 44 44 43 43 44 44 44 43 43 42 42 42 41 40 40 39 38 37 36 34 32 31 30 30 30 29 28 28 27 27 26 26 26 26 27 27 28 28
43 43 43 43 43 42 42 42 42 42 42 42 41 41 41 41 40 39 38 38 36 35 34 33 32 31 30 30 29 28 28 27 27 27 27 26 27 27 27 28 28 29 29
42 42 41 41 41 40 41 41 41 41 41 40 40 39 39 38 37 37 36 35 34 33 32 31 30 30 29 28 28 28 27 28 27 27 27 27 27 27 28 29 29 30 30
40 41 41 40 40 40 40 39 39 39 39 39 38 37 36 35 35 34 34 33 32 32 31 30 29 29 28 28 28 28 28 28 28 27 27 28 28 28 29 30 30 31 31
39 39 39 39 38 38 38 38 38 37 37 36 36 34 34 34 33 33 32 32 31 30 29 29 28 28 27 28 28 28 28 28 28 28 28 28 29 29 30 31 31 31 32
37 37 37 37 37 37 37 36 36 35 35 34 33 33 33 33 32 31 30 30 29 29 28 28 28 28 27 27 27 27 28 28 28 29 29 29 30 30 31 32 32 32 33

GEFSMA_500_meanwind_102.txt.gz
Wind_Speed
23 23 23 23 23 23 23 24 24 24 25 25 25 25 25 25 26 26 26 27 27 28 29 29 30 31 32 33 34 35 36 36 37 36 36 36 36 35 34 34 33 32 31
24 24 25 25 25 25 25 26 26 26 26 27 27 27 27 27 28 29 29 29 30 30 31 31 32 33 34 35 36 37 37 38 38 38 37 37 37 36 35 34 34 33 32
26 26 26 26 27 27 27 27 28 28 29 29 29 29 29 30 30 30 31 32 32 32 33 34 34 35 36 37 38 38 38 39 39 39 38 37 37 36 35 34 34 33 32
29 29 29 29 29 29 29 29 30 30 30 31 31 31 31 32 32 33 33 33 34 34 35 36 36 37 38 39 39 40 40 40 40 39 38 38 37 36 36 36 34 33 31
31 31 31 31 30 31 31 31 32 32 32 32 33 33 34 35 35 35 35 36 36 36 37 38 39 40 40 40 41 41 41 41 40 39 39 38 37 37 36 36 34 32 31
33 33 33 33 33 33 33 34 34 34 34 34 35 35 36 37 37 38 38 38 38 39 40 40 41 42 42 42 42 42 42 41 40 39 39 38 38 37 36 35 33 32 31
36 35 35 35 35 35 36 36 36 36 37 38 38 38 38 38 39 39 39 39 40 41 42 43 43 44 43 43 43 43 41 40 40 40 39 39 39 37 36 35 33 32 30
38 38 38 38 38 38 38 38 38 39 40 40 40 40 40 39 40 41 42 42 43 43 44 44 45 45 44 44 44 43 41 40 40 40 40 39 38 36 35 34 33 31 30
39 39 39 40 40 40 40 41 41 41 41 41 41 42 42 42 42 42 42 43 43 44 45 45 45 46 45 45 44 43 42 41 40 40 39 38 37 36 34 33 32 31 29
41 41 41 42 42 43 43 43 42 42 42 42 42 43 44 44 44 43 43 44 44 44 44 45 45 45 44 44 43 43 42 41 40 40 39 37 36 35 34 33 32 30 29
43 43 44 44 44 44 44 43 43 44 44 45 45 45 45 44 45 45 44 44 44 45 45 45 44 44 43 43 43 43 42 41 40 39 38 37 36 34 34 32 31 29 27
46 45 45 46 46 46 46 47 47 47 47 47 47 46 46 46 46 46 46 45 45 45 45 45 44 44 44 43 43 43 42 41 40 38 37 36 35 34 33 31 30 28 27
47 47 47 48 49 48 47 47 47 47 47 47 47 47 47 47 47 47 47 47 46 46 45 45 45 45 44 43 43 42 41 40 39 38 37 36 34 33 32 30 29 28 27
49 49 49 49 50 49 48 48 48 48 47 48 48 48 48 47 47 47 47 47 47 47 46 46 46 45 44 43 43 42 40 39 38 37 36 35 33 32 31 29 28 27 26
51 50 50 50 51 50 49 49 49 49 49 48 47 47 47 47 47 48 48 48 48 47 46 45 45 44 44 43 42 41 40 39 38 37 36 34 33 31 30 29 28 27 25
50 50 50 51 50 50 50 50 50 49 49 48 47 47 47 48 47 48 48 47 47 47 46 44 44 43 43 42 42 41 40 39 37 36 35 33 32 31 29 28 27 26 24
50 50 50 50 50 50 50 50 50 50 50 50 50 49 48 48 48 47 47 47 47 46 45 44 43 42 41 41 41 40 39 38 36 35 34 32 30 29 28 27 26 25 24
49 50 50 51 50 50 50 50 50 50 50 50 49 48 47 47 47 46 46 46 45 44 43 42 41 41 40 40 39 38 37 36 34 33 32 30 28 28 27 26 25 24 24
49 50 50 50 50 50 49 49 48 48 48 48 47 47 46 45 45 44 44 44 43 43 42 41 41 40 39 38 38 37 36 34 33 32 30 29 28 27 26 25 25 24 24
48 48 48 48 48 48 47 47 46 45 45 46 46 45 45 44 43 42 42 42 42 41 41 40 39 38 38 38 37 36 34 32 31 31 29 28 27 26 25 25 24 24 23
47 47 47 46 46 45 44 44 44 44 44 44 44 44 43 42 41 41 41 41 40 40 39 38 37 37 37 36 35 33 32 31 30 29 27 26 26 25 25 25 24 24 24
47 46 45 45 45 44 44 43 43 43 42 42 42 41 40 40 40 40 40 40 40 39 38 37 36 35 34 33 32 32 31 29 28 27 26 26 26 26 25 25 25 24 24
46 45 45 45 44 44 43 43 42 42 42 41 40 40 40 40 40 40 39 39 38 37 36 35 34 33 32 32 31 30 29 28 28 27 27 27 26 26 25 25 25 25 25
43 43 43 43 43 42 42 42 41 41 41 40 40 40 40 39 39 38 37 37 35 34 34 33 32 31 31 30 29 28 28 28 28 28 27 27 26 26 26 25 25 25 25
41 41 41 41 41 41 41 41 40 39 39 39 39 39 38 38 37 36 35 34 33 32 31 31 30 30 29 29 28 28 27 27 27 27 27 26 26 26 26 26 26 26 26
39 39 39 39 39 39 39 38 38 38 38 38 37 37 37 36 35 34 33 32 31 31 31 30 30 29 28 28 28 27 27 27 27 27 27 27 27 27 27 27 27 27 27

GEFSMA_500_meanwind_108.txt.gz
Wind_Speed
29 28 28 27 26 25 25 25 24 24 25 25 25 25 26 26 26 27 27 28 28 29 29 30 30 31 31 32 32 33 34 34 35 35 36 36 37 37 37 36 35 34 33
31 30 30 29 28 27 27 27 26 26 26 26 27 27 27 27 28 28 29 30 30 31 31 32 32 32 32 33 34 35 35 36 37 37 38 38 38 38 37 36 35 34 33
33 32 32 31 30 29 29 29 29 29 29 29 29 29 29 29 30 30 31 32 32 32 33 33 33 34 34 35 36 36 37 37 38 39 39 39 39 39 38 37 35 34 34
35 35 34 33 32 32 31 31 31 31 31 31 31 31 31 32 32 32 33 34 34 34 35 35 35 35 36 36 37 38 39 39 40 40 40 40 40 39 38 37 36 36 35
38 37 36 35 34 34 33 33 33 33 33 33 33 33 34 34 34 34 35 35 36 36 36 36 37 37 38 38 39 39 40 41 41 41 41 41 40 40 39 38 37 36 35
40 39 38 37 37 36 35 35 36 35 35 35 35 35 35 36 36 36 36 36 37 37 37 38 38 39 39 40 40 41 41 41 42 42 41 40 40 39 39 38 37 36 35
40 41 40 39 39 38 37 37 37 37 37 37 37 36 36 37 36 37 37 37 38 39 39 40 40 40 40 41 41 42 42 42 42 42 41 41 40 39 38 38 36 35 34
42 42 41 41 40 39 38 38 39 39 39 38 38 38 38 38 38 38 39 38 39 39 40 40 40 40 41 41 42 42 42 43 42 42 41 41 40 39 38 37 36 34 33
43 43 43 42 42 41 41 40 40 39 39 39 39 39 39 39 38 38 39 40 41 42 42 42 42 42 43 43 43 43 43 43 43 42 42 41 40 39 38 37 36 35 33
44 45 44 44 45 44 42 41 40 40 40 40 40 41 41 42 41 41 42 43 43 42 42 42 43 43 44 44 44 44 44 44 43 42 42 41 40 39 38 37 35 34 31
46 46 46 45 45 44 44 44 43 42 42 42 42 43 43 44 44 44 43 43 42 42 42 43 44 44 44 44 44 44 44 44 43 42 42 41 40 39 38 36 34 32 30
47 47 47 46 45 45 45 44 44 44 43 43 44 44 44 44 45 44 43 43 43 43 43 43 44 44 45 45 45 44 44 43 42 42 41 41 40 38 37 35 34 32 30
47 46 46 46 46 46 45 46 45 45 45 45 45 45 45 46 45 44 44 44 44 44 44 44 45 45 45 45 44 44 43 43 42 41 40 40 38 37 36 34 33 31 30
47 46 45 45 45 46 45 46 45 46 46 46 45 45 45 45 44 45 45 45 45 44 45 45 45 45 45 45 44 44 43 42 41 41 40 39 38 37 35 33 32 31 30
48 47 47 47 46 46 47 47 47 47 46 45 45 45 45 45 45 46 46 46 45 44 44 45 45 45 45 44 44 43 42 41 40 40 38 37 36 35 33 32 31 30 29
47 47 47 47 46 47 47 48 48 47 47 46 46 46 45 46 46 45 45 45 45 45 45 44 44 44 43 43 43 42 41 40 39 38 37 36 35 33 32 31 30 29 29
48 48 48 48 47 47 47 47 47 47 47 47 47 47 45 44 44 45 45 45 44 44 44 43 42 42 42 42 42 41 40 39 38 37 36 34 33 32 31 30 29 29 27
47 47 48 48 47 46 46 46 47 47 47 46 45 45 44 44 44 44 44 44 44 43 42 42 41 40 41 40 40 38 37 37 36 35 34 33 32 31 30 29 28 27 26
48 48 48 47 47 47 46 46 46 45 45 45 44 44 44 43 43 43 43 42 42 41 41 40 39 39 39 38 37 37 36 35 35 34 33 32 30 30 29 28 28 26 25
47 48 47 47 47 46 46 46 44 43 42 42 42 42 42 41 41 41 41 41 40 39 39 38 38 37 37 37 36 36 35 34 34 33 31 30 29 29 28 27 26 25 24
44 44 44 44 44 45 44 44 44 43 42 42 41 41 40 40 40 40 40 40 39 39 38 37 36 36 37 36 35 34 33 32 32 31 30 29 29 28 27 26 25 24 24
44 44 43 44 44 44 43 43 42 43 43 42 41 40 39 39 39 38 38 38 38 37 37 36 36 36 35 34 33 32 31 31 30 29 29 28 27 27 26 25 24 23 23
43 44 43 44 44 44 43 42 42 42 42 41 40 38 37 37 37 38 37 37 37 37 36 36 35 34 33 32 32 31 30 29 28 27 27 27 26 25 24 24 24 24 24
41 41 41 42 42 42 42 41 41 40 39 39 38 38 37 37 37 37 37 37 36 36 35 34 33 33 32 31 30 29 28 28 27 26 26 26 25 24 24 24 24 24 24
40 40 40 39 39 39 39 39 38 38 38 38 37 37 37 36 36 36 35 35 34 34 33 32 31 31 30 29 29 28 27 27 26 26 25 25 24 24 23 24 24 24 25
38 38 38 38 37 37 37 37 37 38 37 37 37 37 36 36 35 35 35 34 33 33 32 31 31 30 30 29 28 28 27 27 26 26 25 25 24 24 24 24 24 24 25

GEFSMA_500_meanwind_114.txt.gz
Wind_Speed
35 33 32 31 30 30 29 28 28 27 27 27 27 28 28 28 28 28 28 29 29 29 29 29 29 29 29 30 30 31 30 31 32 32 32 33 34 34 35 35 36 36 35
36 35 34 33 32 32 31 31 30 30 30 29 29 29 30 30 30 30 30 31 31 30 30 30 31 31 31 32 32 32 32 32 33 33 33 34 35 35 36 36 36 35 35
39 38 37 36 35 34 33 32 32 32 31 31 31 31 31 31 31 31 32 32 32 32 32 32 32 33 33 33 32 33 33 33 34 34 34 35 36 36 36 36 36 36 36
39 39 39 39 37 36 35 34 33 33 33 33 33 33 32 32 33 33 33 33 34 34 34 34 34 34 34 34 34 34 35 35 35 35 36 37 37 37 37 37 37 36 36
41 41 41 39 38 37 36 36 35 35 35 35 35 34 34 34 35 34 34 34 35 35 34 34 34 34 35 35 35 35 36 36 37 37 37 38 38 38 38 38 37 37 36
41 40 39 39 38 37 38 38 37 38 37 37 37 36 36 36 37 36 36 36 36 36 35 35 35 35 35 36 37 37 37 38 38 38 39 39 39 39 39 39 38 37 37
42 41 40 39 39 39 39 39 39 39 39 39 39 39 39 39 38 38 38 37 37 37 36 36 36 36 37 37 37 38 38 39 39 39 39 39 39 40 40 40 39 38 37
42 42 42 42 41 41 42 41 41 41 41 41 41 41 41 40 40 39 38 38 38 38 38 37 37 37 38 38 38 39 39 39 40 40 40 40 40 40 41 40 39 38 37
44 45 45 45 45 45 45 44 44 43 43 42 42 42 42 42 41 40 40 40 39 38 38 39 39 39 39 39 39 39 39 39 40 41 41 41 41 41 41 40 39 39 38
46 47 47 47 47 47 47 46 47 46 46 45 44 44 44 42 41 41 41 41 40 40 40 40 40 41 40 39 39 39 39 40 41 41 41 41 42 41 40 39 39 38 38
48 49 49 49 49 49 49 48 48 48 48 47 47 46 46 44 44 43 42 41 42 41 41 41 40 40 40 41 40 40 41 42 42 42 42 42 42 41 40 39 39 38 37
46 48 49 50 49 48 49 49 49 49 48 48 47 47 46 45 44 43 43 42 41 41 41 41 41 41 42 41 41 41 41 41 42 42 42 42 41 41 40 39 38 37 36
43 46 47 48 48 48 48 49 48 48 48 47 46 45 45 45 44 44 44 42 41 42 42 41 41 41 41 41 41 41 41 41 42 42 41 41 40 40 40 39 38 37 35
43 44 46 47 48 48 48 48 49 49 49 48 46 46 45 45 45 44 44 44 43 43 42 42 41 42 41 41 41 40 40 41 42 41 40 40 40 39 38 38 36 35 34
42 43 45 46 46 47 48 49 49 49 49 48 49 48 46 46 46 45 45 45 44 43 42 41 42 42 41 40 40 40 41 41 41 41 40 39 39 38 37 36 35 34 33
42 43 46 47 47 47 47 48 48 48 48 48 48 48 48 46 45 46 47 46 44 44 42 42 41 40 40 39 39 40 41 40 40 40 39 38 37 36 35 35 34 33 32
42 44 45 46 47 48 48 48 47 46 47 48 49 48 47 46 45 45 44 44 43 42 42 41 40 40 39 39 39 40 40 39 39 38 37 37 36 34 34 34 33 32 31
42 43 44 45 46 47 48 47 47 47 46 46 46 47 46 46 45 44 44 43 43 43 42 40 40 40 40 39 39 39 39 38 37 36 35 35 34 34 33 33 32 30 28
42 42 42 44 46 46 46 46 46 46 46 46 47 47 47 47 45 45 45 44 43 42 41 40 39 39 39 39 38 38 38 37 36 35 34 33 33 33 33 32 30 29 28
43 44 44 44 44 44 44 45 46 45 45 45 46 46 47 46 45 44 44 42 40 39 38 38 39 39 38 38 38 37 36 35 35 34 34 33 33 32 32 31 29 28 26
43 44 44 44 43 43 43 43 43 44 44 44 44 44 45 46 45 44 42 40 39 39 38 37 38 38 37 37 36 36 35 34 34 33 33 33 32 32 31 29 28 26 26
42 43 43 43 42 42 42 41 42 42 43 43 42 42 42 42 42 41 39 37 36 37 36 37 37 37 36 36 35 35 34 34 33 33 32 32 31 30 29 28 27 26 25
40 41 41 40 41 40 39 39 39 40 41 40 39 39 39 39 39 38 37 36 36 35 35 36 36 36 35 35 34 34 34 33 32 32 31 30 29 28 27 26 26 25 24
39 38 37 37 37 36 36 36 37 37 38 37 37 37 37 37 36 36 36 36 35 35 35 35 36 35 35 34 34 34 33 32 31 30 29 29 28 27 26 25 24 23 23
38 38 36 35 35 34 34 35 35 35 36 37 36 36 36 36 35 35 34 35 35 35 35 35 35 35 34 34 33 33 32 31 30 29 29 28 27 26 25 24 23 23 22
37 37 37 36 35 35 34 34 33 33 34 34 34 35 34 34 34 34 34 34 34 34 34 34 34 33 33 33 33 32 31 30 29 29 28 27 26 25 24 24 23 23 23

GEFSMA_500_meanwind_120.txt.gz
Wind_Speed
39 37 36 35 34 34 33 32 32 31 31 30 29 29 30 30 30 30 30 30 30 31 31 31 31 31 31 30 30 30 30 30 31 31 31 30 30 31 32 33 33 33 34
41 40 38 37 35 35 34 34 33 33 33 33 32 32 32 32 32 32 32 32 32 32 32 32 32 32 32 32 32 32 32 32 32 32 32 32 32 33 33 34 34 34 35
42 41 40 39 37 36 35 35 35 35 34 34 34 34 34 34 34 33 34 34 34 34 33 33 32 32 33 34 33 33 33 32 32 33 33 34 34 34 35 35 35 35 36
42 42 41 40 38 37 36 36 35 35 34 35 35 36 36 35 35 36 36 35 35 35 34 34 34 34 35 35 35 34 34 34 33 33 34 34 34 35 35 36 36 36 37
43 43 42 41 40 39 39 38 37 36 36 37 37 37 37 37 37 37 36 36 36 36 36 36 37 37 37 37 36 36 35 35 35 34 35 35 35 36 36 37 37 38 38
44 43 42 42 42 41 41 40 39 38 39 39 39 40 39 39 39 39 39 39 39 39 40 40 40 39 39 38 38 37 37 37 36 36 36 36 36 37 37 37 38 39 39
44 44 42 42 42 42 42 42 41 40 40 41 42 42 41 41 41 42 42 42 42 42 42 42 42 41 40 40 39 39 38 38 37 37 37 37 37 38 38 38 39 39 39
43 43 43 42 43 43 44 44 43 42 43 43 43 43 43 43 43 44 44 44 44 44 43 43 43 42 41 41 40 39 38 38 37 38 37 37 38 39 39 39 39 40 40
41 41 42 42 43 43 44 45 44 44 45 45 45 46 45 44 44 45 45 45 45 46 45 45 44 43 43 42 41 40 39 39 39 39 39 39 40 41 40 40 40 40 40
40 41 41 41 42 43 45 46 46 46 46 47 47 46 47 47 47 47 47 47 47 46 45 45 45 44 44 43 42 42 41 41 41 40 40 40 41 41 40 40 41 41 40
39 40 40 42 43 44 45 46 47 47 48 49 49 48 48 49 49 49 49 48 46 46 46 46 46 46 45 44 43 43 42 41 41 40 40 40 41 41 40 40 40 40 39
38 39 40 41 42 43 45 46 47 48 48 49 50 51 50 49 49 49 49 48 47 46 46 47 47 45 45 44 43 43 42 41 41 41 41 41 41 41 41 40 40 39 38
38 38 39 40 41 41 43 44 46 47 48 50 51 52 52 49 48 48 48 47 47 46 46 46 45 46 46 45 44 43 42 42 41 42 41 41 40 40 40 40 40 39 38
38 38 38 39 39 41 43 45 47 48 49 51 52 53 53 51 49 48 48 47 47 46 46 47 47 47 47 45 44 44 43 42 41 41 40 40 39 39 40 40 39 38 37
38 38 39 39 39 40 43 46 47 49 50 50 51 52 52 51 50 50 49 47 47 47 47 47 47 47 47 46 45 44 42 41 41 41 40 39 39 40 39 38 38 37 36
38 40 40 41 42 43 44 46 47 49 49 49 50 51 50 50 50 50 49 49 49 50 48 48 47 46 46 45 44 42 41 41 41 40 40 39 39 39 38 37 36 35 34
40 40 41 42 43 46 48 49 49 49 48 48 48 49 48 47 49 49 50 50 49 48 47 47 47 46 45 43 42 41 41 40 40 40 39 39 38 38 36 36 35 33 32
41 43 44 44 45 46 47 48 48 48 48 48 48 48 48 48 49 49 49 49 48 47 46 44 44 43 43 41 41 41 40 39 39 38 39 38 37 36 35 34 33 32 31
39 41 43 45 45 45 45 46 47 49 49 48 47 46 46 46 47 46 45 45 44 44 43 42 41 40 40 41 41 40 40 40 39 38 37 36 36 34 33 32 32 31 30
37 39 41 43 44 44 45 46 46 46 47 46 47 47 46 45 44 43 43 42 42 42 41 40 40 40 41 41 41 41 40 39 37 37 36 35 34 33 32 32 31 30 29
36 37 39 41 43 43 44 45 45 45 46 47 47 47 45 43 42 41 40 41 41 40 39 39 39 40 41 40 39 38 37 35 36 35 35 34 33 32 32 31 30 29 27
36 37 38 39 41 43 44 45 46 46 45 44 44 43 43 42 41 40 40 39 39 38 39 39 39 39 39 39 39 36 35 35 35 34 34 33 33 32 31 30 29 28 27
36 37 37 38 39 39 40 41 42 43 42 40 41 40 40 40 39 39 39 38 38 39 39 38 37 37 37 37 37 36 35 35 34 34 33 33 32 31 30 29 28 27 27
35 35 36 37 38 38 38 38 38 38 38 38 37 37 37 37 38 37 38 38 36 37 36 36 36 36 36 36 36 36 35 35 34 34 33 32 31 30 29 28 27 27 26
32 34 35 36 37 37 38 37 36 37 36 36 35 35 35 34 35 36 36 36 36 37 36 35 35 36 36 35 34 34 33 34 33 33 32 31 29 29 28 28 27 26 26
32 32 34 34 34 35 35 35 36 36 35 34 34 35 35 35 35 36 36 35 36 36 36 36 35 35 35 34 33 33 33 33 32 31 31 30 29 29 28 27 27 26 26

GEFSMA_500_meanwind_126.txt.gz
Wind_Speed
38 37 36 35 35 34 34 33 32 31 31 30 29 29 29 30 30 30 30 31 31 32 33 33 33 33 34 34 34 34 33 34 34 33 33 32 31 31 30 30 31 31 32
39 39 38 37 36 36 35 35 34 34 33 32 31 31 31 32 31 31 32 32 33 33 34 34 34 35 35 35 36 35 35 35 35 35 35 34 33 32 32 32 32 33 34
41 40 39 38 38 37 37 37 36 35 35 34 34 34 34 34 34 34 34 34 34 34 35 35 35 36 36 36 36 36 36 36 37 37 36 35 34 33 33 33 33 34 34
41 41 40 39 39 39 38 38 38 37 37 37 36 36 36 36 36 36 36 36 36 36 36 37 37 37 38 38 38 38 38 39 39 38 37 37 36 35 35 35 35 35 35
42 42 41 40 40 39 39 39 39 39 39 38 38 38 38 38 38 39 39 39 38 39 39 39 39 40 40 40 40 40 41 41 40 40 39 38 38 37 36 36 36 35 36
44 43 42 41 41 41 40 40 40 40 40 40 40 39 40 41 41 41 41 41 41 41 41 41 41 42 42 42 42 42 43 43 42 42 41 40 40 39 38 38 37 36 36
44 44 43 42 42 42 41 41 42 42 42 43 43 43 43 43 43 44 44 44 43 43 43 44 44 45 45 45 45 45 45 45 44 43 42 42 41 40 39 38 37 37 38
43 43 43 43 43 42 42 43 43 43 43 44 45 45 45 45 44 45 45 45 45 45 46 46 46 46 47 48 48 47 47 47 46 45 44 43 42 40 39 39 38 39 39
43 43 42 43 43 43 43 44 44 44 45 46 46 47 46 46 46 46 45 46 47 47 47 47 47 48 48 48 47 47 46 47 46 45 45 44 43 41 40 39 39 40 40
42 42 43 43 43 43 43 44 44 45 45 46 46 47 47 48 48 47 46 46 46 47 48 48 48 48 49 49 49 49 49 48 47 46 45 45 44 42 41 41 41 41 41
42 42 42 42 42 43 44 44 44 46 46 46 47 47 47 47 48 48 48 47 47 48 49 50 49 49 50 49 49 50 49 47 46 46 45 45 44 43 42 43 43 41 41
41 41 40 41 43 44 45 45 45 46 46 46 47 47 48 48 48 49 49 49 49 49 50 51 50 50 50 51 50 49 49 47 46 45 44 43 43 43 43 43 43 42 41
38 39 40 40 41 43 44 45 45 45 46 47 46 47 48 48 49 51 51 50 50 50 50 51 50 50 51 52 51 49 47 46 45 43 42 42 43 42 42 41 42 41 40
39 39 41 40 39 41 43 44 44 45 45 47 48 49 50 49 50 51 50 50 50 50 50 50 49 50 51 51 50 48 46 44 43 42 42 42 42 41 40 40 40 38 37
37 37 39 41 40 40 41 42 43 44 46 48 48 48 48 48 49 49 50 51 51 51 50 49 50 49 48 47 45 44 43 41 41 42 41 40 40 41 40 39 37 36 36
35 37 38 40 41 41 41 42 44 45 47 48 47 47 47 48 48 49 50 51 51 51 50 49 49 47 46 45 43 42 41 40 40 40 40 39 39 40 39 38 36 35 35
37 38 39 40 41 41 41 43 44 45 45 45 46 47 48 49 50 50 50 49 48 48 48 47 46 44 42 42 41 41 41 40 39 39 39 39 39 38 38 37 35 35 34
36 37 38 39 40 41 42 42 42 44 46 46 47 48 50 50 50 51 49 48 48 48 48 46 45 43 41 40 39 40 40 39 39 38 37 37 38 37 36 35 34 34 33
33 35 36 38 39 40 41 43 44 45 46 47 48 49 50 50 51 48 47 48 47 47 46 45 43 42 41 40 39 39 38 38 37 36 35 35 36 36 35 34 34 33 31
32 33 34 36 38 40 41 43 45 46 47 47 47 48 48 48 46 45 45 46 45 44 43 42 41 41 40 38 38 36 36 35 35 35 34 35 35 34 34 33 33 31 30
30 31 32 34 36 39 40 42 44 45 44 44 45 46 47 46 46 45 45 45 43 42 42 41 41 40 39 38 37 35 35 34 34 34 34 34 34 33 32 32 31 30 29
29 30 31 33 36 38 39 40 42 42 42 41 41 42 44 45 45 45 45 44 43 43 42 42 41 39 38 38 36 34 34 33 34 34 34 33 32 32 31 30 30 29 28
29 31 33 35 36 37 37 38 39 40 40 40 41 41 40 41 42 43 41 40 40 40 41 41 40 38 37 35 35 34 33 32 32 33 33 31 30 30 30 29 29 28 27
28 30 32 34 35 35 35 36 37 38 38 38 39 39 39 39 40 40 40 39 38 37 37 38 37 36 36 35 33 32 32 32 31 30 30 29 28 29 29 28 27 27 26
27 29 30 32 33 33 34 35 35 35 35 36 36 37 37 38 39 39 39 39 37 36 35 33 33 33 34 33 33 33 32 31 30 30 30 29 28 28 28 28 28 26 26
28 29 30 30 31 32 32 33 34 34 34 34 35 35 36 36 37 37 37 36 36 35 35 34 33 32 32 32 31 31 30 30 30 30 30 29 28 28 28 28 27 26 25

GEFSMA_500_meanwind_132.txt.gz
Wind_Speed
38 38 37 36 35 34 34 33 33 32 31 31 31 31 31 30 30 31 31 31 31 31 31 31 32 33 33 33 33 33 33 34 34 34 34 34 34 33 33 32 32 32 31
39 38 39 37 36 35 35 35 35 34 33 33 32 33 33 32 32 32 32 32 32 33 33 34 34 35 35 35 35 36 36 36 36 35 35 35 35 35 35 34 34 33 33
40 40 39 39 38 37 36 36 36 36 35 35 35 34 34 34 34 33 33 34 34 34 35 35 36 37 37 38 38 38 38 38 38 37 37 37 36 36 36 36 36 35 35
42 41 40 39 39 38 38 38 37 37 37 37 37 36 36 36 35 35 34 35 36 37 37 38 38 39 39 39 40 40 40 40 40 39 39 39 39 38 38 38 38 37 37
44 43 43 41 41 40 39 39 39 39 38 38 38 38 38 37 37 37 37 37 37 38 39 40 40 40 41 41 42 42 42 42 42 41 41 42 41 41 40 40 39 38 37
44 44 44 43 42 42 41 41 41 40 40 40 40 40 39 39 38 39 39 39 40 40 41 42 43 43 44 44 45 45 45 45 45 45 44 44 44 43 42 41 40 39 38
44 45 45 43 43 43 42 42 42 42 42 42 42 42 41 41 41 41 42 42 42 43 44 44 44 45 45 46 47 48 48 48 48 47 46 46 45 44 43 42 41 40 39
46 44 44 44 44 43 43 43 43 43 43 43 43 43 43 43 42 42 43 44 45 46 46 45 45 45 46 48 48 49 49 50 49 49 48 47 47 46 45 43 42 41 39
47 46 44 43 43 44 44 44 44 44 44 44 44 45 45 44 44 44 46 46 46 46 46 46 46 47 48 49 50 51 51 51 51 51 50 49 48 47 45 44 43 40 39
47 46 46 45 43 43 43 43 44 45 45 45 45 45 46 46 46 46 46 46 46 46 46 46 47 48 49 51 51 51 51 51 51 50 50 49 48 46 44 43 42 40 38
45 46 46 45 45 45 44 44 44 45 45 46 46 46 46 46 47 47 46 45 46 46 47 47 48 49 50 50 50 51 51 51 51 50 48 47 45 44 42 41 40 39 38
41 43 43 44 45 45 45 45 45 46 47 47 47 46 45 46 47 47 46 46 46 46 48 49 49 49 49 50 49 50 50 50 50 49 48 46 43 41 40 39 39 39 38
39 40 41 42 43 45 46 46 46 47 47 47 45 44 44 45 46 47 47 47 47 47 48 48 48 48 48 49 49 48 47 47 47 46 45 44 42 39 39 38 38 36 37
36 36 38 39 41 43 45 45 45 44 44 44 44 45 45 44 46 48 47 47 47 48 49 48 48 49 49 48 48 47 46 46 45 44 44 43 41 39 38 37 36 35 35
33 35 37 39 39 40 39 39 40 41 42 43 45 45 45 44 45 46 46 47 48 49 49 49 49 48 48 48 48 47 47 46 45 44 42 40 40 39 37 37 35 34 34
31 33 35 37 38 38 39 39 39 40 41 43 45 45 44 44 45 46 47 48 50 51 50 49 49 49 49 48 47 47 47 46 44 41 40 39 38 38 37 36 36 34 33
30 32 33 33 36 37 37 38 39 40 41 42 43 44 45 45 46 47 49 50 50 51 50 48 48 49 49 48 48 47 47 46 43 41 40 38 37 36 36 36 35 34 33
28 29 30 31 34 35 36 37 37 39 39 39 41 42 44 45 45 46 48 49 50 50 50 48 48 48 48 47 46 45 43 41 40 39 38 37 36 36 35 36 35 34 33
26 28 29 30 32 34 36 36 37 37 37 37 39 40 42 44 45 46 47 48 48 48 48 48 47 46 46 45 43 42 40 39 38 37 37 36 35 35 34 35 36 35 34
25 26 28 29 31 33 35 36 37 37 36 37 39 40 42 42 43 44 45 46 46 46 46 46 45 43 42 42 39 37 37 37 36 37 37 35 34 33 33 34 35 34 33
25 26 27 29 31 33 35 36 37 37 37 37 39 40 41 41 42 44 44 43 43 43 44 45 44 42 40 38 36 35 34 35 35 35 36 34 33 33 32 33 34 33 32
24 26 28 30 32 34 36 35 36 38 39 39 38 39 40 40 41 41 42 41 41 41 42 42 42 40 37 35 33 33 35 35 35 34 34 33 33 33 34 34 33 31 29
25 27 29 31 33 35 34 35 35 37 39 40 40 39 40 40 40 40 40 39 39 39 40 40 39 37 36 34 33 34 34 35 34 33 33 32 33 34 34 33 31 29 29
25 27 29 31 33 33 32 32 34 36 37 38 40 40 40 40 40 40 40 39 39 38 38 37 35 35 36 34 32 32 32 33 32 31 30 31 32 32 31 31 30 29 28
24 25 27 29 29 29 30 31 33 34 34 35 37 38 39 38 38 38 37 37 36 35 35 34 33 33 33 32 31 31 31 31 31 30 28 28 28 29 29 29 28 28 27
25 25 26 27 27 28 29 31 32 33 34 34 35 36 37 37 38 37 35 35 35 35 34 33 32 31 31 32 31 30 29 28 28 29 27 26 26 27 27 27 27 27 26

GEFSMA_500_meanwind_138.txt.gz
Wind_Speed
36 36 35 35 35 35 35 35 34 33 33 33 33 32 32 32 31 31 31 31 31 32 31 31 32 32 32 32 33 33 33 33 32 32 33 33 33 33 32 32 32 32 31
38 37 37 36 36 36 36 36 35 35 35 34 34 34 34 33 33 33 33 33 33 32 32 32 32 33 33 34 35 35 34 34 35 35 35 35 36 35 35 34 34 34 33
41 40 39 38 37 37 37 37 37 37 36 36 36 36 35 35 35 34 33 33 33 33 33 33 34 35 35 36 36 36 36 37 38 38 38 38 38 38 37 37 37 37 36
43 42 41 41 40 39 39 38 37 38 38 37 37 37 37 37 36 35 35 34 35 35 35 35 36 37 37 37 38 38 39 39 40 40 41 41 41 40 40 40 40 39 38
45 44 43 42 42 41 41 40 39 39 39 39 38 38 38 38 37 37 37 37 37 37 37 38 39 39 39 39 40 40 41 41 42 42 42 43 43 43 43 43 42 41 40
47 46 45 45 44 43 43 42 41 41 40 40 40 39 38 38 38 38 39 39 39 39 39 41 41 41 42 42 42 43 43 44 44 45 45 45 45 45 46 45 44 43 42
48 47 47 45 45 45 44 43 43 42 41 40 40 40 39 40 40 40 40 40 41 41 42 41 42 42 43 43 44 45 46 46 46 47 47 47 47 47 47 47 45 44 43
47 46 45 45 44 44 44 44 43 42 40 40 40 40 40 41 41 41 41 41 42 43 43 42 42 43 44 45 45 46 47 48 49 49 48 49 49 48 47 47 46 44 43
46 45 45 44 44 44 44 44 44 42 41 40 40 41 41 41 41 41 42 42 42 42 43 44 44 45 45 46 46 47 47 48 49 49 49 49 48 47 46 46 45 44 42
44 44 43 43 44 43 44 44 43 42 42 42 42 43 43 43 43 42 42 43 42 42 43 44 45 45 46 46 47 48 49 49 50 50 50 50 48 47 46 45 44 43 42
44 43 43 43 44 44 44 43 43 42 42 43 43 44 44 43 43 43 42 41 41 42 42 43 45 45 45 46 47 49 50 49 49 49 48 48 47 45 45 44 42 40 40
43 43 42 41 42 43 43 43 43 43 43 43 43 43 43 43 43 43 42 42 41 41 42 43 45 45 45 46 47 49 49 48 48 47 46 46 46 45 45 43 41 39 38
41 41 40 39 40 41 41 42 43 43 42 42 42 42 42 42 42 43 43 43 43 43 43 44 45 46 47 47 48 48 49 48 47 46 45 45 45 45 44 42 41 38 38
36 37 37 37 38 38 39 39 39 40 40 41 41 41 42 42 43 43 45 45 45 45 46 46 47 48 49 48 48 49 49 48 47 46 45 45 45 45 44 41 39 38 38
32 33 33 34 34 35 35 36 37 37 38 39 40 40 42 43 43 44 45 46 46 47 47 47 48 49 50 50 49 49 49 49 48 47 46 45 44 43 42 40 39 38 37
27 29 30 31 32 32 32 33 34 35 36 38 39 40 41 42 43 44 45 46 47 47 47 47 48 49 50 50 49 48 49 49 48 47 46 45 43 41 40 39 37 36 35
23 24 25 26 27 28 30 31 32 33 36 38 39 40 42 42 44 45 45 46 46 47 47 46 47 48 48 48 48 48 47 46 46 46 45 44 43 41 39 37 36 35 34
21 22 23 24 26 27 28 29 31 32 34 36 37 39 40 41 43 43 44 45 46 46 46 46 46 46 47 46 46 46 45 43 43 44 43 42 41 40 38 35 35 34 34
20 21 21 22 24 26 27 29 30 32 33 34 35 36 38 40 41 42 43 43 44 45 46 46 46 46 46 44 44 44 44 43 42 42 42 41 40 38 37 36 34 34 33
20 21 22 23 24 26 27 28 29 31 32 34 34 36 37 38 40 41 41 42 43 44 45 45 45 45 44 43 43 42 42 42 41 40 39 38 36 35 35 35 34 34 32
20 21 22 23 25 26 27 29 30 31 32 34 35 37 38 38 39 39 40 41 43 43 43 43 44 44 43 43 43 42 42 41 40 39 37 36 35 34 34 33 32 31 31
21 22 23 24 25 27 28 29 31 32 34 35 36 37 38 39 39 41 41 42 42 42 42 43 43 42 42 41 41 41 40 38 38 37 36 35 33 33 32 31 30 30 29
21 23 24 25 26 27 28 30 32 33 34 35 36 37 38 39 40 40 40 41 41 41 42 42 42 40 39 39 39 38 37 38 36 34 33 32 31 30 30 28 28 27 27
22 23 24 25 26 28 29 30 31 32 33 34 36 37 38 38 39 39 39 39 39 39 40 40 39 39 38 37 37 36 36 35 33 31 29 28 27 26 28 28 26 25 25
22 23 24 26 27 28 29 31 32 33 34 35 37 38 37 36 36 37 37 37 38 38 38 38 38 37 37 37 37 35 34 34 31 29 27 27 26 26 26 27 27 25 24
24 24 25 27 28 29 30 31 33 34 35 35 36 36 35 34 34 35 36 37 38 38 38 39 38 37 37 37 36 35 33 31 30 28 26 25 25 25 25 24 24 24 24

GEFSMA_500_meanwind_144.txt.gz
Wind_Speed
37 36 35 34 33 33 32 31 31 32 31 31 32 31 31 31 31 32 31 31 31 31 31 31 32 31 31 31 32 32 32 33 32 32 33 33 34 33 33 34 34 34 34
39 39 38 37 36 35 34 33 33 33 33 33 33 33 33 33 33 33 33 33 33 33 33 33 33 33 33 33 34 34 34 35 35 35 35 35 36 36 36 36 37 37 36
40 40 40 40 39 37 37 36 35 35 35 34 34 34 35 35 35 35 35 35 35 35 35 35 35 35 35 35 35 36 36 36 37 37 37 38 38 38 38 38 38 38 38
43 43 42 41 41 40 40 39 38 38 37 37 36 36 36 36 36 36 36 37 37 37 36 36 36 36 36 37 37 38 38 39 39 39 40 40 40 40 40 40 40 40 39
45 44 44 44 43 42 42 41 40 39 39 38 38 38 38 37 37 37 37 38 38 37 38 38 38 37 37 38 39 40 40 41 41 42 43 43 43 43 42 41 42 42 42
46 45 46 46 45 44 43 42 42 41 41 40 40 40 39 39 39 38 38 38 38 38 39 39 39 39 39 40 41 42 43 43 43 43 44 44 44 44 43 43 43 43 43
45 44 45 45 44 44 44 44 43 42 41 41 41 41 40 40 40 40 39 39 39 40 39 39 40 40 41 42 42 43 44 44 44 44 44 44 44 44 43 43 44 43 44
44 45 46 45 45 44 44 43 43 42 42 41 41 42 41 41 42 41 41 41 41 41 40 40 41 42 42 42 43 43 44 44 45 44 44 45 45 45 45 45 45 45 45
44 44 45 45 45 45 44 44 43 43 42 42 42 42 42 41 41 41 41 42 43 42 42 42 42 43 43 44 44 44 45 45 45 45 45 45 45 45 45 45 45 45 44
43 43 43 43 43 43 43 43 43 43 43 43 43 43 44 43 43 42 42 42 41 41 42 42 42 43 44 44 43 43 44 45 46 46 46 46 46 46 46 46 46 45 44
42 41 41 41 41 41 42 43 44 44 45 45 44 44 44 43 44 43 42 42 43 42 42 42 42 42 43 43 44 44 44 46 47 47 46 46 46 47 47 47 46 45 45
40 39 39 39 39 39 40 41 42 43 44 44 45 44 44 43 43 42 42 42 42 41 41 41 41 42 41 41 42 43 45 46 47 47 47 48 48 48 48 47 47 46 46
38 38 38 39 38 38 38 39 40 41 42 42 43 43 43 43 42 42 42 41 41 40 41 42 42 42 42 42 44 45 46 46 47 48 48 48 49 49 48 49 48 47 46
36 37 37 37 38 38 38 38 40 39 39 39 39 41 42 42 42 42 41 41 42 42 42 43 44 44 44 45 45 46 47 47 48 49 49 49 48 48 48 49 49 48 46
33 34 34 36 36 37 38 38 38 38 37 36 37 38 39 40 39 40 41 42 42 42 42 43 44 45 46 46 47 47 48 49 49 50 50 49 48 48 48 48 49 49 46
31 31 31 32 33 34 35 36 36 36 36 36 36 37 37 38 39 39 40 41 41 42 43 44 44 45 47 47 48 48 48 49 50 51 51 50 49 47 48 48 47 47 44
28 28 28 29 30 31 32 32 32 34 35 35 34 35 36 37 38 38 39 39 41 43 44 43 45 46 46 47 48 48 49 49 50 51 50 49 48 48 47 47 47 45 43
26 27 27 27 28 28 29 30 31 31 31 32 34 34 35 36 37 38 39 40 42 44 44 43 44 45 46 47 48 48 48 47 49 49 48 48 46 46 46 45 44 42 40
24 25 26 26 26 27 28 28 29 30 31 33 33 34 34 35 37 38 39 41 42 43 44 44 44 45 46 48 47 47 47 48 47 46 46 46 46 44 44 40 39 37 37
22 23 24 25 26 26 27 28 28 30 31 32 33 33 34 35 37 39 41 42 42 43 43 44 44 45 45 46 46 45 45 45 45 45 45 44 44 41 39 37 35 35 34
21 21 23 24 25 25 26 28 29 30 31 31 31 32 33 35 37 39 40 42 42 43 43 44 44 44 44 43 44 44 43 42 43 43 43 42 41 39 36 34 33 32 32
18 19 21 21 22 23 24 25 26 28 28 29 30 31 32 34 35 37 39 40 41 42 42 43 43 44 43 42 42 42 42 42 41 41 41 40 38 36 34 32 33 33 32
17 18 18 17 18 19 21 22 23 25 26 27 28 29 31 32 34 35 36 38 39 40 41 42 43 42 42 41 41 41 41 41 40 38 38 37 36 33 31 31 30 29 29
18 19 19 19 19 20 22 23 24 26 27 28 29 30 32 33 35 36 37 37 37 38 39 39 39 40 41 41 40 39 38 37 37 37 37 36 34 32 30 28 28 27 26
18 19 19 20 21 22 23 25 26 27 29 29 30 31 33 34 35 36 37 37 37 38 38 38 37 37 37 37 37 36 36 36 36 35 34 33 31 30 28 26 26 26 26
19 19 20 21 22 23 25 26 27 28 29 30 31 32 34 35 36 37 37 37 37 37 38 37 38 38 37 37 37 36 36 36 36 34 32 32 30 29 27 26 26 26 26

GEFSMA_500_meanwind_150.txt.gz
Wind_Speed
37 36 36 35 35 34 33 33 33 32 32 31 31 31 31 30 30 30 30 30 30 30 31 31 31 31 32 32 32 32 32 32 32 32 32 32 33 33 34 34 33 33 33
39 38 38 38 37 36 36 35 34 34 33 33 33 33 33 33 32 32 32 32 32 33 33 33 33 33 34 34 34 34 35 34 34 34 34 35 35 35 36 36 36 35 35
40 40 40 39 39 38 38 37 37 36 36 35 35 35 35 34 34 34 34 34 34 35 35 35 35 35 35 35 35 36 36 36 36 36 37 37 37 37 37 38 38 38 37
42 41 41 41 41 41 40 40 40 40 39 38 38 37 37 36 36 36 35 35 36 36 37 37 37 37 37 37 37 37 37 38 38 38 38 38 39 39 40 40 40 39 38
43 43 42 42 42 42 42 42 42 41 41 40 40 40 39 38 37 38 37 38 37 37 38 38 38 38 38 38 39 39 39 39 40 40 40 40 41 41 41 41 41 41 40
44 44 43 43 42 42 42 43 43 42 42 42 42 42 41 40 40 40 40 40 39 39 38 39 39 39 39 40 40 40 40 41 41 41 41 42 42 43 43 43 42 42 42
43 42 42 42 43 43 43 44 44 44 44 44 43 43 41 41 41 41 41 41 41 41 40 40 40 40 40 41 41 41 41 41 41 42 43 43 44 45 44 44 44 44 43
43 43 42 42 42 43 44 44 45 44 44 44 43 43 43 42 42 41 41 41 41 41 41 41 42 42 42 42 42 42 42 42 42 43 42 43 44 44 44 44 44 44 43
44 44 44 43 43 43 43 44 43 44 45 45 44 45 44 43 42 43 42 42 42 43 42 42 43 43 43 44 44 43 42 42 43 43 43 44 44 44 44 44 44 44 44
43 43 44 45 45 44 43 43 43 44 44 44 44 45 45 44 43 42 42 42 41 41 41 42 43 42 43 43 43 43 42 41 42 43 44 44 45 45 45 45 45 45 46
41 41 42 43 44 44 43 43 43 43 44 44 44 44 45 44 43 43 42 41 41 42 43 42 42 42 42 41 42 42 42 43 43 44 44 45 45 45 46 46 46 46 46
39 40 40 41 42 42 42 41 42 42 42 42 43 43 44 44 45 45 44 43 43 43 43 44 43 42 42 42 42 42 43 44 45 46 46 46 46 46 47 46 46 47 47
37 38 38 39 40 41 42 40 40 40 41 41 41 43 44 45 45 44 44 44 44 43 43 44 45 44 45 44 43 44 44 46 47 47 47 47 47 47 47 48 48 49 49
35 36 37 37 38 39 39 39 39 40 40 41 41 42 43 43 43 43 43 43 43 43 44 44 44 44 45 44 45 45 46 47 48 48 48 49 49 50 49 49 49 50 50
33 34 35 36 37 37 37 38 38 39 39 39 40 40 41 41 42 42 43 43 43 43 42 42 42 43 44 44 45 46 47 48 49 49 50 50 50 50 50 51 51 50 50
32 33 33 35 36 36 37 37 37 36 36 36 37 38 39 40 40 41 42 42 42 42 41 41 41 42 43 45 46 46 48 50 50 50 50 51 50 49 49 49 50 49 48
34 34 34 34 34 34 35 36 36 36 36 36 36 36 38 39 39 40 41 40 41 41 41 40 41 42 43 44 45 47 49 49 49 49 50 50 50 49 48 49 49 47 45
33 33 32 32 32 33 34 35 35 35 35 35 35 36 36 36 37 37 38 38 39 38 39 40 41 42 43 45 46 47 48 48 49 49 49 49 49 48 48 47 46 44 42
31 31 31 31 31 31 31 32 33 34 34 34 34 34 35 35 35 36 37 37 37 38 39 40 40 42 43 44 45 47 47 47 48 48 48 48 48 47 46 45 45 42 41
29 29 29 30 30 29 30 30 31 31 32 33 33 33 33 34 35 36 36 36 36 38 39 40 40 41 43 44 44 45 46 46 47 47 47 47 45 45 45 44 42 40 39
27 26 27 28 28 28 28 29 29 30 30 31 31 32 32 33 33 34 35 36 37 38 39 39 40 40 41 42 43 44 45 45 46 46 45 44 43 43 43 42 40 39 38
26 26 26 26 26 26 27 27 28 28 29 29 30 30 30 31 32 33 34 35 36 38 38 39 39 40 40 41 42 43 43 43 44 44 44 42 41 40 40 40 39 37 36
25 25 25 25 26 26 26 26 27 27 28 29 29 29 30 30 32 33 33 34 36 36 38 39 40 40 40 41 42 42 43 43 43 42 42 41 40 39 38 38 37 34 33
23 23 24 24 24 24 25 26 27 28 29 29 29 30 30 30 31 32 33 34 35 36 38 40 41 41 41 41 42 42 42 41 42 41 41 40 39 38 37 35 34 32 30
23 23 23 22 23 24 25 26 27 28 28 28 29 30 30 31 32 33 34 35 35 37 39 39 40 41 41 41 41 41 41 40 40 40 39 39 38 37 35 34 33 32 30
23 23 23 23 24 24 25 26 27 27 28 29 30 30 31 32 32 34 35 36 37 38 39 40 40 40 41 41 41 41 41 40 40 39 38 38 36 35 32 30 31 31 29

GEFSMA_500_meanwind_156.txt.gz
Wind_Speed
36 35 35 35 35 34 34 33 33 32 32 32 31 31 30 31 31 31 30 30 30 30 30 30 30 30 30 30 31 31 32 32 32 32 33 33 32 32 32 32 32 32 32
37 37 37 37 37 36 35 35 35 35 34 34 34 34 33 33 33 32 32 32 32 32 32 32 32 32 32 32 32 33 33 33 33 33 34 34 34 34 34 34 34 34 34
38 38 39 38 38 38 38 37 37 37 37 37 37 36 36 35 35 34 34 34 34 34 34 34 34 34 34 34 34 35 34 34 35 35 34 34 34 35 35 35 36 37 37
40 40 40 40 40 39 39 39 38 39 39 39 38 38 37 37 37 37 36 36 35 35 35 35 35 36 36 36 36 36 36 36 36 36 36 36 36 36 36 37 38 38 38
40 40 40 40 41 41 40 40 40 40 40 40 40 40 39 39 39 40 39 37 36 36 36 36 37 37 37 37 37 37 37 37 37 37 37 37 37 38 38 39 39 39 39
40 40 40 41 41 42 42 42 42 41 42 41 41 41 41 40 40 41 40 39 39 39 38 38 38 38 38 39 39 39 39 39 39 38 39 39 39 40 41 41 41 41 41
41 41 40 41 41 41 42 42 42 42 42 43 44 44 44 43 42 42 42 40 40 41 40 40 40 40 40 40 41 40 40 40 40 40 40 40 41 42 42 42 41 42 42
40 41 41 41 41 41 41 41 41 42 43 43 44 45 45 45 44 43 43 42 41 42 42 42 42 42 41 41 42 41 40 40 40 40 41 41 42 42 42 42 42 43 43
41 41 41 41 41 41 41 41 40 41 41 42 43 45 45 44 44 44 43 43 43 43 44 44 43 43 43 42 41 40 40 41 41 41 42 41 41 41 42 43 43 43 44
40 40 40 40 41 42 42 42 41 41 41 42 43 44 44 44 44 43 43 43 44 44 44 44 44 44 44 42 41 41 41 41 41 42 41 41 41 42 42 43 43 43 44
40 40 40 40 41 41 41 41 41 41 41 42 42 42 42 42 43 44 44 44 45 45 45 45 46 45 44 43 42 42 42 42 42 42 42 41 42 43 43 43 43 44 44
39 39 40 41 40 40 41 41 40 41 41 42 42 42 42 42 42 42 43 44 45 45 46 46 46 46 45 45 44 44 44 43 43 44 43 43 43 43 43 44 44 45 45
39 40 40 40 40 40 40 40 40 40 41 40 41 41 41 41 40 41 41 42 43 43 44 45 45 45 44 44 45 45 45 45 45 44 44 44 44 44 44 45 46 47 47
40 41 41 40 40 40 40 40 40 40 40 40 39 39 39 40 40 41 41 42 42 42 43 44 44 43 43 43 44 44 45 46 46 45 45 45 45 45 46 46 46 48 48
39 40 41 40 40 40 39 39 39 39 39 39 38 38 39 39 39 40 40 41 41 41 42 42 42 42 42 42 43 43 44 44 45 45 45 45 46 47 47 47 48 49 48
37 38 38 38 38 38 38 38 38 38 38 39 39 39 39 38 38 39 39 39 40 40 40 40 40 41 41 41 42 42 43 44 45 45 46 46 47 47 48 49 49 48 47
36 37 37 37 37 37 37 38 38 38 38 38 39 39 39 39 39 39 39 38 39 40 39 38 39 40 40 41 41 42 42 43 44 45 46 47 47 47 48 49 49 47 46
35 36 36 36 36 36 36 37 37 37 37 38 38 38 38 39 39 39 39 39 39 39 39 38 38 38 39 40 40 41 42 43 44 45 46 47 48 48 49 50 49 48 46
34 35 36 36 36 36 36 36 36 36 36 36 37 37 37 37 38 37 37 38 38 38 37 37 37 38 38 39 40 41 42 43 44 45 45 46 48 48 49 49 48 46 45
32 33 34 35 36 36 35 35 35 35 35 35 34 34 34 34 35 36 36 37 37 37 37 37 38 38 37 39 40 41 43 44 45 46 46 46 47 48 48 47 45 44 43
30 31 32 33 34 34 34 34 35 34 34 33 33 33 33 34 35 36 36 36 36 37 37 37 38 38 39 40 40 41 42 44 45 45 46 46 47 46 45 45 44 43 42
29 29 30 31 32 32 33 33 33 33 33 33 34 34 34 35 35 35 36 36 36 36 37 37 37 38 39 40 41 41 43 44 44 44 44 44 44 44 42 41 41 40 39
28 28 29 30 30 31 31 31 31 32 32 32 32 33 33 34 34 35 35 35 35 36 36 37 38 38 39 40 41 42 43 43 43 42 42 41 41 41 40 39 39 39 37
27 28 29 29 30 30 31 31 31 31 31 31 31 32 32 33 33 34 34 34 35 36 36 37 38 38 39 40 40 41 42 42 42 41 41 40 41 40 40 39 38 37 36
26 27 28 29 29 29 30 30 29 29 30 30 31 31 32 33 34 34 34 34 35 36 37 38 38 38 39 40 41 41 41 41 40 39 39 39 39 39 38 38 37 36 36
27 27 28 28 29 29 29 29 29 29 29 29 30 31 32 33 33 33 33 33 34 35 36 37 38 39 39 40 41 41 41 40 39 38 38 38 38 37 37 36 36 35 34

GEFSMA_500_meanwind_162.txt.gz
Wind_Speed
35 36 36 36 36 35 35 35 34 33 33 33 32 32 31 31 31 30 30 29 29 29 29 29 29 30 30 31 31 31 32 32 32 32 31 31 31 32 32 33 33 32 32
35 36 36 36 36 36 36 36 36 36 35 34 34 33 33 33 32 31 32 31 31 31 31 31 31 31 32 32 33 33 33 32 32 32 33 33 32 33 33 34 34 34 34
35 35 35 36 36 36 36 36 36 36 36 36 35 35 35 35 34 34 34 34 33 33 33 33 34 33 33 34 34 34 34 34 34 34 34 34 34 34 34 34 34 35 35
35 35 35 35 36 37 37 37 37 37 37 36 36 36 36 36 36 36 36 36 36 35 36 36 36 36 36 36 36 35 35 35 35 35 35 35 35 35 35 35 35 35 35
36 36 36 36 36 36 38 38 38 38 38 38 37 37 37 37 37 37 37 37 38 38 38 38 38 38 38 37 37 36 36 36 36 36 36 36 36 36 36 36 36 36 36
37 37 38 38 38 37 38 39 39 39 39 39 38 38 38 38 38 38 39 39 39 39 39 39 38 39 39 38 38 37 37 37 38 38 38 38 37 38 38 37 37 37 37
38 38 38 39 39 39 38 38 39 39 39 39 40 39 39 40 40 40 40 40 41 41 41 41 39 39 39 39 39 39 39 39 39 40 40 39 38 39 39 39 38 38 38
38 38 38 38 38 38 38 38 39 39 39 40 40 40 40 40 41 41 41 42 42 42 42 41 40 40 40 40 40 39 40 40 40 40 39 39 39 39 40 40 39 39 40
40 39 39 38 38 38 38 38 38 38 39 39 40 40 40 40 41 41 41 42 42 43 43 42 41 41 41 40 41 41 41 41 41 40 39 39 40 41 41 40 40 40 41
40 39 39 39 38 38 38 38 38 39 39 40 40 41 41 41 41 41 41 41 41 42 42 42 41 41 41 41 41 41 42 41 41 40 40 40 41 42 42 41 41 41 41
40 39 38 37 37 38 38 38 38 39 40 40 40 40 40 41 41 41 40 40 41 41 41 41 40 40 41 41 41 41 41 41 42 42 41 42 43 43 43 42 41 41 41
38 39 39 38 38 38 38 38 39 39 40 40 40 40 41 41 41 40 40 40 40 39 40 40 39 40 40 40 40 41 41 41 41 42 42 43 43 43 42 42 42 42 42
37 37 37 37 38 38 39 38 39 40 39 39 40 40 41 41 41 41 41 40 39 39 39 38 38 39 40 40 41 41 41 41 42 42 42 42 42 42 42 42 42 43 42
37 37 37 37 37 38 39 39 39 39 39 39 40 41 42 41 41 41 41 40 40 40 39 38 38 38 39 40 41 41 41 41 41 42 42 42 42 43 43 43 42 43 43
36 36 37 37 38 38 38 38 39 39 39 40 40 41 41 41 41 41 41 41 41 41 39 38 38 38 39 39 39 39 40 40 41 42 42 42 43 43 42 42 42 43 43
36 36 37 37 38 38 38 38 39 39 40 40 41 41 41 40 40 40 40 40 41 41 40 39 39 39 39 39 39 39 40 41 42 42 42 42 42 41 41 41 42 43 43
35 36 37 37 37 38 38 38 38 38 39 40 40 40 40 40 40 40 41 41 41 41 40 39 39 40 39 39 39 39 40 40 40 40 40 41 41 41 41 42 42 43 44
35 35 36 36 37 37 38 38 39 39 40 40 39 39 39 39 40 40 40 40 40 39 39 39 39 40 40 40 40 40 40 39 39 39 40 40 40 41 42 42 43 44 44
34 34 34 35 36 36 37 38 38 39 39 39 39 39 38 38 38 38 39 39 39 39 39 39 39 39 39 39 39 40 40 39 39 39 40 41 41 42 43 44 44 44 45
34 34 34 34 34 34 35 37 37 38 38 38 38 38 39 39 39 39 39 39 38 38 38 38 38 39 39 39 39 39 39 38 39 40 41 41 41 42 43 44 45 45 45
34 34 34 33 34 34 34 36 37 37 37 38 38 38 38 39 39 38 38 38 38 37 37 38 37 38 38 38 38 38 38 39 40 40 41 41 42 43 44 44 44 43 43
33 33 33 33 33 33 33 34 34 35 36 37 37 37 37 38 37 37 37 37 38 37 37 37 37 37 37 37 38 38 38 39 40 41 42 42 43 43 44 43 43 43 43
33 33 33 33 33 33 33 33 33 34 35 36 36 36 36 36 37 37 37 37 37 37 37 37 37 36 36 37 38 38 38 40 41 42 42 42 42 42 42 42 42 42 42
33 34 34 34 34 34 33 33 33 33 34 34 35 35 36 36 37 37 37 37 38 38 37 37 36 36 37 37 38 38 39 40 41 41 41 40 40 41 41 41 41 41 41
34 34 34 34 34 33 33 33 33 33 33 34 34 35 36 36 36 37 37 37 37 37 37 37 37 37 37 38 39 39 40 40 40 40 40 40 40 40 40 40 40 40 39
34 34 34 34 33 33 34 34 34 34 34 34 35 35 36 36 36 37 37 37 36 36 36 37 37 37 37 37 38 39 40 40 40 39 39 39 39 39 39 38 39 39 39

GEFSMA_500_meanwind_168.txt.gz
Wind_Speed
34 34 34 33 33 33 32 33 33 33 34 35 34 33 33 33 32 32 31 30 30 29 28 27 27 27 28 28 29 30 30 30 31 31 31 31 30 30 30 30 31 31 31
35 35 35 35 34 34 33 33 34 34 34 35 35 34 34 33 33 33 32 32 31 30 29 29 29 29 30 30 31 31 31 31 32 31 31 32 32 32 32 32 32 32 32
35 35 35 35 35 35 34 34 34 35 35 35 35 35 35 34 34 34 33 33 33 33 31 31 32 32 33 32 32 32 32 33 33 33 33 32 32 32 33 33 33 33 34
34 34 34 35 35 36 36 36 36 36 37 37 37 37 36 36 36 35 35 35 35 34 34 34 33 33 33 34 34 34 34 34 35 35 35 35 35 35 35 35 35 35 35
36 35 35 35 36 36 37 37 37 37 37 37 37 37 37 37 36 36 36 36 36 36 36 36 36 36 35 36 36 37 37 36 36 36 36 37 37 36 36 36 36 36 36
36 37 37 37 37 37 37 37 37 37 38 38 38 38 38 38 38 38 37 37 37 38 38 37 37 38 39 39 38 39 39 39 38 38 38 38 38 37 37 37 37 36 36
36 36 36 37 37 37 37 37 37 37 37 38 38 39 39 40 39 39 39 39 39 39 39 39 39 40 40 40 40 40 39 39 39 38 38 38 38 38 38 38 38 37 37
37 37 37 37 37 37 37 37 37 37 38 38 39 39 39 40 39 40 40 41 40 40 39 39 39 39 39 40 39 40 39 39 40 40 40 40 39 39 39 39 39 38 37
37 37 37 37 36 36 36 37 38 39 39 39 39 39 39 39 39 40 40 41 40 40 39 39 40 40 39 39 40 41 40 40 40 40 40 40 40 40 39 40 39 38 37
39 39 38 38 37 37 37 37 38 38 38 38 38 38 38 39 39 39 39 40 40 40 40 40 40 41 41 41 41 41 40 40 41 41 41 41 41 41 41 40 39 38 37
38 38 39 39 38 38 38 38 38 38 38 38 38 37 37 38 39 40 39 39 40 40 41 41 41 41 42 42 41 41 41 42 42 42 41 41 41 41 41 40 40 39 39
36 37 38 38 38 38 38 39 39 39 39 39 38 38 37 37 38 39 39 39 40 40 42 42 42 42 42 42 41 41 42 42 42 42 42 41 41 41 41 40 40 40 40
35 36 36 37 38 38 38 38 39 39 39 39 39 39 39 38 38 38 38 39 39 40 41 41 42 42 42 41 41 41 41 41 41 41 41 41 41 41 41 41 40 40 41
33 34 35 36 37 38 38 38 39 39 39 40 40 40 40 39 39 39 39 39 40 40 40 40 41 41 41 42 41 40 40 40 41 41 41 40 40 40 40 39 39 40 40
34 34 35 35 36 37 38 39 39 39 39 40 40 39 39 40 40 40 40 40 40 40 40 40 40 40 41 41 40 40 41 41 41 41 41 40 41 41 40 39 39 40 40
35 35 36 36 36 36 37 38 39 39 39 39 40 40 40 40 40 41 42 42 41 41 40 39 40 40 40 40 40 40 40 40 40 41 41 41 41 40 40 40 40 40 40
36 37 37 37 37 37 37 38 39 40 40 40 41 41 41 42 42 42 42 42 42 41 40 39 40 40 40 40 39 40 40 40 40 40 40 40 40 40 40 40 39 40 41
38 38 38 38 38 38 38 38 39 39 40 40 41 41 42 43 43 43 43 43 43 42 41 40 39 39 39 39 39 39 39 40 40 39 40 40 40 40 40 40 40 40 41
39 39 38 38 37 37 37 37 38 38 38 39 40 41 41 42 42 43 43 43 43 42 42 41 40 40 40 39 39 39 39 39 39 39 39 40 40 40 40 40 40 41 42
38 37 37 36 36 36 37 37 37 37 37 37 38 39 39 40 40 41 42 42 42 42 41 41 41 41 41 41 40 40 39 40 40 39 40 40 40 39 39 40 41 41 42
37 36 36 36 36 36 36 36 36 37 37 37 37 38 38 39 39 39 40 40 41 41 42 42 42 41 41 41 40 40 40 40 40 40 39 40 40 40 40 40 41 41 42
37 36 36 36 36 36 36 36 37 37 37 37 37 37 37 38 38 38 38 39 39 40 40 41 41 41 41 41 40 40 40 40 40 40 40 40 41 41 41 41 41 42 43
38 38 37 37 37 37 37 37 37 37 37 37 37 37 37 37 37 37 37 38 38 38 39 40 40 40 41 41 41 40 41 40 39 40 40 40 41 41 41 42 42 43 43
38 38 38 38 38 38 38 38 38 38 37 37 37 37 37 37 37 38 38 38 38 39 39 40 39 39 39 40 40 40 40 39 40 40 40 40 40 40 41 41 42 43 44
40 39 39 39 39 39 39 39 39 38 38 38 38 38 38 37 38 38 38 38 39 40 40 40 39 40 40 40 39 39 39 39 40 40 39 39 40 41 41 41 42 43 43
40 40 40 40 41 40 41 41 40 39 39 39 38 38 38 38 39 39 40 40 40 40 41 41 41 42 41 41 41 40 40 40 40 39 39 40 40 41 40 40 41 42 42

GEFSMA_500_meanwind_174.txt.gz
Wind_Speed
32 32 32 32 32 32 31 32 31 31 31 31 31 31 32 32 32 32 32 32 31 31 31 31 31 31 30 30 29 29 28 28 29 29 29 29 29 30 30 30 30 30 31
34 34 34 34 33 33 33 32 32 32 32 31 31 32 32 32 33 33 32 32 33 33 33 32 32 31 32 31 31 31 31 30 30 31 31 31 31 31 31 31 31 31 32
35 35 34 34 35 34 34 33 33 33 33 32 32 32 32 33 33 34 34 34 34 34 34 33 33 32 32 32 32 33 33 33 33 33 34 33 33 33 33 33 33 33 33
34 34 34 34 35 34 34 34 34 34 34 34 33 34 34 34 35 35 35 35 35 35 34 35 35 34 34 34 34 35 35 35 36 36 36 36 36 35 35 35 35 34 34
35 35 34 35 34 35 35 35 35 35 35 35 36 36 35 35 36 36 36 36 35 35 35 35 35 36 37 38 37 37 37 37 37 37 36 37 37 37 36 36 36 36 36
34 34 33 34 34 35 35 35 35 36 36 36 37 37 36 36 36 36 36 36 35 36 36 36 36 37 38 38 38 39 39 39 39 38 37 37 37 37 37 37 37 37 37
32 33 33 34 34 34 35 36 36 36 37 37 37 37 38 37 37 36 37 38 38 38 38 37 37 37 38 39 40 40 40 41 40 39 39 39 38 39 39 39 38 38 38
30 31 32 32 32 33 34 34 35 36 36 37 37 38 38 38 38 38 38 38 38 38 38 38 39 39 39 40 40 40 40 40 40 40 40 40 40 40 40 40 39 39 39
30 31 32 33 33 34 35 36 35 35 36 36 36 36 37 38 37 37 38 38 38 38 38 39 39 40 40 40 41 41 40 40 40 40 40 41 41 42 42 41 41 42 41
31 31 32 34 33 34 35 35 36 36 37 38 38 38 38 38 39 38 37 38 39 39 39 39 40 41 40 41 41 41 40 41 42 41 41 41 42 42 42 43 42 42 41
31 32 33 34 34 34 35 36 37 37 37 38 38 38 39 39 38 37 37 38 39 40 40 41 41 42 41 41 41 41 41 41 41 41 42 42 42 42 43 43 43 42 41
32 33 34 35 35 35 35 35 36 36 37 37 37 38 39 39 39 38 38 38 39 40 41 41 42 43 42 42 42 42 42 42 42 42 42 42 42 42 42 43 43 43 43
35 35 35 36 35 35 35 35 36 36 36 36 36 37 38 38 39 39 40 40 40 40 40 41 42 42 42 42 43 43 43 42 42 42 42 42 42 42 42 42 42 43 42
34 35 36 36 36 36 36 35 35 35 35 36 36 37 37 38 39 40 41 41 41 41 41 41 42 42 42 43 42 43 43 42 42 42 42 42 42 42 41 41 41 41 40
34 34 35 36 37 36 36 35 35 35 36 36 36 37 38 39 40 40 41 41 41 40 40 41 42 42 42 42 42 42 42 42 43 43 42 42 42 42 40 40 40 40 39
36 36 36 36 37 37 37 37 37 37 38 37 37 38 38 39 39 40 40 41 41 41 41 41 41 42 42 42 42 42 43 43 43 43 43 42 42 41 40 40 40 39 39
39 38 38 39 39 39 39 39 39 39 39 39 39 39 39 39 39 40 40 41 42 42 42 42 42 42 42 42 42 42 42 42 42 42 42 41 41 41 41 41 40 39 38
42 42 42 41 41 41 41 40 40 40 40 40 40 39 39 39 39 40 40 40 41 42 42 41 41 41 41 41 41 42 41 41 42 41 41 41 41 41 41 41 40 39 38
43 43 43 43 43 43 43 42 42 42 41 40 40 40 40 39 39 40 40 41 41 42 42 42 41 41 41 41 41 41 41 41 41 41 41 41 41 41 41 40 40 39 38
42 42 43 43 43 43 43 43 43 43 42 41 40 40 40 40 40 40 40 41 41 41 41 42 42 42 42 42 42 41 41 41 40 41 41 41 41 41 41 40 40 39 39
42 43 43 43 43 43 43 43 43 42 42 41 41 40 40 40 40 40 40 40 41 41 42 42 43 43 43 43 43 42 42 42 41 41 41 41 41 41 40 40 40 40 40
44 44 44 44 44 43 43 43 43 42 42 42 42 41 41 40 40 40 40 41 42 42 43 43 42 42 42 42 42 42 42 42 42 41 41 41 41 40 40 40 40 41 41
46 46 46 45 45 45 44 44 44 44 43 43 43 42 42 42 42 42 42 42 42 43 43 43 42 41 42 42 42 42 42 42 42 42 42 41 41 41 41 40 40 40 40
47 47 47 47 47 46 46 45 45 45 44 44 44 44 44 44 44 43 43 43 43 43 43 42 42 42 42 42 43 43 43 43 42 42 42 41 41 41 41 40 40 40 40
48 48 48 48 48 48 47 47 47 46 46 45 45 45 44 44 44 44 43 42 42 42 43 43 42 42 42 43 43 43 44 44 44 43 43 42 41 41 41 40 40 40 41
49 49 49 49 49 49 49 49 48 47 46 45 45 45 45 45 45 44 43 43 42 42 42 42 42 42 43 43 43 44 44 44 44 43 42 42 42 41 40 40 40 40 41

GEFSMA_500_meanwind_180.txt.gz
Wind_Speed
29 29 28 28 28 28 28 28 29 29 30 30 31 31 31 31 31 31 30 31 31 31 30 30 30 30 30 30 30 29 29 29 28 29 29 29 29 29 30 30 30 30 30
30 30 30 29 29 29 29 30 30 30 31 31 31 32 32 33 33 33 32 32 32 32 31 31 31 30 30 30 30 30 30 31 31 31 31 31 31 32 32 32 32 32 32
31 31 30 30 29 29 30 30 30 31 32 32 32 33 33 33 33 33 32 32 32 33 32 32 32 32 31 32 32 32 31 32 32 32 33 33 33 34 34 34 34 34 34
31 31 31 30 29 29 30 30 31 32 32 33 33 33 34 33 33 33 33 33 33 34 34 33 33 32 32 33 33 33 32 33 33 34 34 35 36 36 36 36 36 36 36
32 32 31 31 31 30 31 32 32 32 33 34 34 34 34 34 33 33 34 33 33 34 35 34 34 34 34 33 34 34 34 34 35 36 37 37 36 36 37 37 37 37 37
32 31 31 30 31 31 31 31 32 33 33 34 34 33 34 34 34 33 34 35 35 35 35 36 36 35 35 35 35 36 36 36 36 37 38 38 37 37 37 38 38 38 37
31 30 30 30 31 31 31 31 31 32 32 32 32 33 34 34 34 34 35 35 36 36 36 37 37 37 37 37 37 37 37 37 38 38 38 38 39 39 39 40 40 39 39
32 32 32 31 30 30 31 30 30 30 30 30 31 32 32 33 34 35 35 35 36 37 38 38 38 39 39 39 39 39 39 38 39 39 39 40 40 40 40 41 40 40 40
32 31 32 32 31 31 31 30 29 29 29 29 29 31 32 32 33 33 35 36 37 38 39 40 40 39 39 39 39 39 39 39 40 40 41 41 41 41 41 41 41 41 40
32 32 31 31 30 30 30 30 30 31 30 30 29 30 32 32 33 33 34 35 36 37 39 41 41 41 41 41 41 41 41 41 41 41 41 41 42 41 41 40 40 40 40
32 32 32 32 31 31 30 30 30 30 31 30 30 31 32 33 33 34 33 34 36 37 38 39 40 41 42 42 42 42 42 42 42 42 42 41 42 42 41 41 41 41 41
32 33 33 33 33 33 33 32 31 31 31 31 31 32 32 33 34 34 34 35 35 36 37 38 39 40 40 41 42 42 42 42 41 41 41 41 41 41 41 42 42 41 42
34 34 35 35 34 35 35 35 34 34 33 33 33 33 33 34 35 35 36 36 36 36 37 38 38 39 40 40 41 41 42 42 42 41 41 41 40 41 41 41 41 41 41
35 35 36 37 36 36 36 36 36 36 36 35 35 35 35 36 36 36 37 37 37 37 37 37 38 38 39 39 40 40 41 42 42 41 41 41 41 42 41 40 39 40 40
36 36 37 38 38 38 38 39 39 38 38 37 37 37 37 37 38 38 38 38 38 37 36 37 37 38 38 38 39 40 40 41 42 42 42 42 42 41 41 40 40 40 40
37 39 39 39 39 40 40 40 40 39 39 39 39 39 39 39 39 39 39 39 39 39 38 37 38 38 39 39 40 40 41 42 41 41 41 41 41 41 41 41 41 41 42
39 39 39 39 40 41 41 41 41 42 41 41 41 41 41 40 40 41 41 40 40 40 40 39 39 40 40 40 40 41 41 41 41 41 40 40 40 41 41 40 41 41 41
41 41 40 40 41 41 42 43 43 43 43 43 43 43 43 42 42 41 41 41 41 41 41 41 40 40 41 40 41 41 41 42 42 41 42 41 41 40 40 40 40 40 40
43 42 41 41 42 42 42 44 44 44 44 44 44 44 44 43 42 42 41 41 41 42 42 42 42 42 42 41 41 41 42 42 42 42 42 42 41 40 40 41 40 39 39
43 42 42 41 42 42 43 44 44 44 44 44 44 44 44 43 43 42 42 42 42 42 42 43 43 42 42 42 42 42 42 42 42 42 41 41 40 40 41 40 40 39 38
44 44 43 43 43 43 43 43 44 44 44 44 44 44 44 44 44 44 44 44 44 44 43 43 43 43 42 42 43 43 43 43 42 42 41 41 41 40 40 40 40 39 39
45 45 45 45 45 45 45 45 45 45 45 45 45 45 45 45 45 45 46 46 45 45 44 44 43 43 43 43 43 43 43 43 43 42 42 42 41 41 41 40 40 39 39
47 47 47 47 47 47 47 47 47 47 47 48 47 47 47 47 47 47 47 47 47 46 46 45 44 43 44 44 44 43 43 43 43 42 42 42 42 41 41 40 40 40 40
49 49 49 49 49 49 50 50 50 50 50 49 49 49 49 48 48 49 49 48 48 47 46 46 45 44 44 44 44 44 44 44 43 43 43 43 43 42 41 41 40 40 40
51 51 52 52 52 52 52 52 52 52 51 51 51 51 51 50 50 51 51 50 49 48 47 47 46 46 45 45 44 44 44 44 44 44 44 43 43 42 42 42 41 41 41
53 53 53 54 54 54 54 54 54 54 53 53 52 52 52 52 52 53 53 51 50 49 48 48 47 46 46 46 46 45 44 44 44 44 44 43 43 43 43 42 43 43 42

GEFSMA_500_meanwind_186.txt.gz
Wind_Speed
27 28 28 28 28 28 27 27 27 26 25 26 26 27 27 27 28 28 28 28 28 29 29 29 30 30 30 30 29 29 28 28 29 29 29 29 28 28 28 29 29 30 30
28 28 28 28 28 28 28 28 27 27 26 26 26 27 27 27 28 28 29 29 30 31 31 30 31 31 30 30 30 30 30 30 30 30 30 30 30 30 30 30 31 31 31
30 29 28 29 29 29 29 28 27 27 26 27 27 27 28 28 29 30 30 31 31 31 31 31 31 30 31 31 31 31 31 31 31 31 32 32 31 32 32 32 32 33 33
31 30 29 29 30 30 29 29 28 28 28 28 28 28 29 29 30 31 32 32 32 31 31 31 31 31 31 32 32 32 32 32 32 32 33 33 33 33 34 34 34 35 35
33 33 31 31 31 31 31 30 29 29 29 29 30 30 30 30 31 31 31 32 31 31 31 31 32 32 32 32 32 33 33 33 33 33 34 34 34 34 35 35 35 36 36
33 32 31 31 31 31 31 30 30 31 31 31 31 32 32 32 31 32 32 32 32 31 31 31 32 32 32 32 33 33 33 33 34 34 34 35 36 36 36 36 36 36 37
35 34 33 32 31 30 31 31 30 31 31 32 32 32 33 33 33 33 32 32 32 31 31 31 32 32 32 32 33 34 34 34 35 35 35 36 36 37 37 37 37 37 37
36 36 35 33 33 32 32 32 32 32 32 31 31 31 31 31 32 32 32 32 31 30 31 32 32 32 33 33 34 34 34 35 35 36 37 37 37 37 37 37 37 37 38
36 36 36 36 34 33 32 32 32 31 31 31 31 31 31 30 31 31 31 31 31 31 32 32 32 33 33 34 34 35 35 36 37 37 38 38 37 37 37 38 38 38 38
34 34 35 35 34 33 32 32 32 32 31 31 31 31 31 30 29 29 30 30 31 31 32 33 33 33 34 34 35 36 36 37 38 38 38 38 37 37 38 38 38 39 39
36 35 36 35 35 34 34 34 33 34 33 33 33 33 32 31 30 29 29 30 30 31 32 33 34 35 36 36 36 37 38 38 38 38 38 38 37 38 38 39 39 39 39
37 37 36 36 36 36 36 36 35 35 35 34 34 34 33 32 31 31 31 31 31 31 32 34 35 37 37 38 37 38 39 39 38 37 37 37 38 38 39 39 39 39 40
36 37 38 38 38 37 37 37 36 37 37 37 36 35 34 34 34 34 33 33 33 33 33 34 36 37 38 38 38 39 39 38 38 38 37 38 38 38 38 38 38 39 40
37 39 39 39 39 38 39 40 40 39 38 37 37 37 36 37 36 36 36 36 36 35 35 36 37 37 38 39 39 39 39 39 39 38 38 39 39 39 38 38 39 39 39
39 39 40 40 40 41 41 41 41 40 39 39 39 39 39 39 39 39 39 39 39 38 37 38 38 38 39 39 39 39 39 40 39 39 38 39 40 40 39 40 40 40 40
39 40 41 40 41 41 42 42 41 42 42 42 41 41 41 42 42 41 42 42 41 41 40 40 40 40 41 40 40 40 40 40 40 39 39 39 40 40 40 40 40 41 41
41 42 42 42 42 42 43 43 43 43 43 43 43 43 43 44 43 43 43 43 43 43 43 42 43 43 42 41 41 41 41 40 40 40 40 41 41 41 41 41 42 42 42
42 43 44 44 44 44 44 45 45 44 45 45 45 45 45 45 45 44 44 44 44 44 44 44 44 44 43 43 43 42 42 41 41 41 41 42 42 42 42 42 43 42 41
43 44 45 45 46 46 46 46 46 46 46 47 47 47 47 47 46 46 46 46 46 46 46 45 44 44 45 45 44 43 43 42 42 42 42 42 43 43 43 43 43 42 42
44 45 45 46 47 47 47 47 47 48 47 48 48 48 47 48 47 47 47 46 46 47 47 47 46 45 45 45 45 44 44 44 43 43 42 43 43 43 44 44 43 42 42
45 46 45 46 46 47 47 48 48 49 49 49 49 48 48 48 49 48 48 48 48 48 48 48 47 47 46 46 46 45 45 44 44 44 44 44 44 44 44 44 43 43 42
45 46 45 45 46 47 48 48 48 49 49 50 49 49 50 50 50 50 50 50 51 50 50 50 49 49 48 47 47 47 46 45 44 44 45 44 44 44 44 44 43 43 42
46 46 47 47 47 47 48 49 49 50 50 51 51 52 51 52 52 52 53 53 53 53 53 52 51 50 50 49 49 48 48 48 47 46 46 45 45 44 44 43 43 43 42
47 48 48 49 49 49 49 49 49 50 51 51 52 52 53 53 53 54 54 54 54 54 54 54 53 51 51 51 50 50 50 49 48 48 47 46 46 46 45 44 43 42 42
50 50 51 51 51 51 51 51 51 52 52 52 53 53 53 54 54 54 54 54 53 53 53 53 53 52 52 52 51 51 50 50 49 48 48 47 46 46 45 44 43 42 42
52 52 52 53 53 53 53 53 53 53 53 53 53 53 53 54 54 54 54 54 53 53 53 53 52 52 53 53 52 52 51 50 49 49 48 48 47 46 45 44 43 43 43

GEFSMA_500_meanwind_192.txt.gz
Wind_Speed
28 28 27 27 26 26 27 27 27 27 27 27 27 26 25 26 25 26 26 26 26 26 27 27 27 28 28 27 26 27 27 27 28 28 28 28 28 28 29 29 29 29 29
29 29 29 28 28 27 27 27 27 27 27 27 27 27 26 27 27 27 27 27 28 28 28 28 28 28 28 27 27 28 28 27 28 29 29 29 29 29 30 30 30 30 30
30 29 29 28 28 27 27 28 28 28 28 27 28 28 27 27 27 28 28 28 28 29 30 30 30 30 29 29 28 28 29 28 29 29 29 30 29 30 30 30 30 31 31
30 30 30 29 29 29 29 29 29 29 29 29 28 28 29 28 28 29 29 29 29 30 30 31 31 30 30 30 30 29 29 30 30 30 31 31 30 31 31 31 32 32 32
32 32 31 31 31 30 30 30 30 31 30 30 30 30 30 30 29 29 30 30 30 31 31 31 31 31 31 31 31 31 30 30 31 31 31 30 31 31 32 33 33 33 32
34 34 33 33 33 32 32 31 31 32 32 32 32 32 31 31 30 30 30 30 30 30 31 31 32 32 32 32 32 32 32 31 31 32 32 32 32 33 33 33 33 32 32
35 35 36 35 35 35 34 33 32 33 32 32 33 32 32 32 31 31 31 31 30 30 30 30 31 32 32 33 32 32 32 32 32 33 33 34 34 34 33 33 33 32 32
36 36 37 37 37 36 36 35 34 34 34 34 33 33 34 34 33 32 32 31 30 30 30 30 30 31 32 33 33 32 33 33 33 34 35 35 35 34 34 33 33 33 33
37 37 38 39 38 38 37 37 36 35 35 35 35 35 35 35 34 33 33 32 31 30 30 31 31 31 31 32 33 33 34 34 34 35 35 35 34 35 34 33 33 34 34
39 39 40 38 38 38 38 37 37 36 36 36 36 35 35 35 35 34 33 33 32 32 32 32 31 31 32 32 33 33 34 35 36 35 35 34 34 34 34 34 34 35 34
38 39 40 39 38 38 38 38 37 37 38 37 37 37 37 37 36 35 34 34 34 34 33 33 33 33 33 33 33 34 34 35 36 36 35 34 35 35 34 35 35 36 36
37 38 39 40 41 40 40 40 39 38 39 39 39 38 38 37 37 36 36 36 35 35 34 34 34 34 34 34 34 34 35 35 36 36 35 35 36 36 36 36 36 36 36
39 40 41 41 42 42 41 42 41 40 40 40 40 40 39 39 39 38 37 37 36 36 36 35 35 36 36 37 36 37 37 38 37 37 36 36 36 37 37 37 37 36 36
39 39 40 41 42 43 42 42 42 42 42 42 41 42 41 41 40 39 38 37 37 37 37 37 37 39 39 39 39 39 39 39 38 38 37 37 37 38 38 38 39 39 38
39 41 41 41 41 43 43 42 44 44 44 43 43 43 42 43 42 41 40 40 40 39 39 39 40 41 41 42 42 41 41 41 40 39 39 39 39 39 39 40 40 40 40
40 41 42 43 43 43 44 44 44 45 44 44 44 43 43 43 43 44 44 44 43 43 42 42 42 42 43 43 43 43 42 42 42 41 41 41 41 41 41 41 41 41 41
41 41 42 44 44 44 45 45 45 45 45 45 44 44 44 45 46 46 45 45 45 45 44 44 44 44 44 45 45 44 43 43 43 42 42 42 43 43 42 42 42 42 41
43 42 43 44 45 46 46 46 46 45 46 46 46 45 46 47 47 48 48 47 47 47 47 46 46 47 46 46 46 45 45 44 44 44 44 44 44 44 44 44 44 43 43
43 43 44 44 45 46 47 47 47 47 46 48 49 49 49 49 49 50 50 50 50 50 50 50 49 49 48 48 47 47 46 45 45 45 45 45 45 44 45 44 44 44 43
44 43 43 44 45 46 47 47 48 48 48 49 50 50 50 50 51 51 51 52 52 52 52 51 51 50 50 49 48 48 47 47 46 46 46 46 46 46 46 45 45 45 44
46 45 44 45 46 47 47 48 49 50 49 49 50 50 50 51 52 52 52 52 53 53 52 52 51 50 50 50 50 49 49 48 48 48 47 47 47 48 48 47 46 46 46
46 46 46 46 46 46 48 49 49 50 51 51 52 51 51 51 52 52 52 52 53 52 52 52 51 51 51 51 51 51 51 50 50 50 50 49 49 49 49 48 47 47 46
46 47 47 48 47 47 48 49 50 51 52 53 53 53 54 54 55 54 53 53 53 52 52 52 52 52 52 52 52 52 52 52 52 52 52 51 51 51 51 50 49 48 47
47 47 47 48 48 48 49 50 51 53 54 54 54 54 55 56 56 56 55 55 55 54 55 55 55 54 54 53 53 53 53 53 53 54 54 53 52 52 52 51 50 49 48
48 48 48 49 49 50 50 51 52 54 54 54 55 56 56 56 56 56 56 56 56 56 56 56 56 56 56 55 55 54 53 54 54 54 54 54 54 53 52 51 50 49 48
49 50 49 49 50 51 52 52 53 54 55 56 56 56 56 56 56 56 57 57 57 57 57 57 57 57 56 56 56 56 55 55 55 55 55 55 54 54 52 51 51 50 48

GEFSMA_500_meanwind_198.txt.gz
Wind_Speed
26 26 27 26 25 25 24 23 23 23 23 24 24 24 24 24 25 24 24 24 24 24 24 25 25 25 26 26 25 25 24 24 24 24 25 25 25 26 25 26 26 27 27
28 27 27 27 26 25 25 24 24 24 24 24 25 26 26 26 26 26 25 25 25 26 26 26 26 26 27 27 27 26 26 25 25 26 26 26 26 27 28 28 27 27 27
29 29 29 29 28 27 27 27 26 26 25 25 26 26 26 27 27 27 27 27 27 27 28 28 27 27 28 27 27 27 27 27 27 28 28 27 28 28 28 28 27 26 27
31 30 31 31 30 29 29 28 28 27 27 27 27 27 28 28 28 28 29 29 29 29 29 29 28 28 28 28 28 28 28 28 29 29 29 29 29 29 29 28 27 27 27
32 32 32 32 32 32 31 31 30 30 30 29 29 30 30 30 30 30 30 31 30 30 30 30 30 30 29 29 29 29 29 30 30 30 30 30 30 29 29 28 28 28 28
33 33 33 33 34 34 33 33 32 32 32 32 32 32 32 32 32 32 32 31 31 31 30 30 30 30 30 31 30 30 30 30 31 31 31 31 30 30 29 29 29 29 30
34 34 35 35 35 35 35 34 34 34 34 34 34 34 34 33 34 33 33 32 32 32 31 31 31 32 32 32 31 31 31 31 31 31 31 31 31 31 30 30 29 30 31
35 35 36 36 36 36 36 36 37 37 36 35 35 35 35 35 35 34 34 34 33 33 33 33 33 33 33 33 33 32 33 32 32 32 32 31 31 31 31 31 31 31 31
37 37 37 37 37 37 37 37 38 38 38 37 37 37 36 35 34 34 34 34 34 33 34 34 34 34 34 34 33 33 33 32 33 33 33 32 32 32 32 32 32 32 32
38 39 39 38 38 39 38 39 39 39 39 39 38 37 36 35 34 34 34 34 34 34 34 35 35 35 35 34 34 33 33 33 34 34 34 33 33 34 34 34 34 33 33
38 39 39 39 39 39 39 39 39 39 38 38 38 37 37 36 36 36 36 36 36 36 36 36 36 37 36 35 35 34 34 35 36 35 36 36 36 36 36 35 35 35 35
38 40 40 40 40 40 40 41 40 40 40 39 39 39 39 38 37 37 37 38 37 38 38 37 37 37 36 36 36 36 36 36 37 37 37 37 37 37 37 37 36 37 37
39 39 39 39 40 40 39 40 41 41 41 41 41 41 41 40 40 40 40 40 40 40 40 40 39 38 38 38 38 38 37 37 37 38 38 38 39 38 38 38 38 38 38
38 39 40 40 41 41 41 41 43 43 42 42 43 42 42 43 42 42 42 42 42 41 41 41 40 39 40 40 40 40 39 39 40 40 39 40 40 40 39 40 39 39 39
38 40 41 40 41 42 42 42 43 44 43 43 45 45 44 44 44 44 44 44 43 42 41 41 42 42 42 42 42 42 42 42 42 42 42 41 42 42 41 41 40 40 40
39 40 41 41 42 42 43 43 44 44 44 44 44 45 45 45 45 45 45 45 44 44 43 43 44 44 44 44 44 44 44 44 44 44 44 44 44 43 43 42 42 42 42
40 41 41 42 43 44 44 44 45 46 46 46 46 46 46 46 46 46 47 46 46 46 45 45 45 46 46 46 47 47 47 47 47 46 46 46 46 45 45 44 44 44 44
42 43 43 44 45 45 45 46 46 47 47 47 48 48 47 48 48 49 48 48 47 47 47 47 47 48 48 49 48 48 49 49 48 48 48 48 48 48 47 47 46 46 46
43 44 45 45 46 47 46 46 46 47 47 47 48 48 48 49 48 49 49 49 49 49 49 49 49 50 50 51 50 50 50 50 49 49 49 50 50 50 50 49 48 48 48
44 45 45 46 46 47 47 48 48 48 48 48 49 49 50 51 50 50 50 51 51 51 51 51 51 52 51 51 51 51 50 51 51 50 51 51 51 51 50 50 49 49 48
46 46 46 46 47 48 49 49 49 50 50 50 50 51 52 53 53 53 53 53 52 52 53 52 52 52 52 52 52 52 51 51 51 52 52 52 51 51 51 50 49 49 49
48 49 49 48 48 49 49 50 50 50 50 50 51 52 53 54 55 54 54 54 54 53 53 54 53 53 53 53 53 53 53 53 53 53 53 52 52 52 51 50 50 50 50
49 50 50 50 50 50 50 50 50 50 50 51 51 51 52 53 54 55 55 55 55 55 54 54 54 54 55 54 55 55 55 55 55 55 54 52 52 52 52 51 51 51 51
51 51 51 51 51 52 52 52 52 52 52 52 52 52 53 54 54 55 55 55 56 56 56 56 56 55 56 56 57 57 57 56 56 56 55 53 52 52 52 52 52 52 52
52 52 52 52 53 53 53 53 53 53 53 53 53 53 54 54 55 56 56 56 57 57 57 58 57 57 57 57 58 58 57 57 56 55 55 54 53 53 52 52 53 53 53
53 53 52 52 53 53 53 54 54 54 54 54 54 54 54 55 56 56 57 57 57 57 57 58 58 59 58 58 58 58 57 56 55 54 53 53 52 52 51 51 52 52 52

GEFSMA_500_meanwind_204.txt.gz
Wind_Speed
28 27 26 25 25 24 23 23 22 22 22 22 22 22 22 22 22 21 21 21 22 22 21 21 21 21 21 21 21 21 21 22 22 22 22 22 22 22 23 22 22 22 23
30 28 27 27 27 26 25 24 24 23 24 23 23 23 23 23 23 23 23 22 23 23 23 23 23 22 22 22 22 22 22 22 23 23 23 23 23 23 23 24 24 24 25
31 30 29 28 28 28 28 27 26 25 25 24 25 25 25 25 25 25 24 24 24 24 24 25 25 24 25 24 24 23 24 24 24 24 25 25 25 25 24 25 25 25 26
33 32 30 29 30 30 29 29 28 28 27 27 27 28 27 27 26 26 26 26 26 25 26 26 26 26 26 26 25 25 26 26 26 26 26 26 26 26 26 26 26 27 27
33 33 32 32 32 32 32 31 31 31 30 29 29 29 29 29 28 28 28 27 27 27 27 27 28 28 28 28 27 27 27 27 27 27 27 27 27 27 27 27 27 28 27
35 35 35 34 34 33 33 33 33 33 32 32 32 31 31 31 31 30 29 29 29 29 29 29 29 29 29 29 29 29 29 29 29 29 29 29 29 29 29 29 29 29 28
36 36 37 35 35 35 34 34 35 34 34 34 33 32 33 32 32 31 31 31 30 30 30 30 30 30 30 30 30 30 30 31 31 30 30 30 30 30 29 29 30 30 30
36 36 37 37 37 36 36 34 35 35 35 34 34 34 34 34 34 33 33 32 32 32 31 31 30 31 31 31 31 31 31 31 31 31 31 31 31 30 30 30 30 31 31
38 37 36 38 38 38 37 36 36 36 36 36 35 35 34 35 34 34 34 34 34 33 33 33 32 32 32 32 32 32 33 33 32 32 32 32 32 32 32 32 32 32 32
38 38 38 39 39 39 39 38 36 36 37 37 37 37 36 36 36 35 35 35 35 35 34 34 33 33 33 33 34 34 34 34 34 33 33 33 33 33 33 34 34 34 34
38 39 38 39 40 40 40 40 38 37 37 37 38 38 38 37 37 37 37 37 37 36 36 36 35 35 35 35 35 35 35 35 35 35 35 35 34 35 35 35 36 36 36
39 40 39 39 40 41 41 41 41 40 40 40 40 40 39 39 39 39 39 38 38 37 38 38 37 36 36 37 37 37 37 37 37 37 36 36 37 37 37 37 38 38 38
38 39 40 39 40 41 42 43 43 42 42 42 42 42 41 41 39 39 40 40 40 39 39 39 39 39 39 38 39 38 38 38 38 38 38 39 39 39 39 39 39 39 40
39 40 41 41 41 42 42 42 44 45 44 43 42 43 43 42 41 40 41 41 42 42 42 42 42 41 40 40 40 40 40 40 39 39 40 41 41 41 41 42 42 42 42
41 41 42 42 43 44 44 44 43 44 45 45 45 44 44 44 43 43 43 44 43 43 43 43 42 42 42 42 42 42 42 42 42 42 42 42 42 43 43 43 43 44 44
41 42 42 43 43 44 44 44 44 44 44 44 45 45 46 46 46 46 45 45 45 45 45 45 44 44 44 44 45 45 45 45 44 44 45 44 44 44 44 45 45 45 46
42 43 43 43 43 44 44 44 44 45 44 45 45 46 47 47 46 46 46 46 47 47 47 48 47 47 46 46 47 47 47 47 46 46 47 47 46 46 46 46 47 48 48
42 43 43 43 44 45 45 46 46 46 46 46 47 47 47 48 48 48 48 49 49 50 50 50 49 49 49 49 49 49 49 49 49 49 48 48 48 48 48 49 49 49 49
45 45 45 45 45 45 45 46 47 48 48 48 47 47 48 50 50 50 50 51 51 51 51 52 52 52 51 51 51 51 51 52 51 51 50 50 50 50 51 51 51 51 51
46 46 46 47 47 47 47 48 48 49 49 49 49 49 50 51 52 52 53 53 52 52 52 54 54 54 54 53 54 53 53 53 52 52 52 52 52 52 52 52 52 52 51
46 47 47 47 48 48 49 49 49 50 50 51 51 51 51 52 53 54 54 53 53 53 54 55 55 56 56 56 55 54 54 54 54 54 54 54 54 54 54 53 53 52 52
47 48 48 49 49 49 49 50 50 51 52 52 52 52 52 53 54 55 55 55 54 54 55 55 55 55 55 56 56 55 55 55 55 55 55 55 55 54 54 53 53 53 53
48 49 50 51 51 51 51 51 51 52 52 52 53 53 53 54 55 56 56 56 56 55 55 56 56 56 57 56 57 57 56 56 55 55 56 55 54 54 54 54 54 54 54
50 50 51 52 52 52 52 52 51 52 53 53 54 55 55 55 55 56 57 57 57 56 56 57 57 57 57 57 57 57 56 56 56 56 56 56 55 55 55 55 54 54 54
51 51 52 52 53 53 53 53 53 53 53 54 54 55 55 55 55 56 57 57 57 56 56 56 56 57 57 57 57 57 57 57 56 56 57 57 56 56 55 54 53 53 53
52 51 52 53 53 53 53 53 52 53 53 53 54 54 54 55 55 56 56 57 57 56 56 56 56 56 57 57 57 57 58 57 57 56 56 55 55 55 54 53 53 52 52

GEFSMA_500_meanwind_210.txt.gz
Wind_Speed
30 29 29 27 26 25 24 23 22 22 21 20 20 20 20 20 20 20 20 19 18 18 18 18 18 18 18 18 18 19 19 19 19 19 19 20 20 20 20 20 21 21 21
31 30 30 29 28 26 25 24 24 23 22 22 22 22 21 21 21 21 21 20 20 19 19 19 20 20 20 20 20 20 20 20 20 20 21 21 21 21 22 22 22 22 22
33 32 31 31 30 29 28 27 25 25 24 24 23 23 23 23 23 22 22 22 22 22 21 22 22 22 22 22 22 21 21 21 21 22 22 22 23 23 23 23 23 23 23
35 34 33 32 32 31 30 29 28 27 26 26 26 26 26 26 25 24 24 24 24 24 24 24 24 24 24 24 23 23 23 23 24 24 24 24 24 24 25 24 24 24 24
36 35 35 34 34 34 32 31 30 29 28 28 28 28 28 28 27 26 26 25 25 26 26 25 25 25 26 26 26 26 26 26 26 26 26 26 26 26 26 26 25 24 24
38 37 37 36 36 36 35 34 33 32 31 30 30 30 30 29 29 28 28 27 27 27 27 27 27 26 27 27 28 28 28 28 28 28 28 28 27 27 27 27 26 26 26
39 40 39 38 38 37 37 36 35 34 33 32 32 31 32 31 31 30 30 30 29 29 29 29 28 28 28 28 29 30 30 30 30 30 30 29 29 28 29 28 28 28 28
40 40 39 39 39 39 38 37 36 35 35 34 33 33 33 33 33 33 32 32 31 31 30 30 30 30 30 30 30 32 32 32 31 31 31 30 30 30 30 30 29 30 29
40 41 41 40 40 39 39 38 37 37 37 36 36 36 35 34 34 35 34 34 34 33 33 32 31 32 32 31 32 33 33 33 33 32 31 31 31 30 31 31 31 31 31
41 41 41 40 40 41 40 40 40 39 38 38 38 37 37 35 35 35 35 35 35 35 34 34 34 34 34 33 34 34 33 33 33 33 33 33 33 32 32 32 32 32 32
40 40 41 40 40 40 41 41 41 41 41 40 39 38 38 36 36 35 36 36 36 37 37 36 36 36 36 36 35 35 35 35 35 35 35 35 35 35 35 34 34 34 34
39 39 40 41 42 42 42 42 42 41 42 41 40 40 39 38 37 37 37 37 37 38 38 38 38 38 38 37 37 36 37 37 37 37 37 36 36 36 37 37 37 37 37
39 38 39 40 42 43 43 42 42 41 42 42 42 42 42 41 40 40 39 39 39 40 40 39 39 39 39 38 39 39 39 38 38 39 38 37 38 39 39 39 39 39 39
40 39 40 41 41 42 43 42 42 41 42 42 43 43 43 44 44 43 42 42 42 41 41 41 41 41 41 41 41 41 41 40 41 40 40 40 40 41 41 42 42 42 42
40 40 40 41 41 41 42 42 42 42 43 42 43 44 44 44 45 45 45 45 45 43 43 43 42 43 43 43 43 43 43 42 42 42 42 42 43 43 43 44 44 44 44
40 40 41 42 41 42 42 43 42 42 43 43 44 44 44 44 45 47 47 48 48 46 45 44 44 44 44 45 44 44 44 45 44 44 45 45 45 45 46 46 46 46 46
41 41 42 43 43 43 43 43 43 44 44 44 45 45 46 47 47 48 48 49 49 48 47 47 47 46 47 46 46 46 47 47 47 47 47 48 48 48 49 48 48 49 49
42 42 43 44 44 45 45 45 45 46 47 46 46 46 47 48 48 48 49 49 49 49 50 50 50 50 49 49 49 49 49 49 50 50 50 51 51 51 51 51 51 51 51
44 44 44 45 45 45 45 46 47 47 48 48 48 48 49 49 49 50 50 50 50 50 52 53 53 53 52 51 51 51 52 52 52 52 53 53 53 54 53 52 53 53 52
46 46 46 45 45 46 47 47 47 48 49 49 50 50 51 51 51 51 51 51 51 52 53 53 54 54 54 53 52 53 54 55 54 54 55 55 55 54 54 53 53 53 53
45 45 45 45 46 47 48 49 48 49 49 50 51 51 52 52 52 51 52 53 53 54 54 54 54 55 55 55 55 55 56 56 56 55 56 56 55 54 54 54 54 54 54
45 45 45 46 46 47 48 49 50 50 51 51 52 52 52 52 52 52 53 53 54 53 53 54 55 55 55 56 56 56 56 56 56 56 56 55 54 54 55 55 55 55 55
47 47 46 47 48 48 48 49 50 51 50 51 51 52 53 53 54 54 53 53 53 53 53 53 54 55 55 56 57 56 56 55 55 55 56 55 55 55 55 55 55 55 55
48 48 48 48 49 49 49 49 50 50 50 51 51 51 52 52 52 52 53 53 53 54 54 54 54 55 55 55 55 55 55 55 55 54 55 55 55 55 55 55 56 56 56
49 49 50 50 50 50 50 50 51 51 51 51 51 52 52 51 51 52 54 54 54 54 54 54 55 55 55 55 55 55 54 54 54 54 54 55 55 54 54 54 55 55 55
50 50 51 51 51 51 51 51 52 52 52 51 51 51 51 51 52 53 54 54 54 54 54 54 53 53 54 54 54 54 54 54 54 54 53 54 54 54 53 52 53 53 53

GEFSMA_500_meanwind_216.txt.gz
Wind_Speed
31 30 29 29 28 27 26 25 24 23 22 21 21 20 20 20 20 20 20 20 20 20 20 19 19 18 18 17 17 17 17 17 17 17 17 18 18 18 18 18 18 18 18
31 31 30 31 30 29 28 27 26 26 24 23 22 22 21 21 21 21 21 21 21 21 21 21 21 20 20 20 19 19 19 19 19 19 19 19 20 20 20 20 20 20 20
33 32 32 32 32 32 31 30 29 28 27 26 25 24 24 23 22 22 22 22 22 21 22 22 22 22 22 22 21 21 21 21 21 21 22 22 21 21 22 22 22 22 22
36 34 33 34 33 33 33 32 31 30 29 29 27 27 26 25 25 25 24 24 24 24 23 23 23 24 23 23 22 22 23 23 23 23 23 23 24 24 24 24 24 24 24
37 36 35 35 35 34 34 34 33 32 31 31 30 29 29 28 27 27 27 27 27 26 26 25 25 25 25 24 24 25 25 26 26 26 25 26 26 26 26 25 25 25 26
39 38 36 36 37 36 35 35 35 34 33 33 32 32 31 30 29 30 30 30 29 28 28 27 27 27 27 27 27 27 27 28 28 28 28 28 28 28 27 27 27 27 27
41 41 40 39 39 38 38 37 36 36 35 35 34 33 33 32 32 31 31 31 31 30 30 30 30 30 30 30 29 29 29 29 30 30 29 30 29 29 29 29 28 28 28
42 42 41 40 40 40 39 39 39 38 38 37 36 35 35 35 34 33 33 33 33 33 32 32 32 31 31 32 32 31 31 31 31 31 32 32 32 31 31 30 30 30 30
43 42 42 42 42 41 40 40 41 41 40 39 39 38 37 37 36 35 33 34 35 35 35 35 35 34 33 34 34 33 33 33 33 33 34 33 33 33 33 32 32 32 32
43 42 42 43 42 42 42 42 42 41 42 41 40 39 38 38 37 36 36 35 35 36 36 36 36 36 35 35 35 35 35 35 35 35 35 35 35 35 35 34 34 34 34
43 43 43 42 43 43 43 43 43 42 42 42 40 40 39 39 38 37 37 37 37 38 38 37 37 37 37 37 37 37 37 37 37 37 37 36 36 36 36 36 37 37 37
44 42 43 43 43 44 44 44 43 43 42 42 42 42 41 40 40 39 38 38 37 38 38 38 37 38 38 38 38 38 38 38 39 39 38 38 38 38 38 39 39 39 39
44 43 43 42 42 44 45 45 45 44 43 43 43 42 41 41 41 41 40 40 39 39 38 39 39 39 39 39 40 40 40 40 40 40 40 41 41 40 41 41 41 42 42
43 43 43 42 41 43 44 45 45 45 44 44 44 43 42 42 42 43 43 42 42 42 42 42 42 42 41 41 41 41 42 42 42 42 42 43 43 43 44 44 44 44 44
43 44 45 44 43 43 44 45 45 45 45 44 43 43 43 43 43 43 44 44 44 44 43 43 43 44 44 44 44 43 43 43 44 44 44 45 46 46 46 47 46 46 46
43 43 45 45 43 42 42 43 45 45 45 45 44 44 44 44 44 44 44 45 46 46 44 44 44 45 46 46 46 46 45 46 46 46 47 47 48 49 49 49 49 49 49
42 42 44 44 43 43 43 44 45 45 45 45 44 44 44 44 45 45 45 46 47 47 47 46 47 47 48 48 47 48 48 49 49 49 50 50 50 50 50 51 51 51 51
43 43 44 44 43 42 43 44 45 46 46 45 44 44 45 46 46 46 46 47 48 49 49 48 49 50 50 50 50 51 51 51 52 52 53 53 52 52 52 53 53 53 53
44 45 45 45 44 44 44 45 45 46 46 46 46 45 45 46 47 47 47 48 49 49 50 51 51 51 52 52 52 52 52 53 54 55 56 57 56 55 54 54 55 56 56
45 46 46 46 46 46 46 46 47 47 47 47 47 47 46 47 48 49 49 49 49 50 51 52 52 52 53 53 54 54 55 55 56 57 57 58 58 57 56 57 57 57 57
45 46 48 48 47 47 47 47 47 47 47 48 48 48 49 49 49 50 50 50 51 52 52 53 54 55 55 55 55 56 57 56 56 58 58 57 57 56 56 57 58 58 58
46 46 47 47 47 47 48 48 48 48 48 48 49 49 50 50 51 51 52 53 53 54 55 56 56 56 56 56 56 56 57 57 56 56 56 56 57 57 57 57 58 58 58
46 45 45 46 46 46 47 47 48 49 49 49 50 51 51 52 53 54 55 55 55 56 57 57 57 57 56 57 57 57 56 56 56 56 56 56 57 56 55 56 56 57 57
44 45 45 45 46 46 47 47 47 48 49 49 50 51 52 53 55 55 56 56 56 56 57 57 57 57 57 57 57 57 56 56 55 55 56 55 55 55 54 54 55 56 56
45 45 46 46 46 47 47 48 48 49 49 50 51 52 53 53 54 55 56 56 56 56 56 57 56 56 56 56 57 56 56 56 55 55 56 56 55 54 53 53 54 55 55
45 46 46 47 47 47 47 48 49 49 50 51 52 53 54 54 55 55 55 55 56 56 56 56 55 56 56 56 56 56 56 56 55 55 55 56 55 54 53 52 53 54 54

GEFSMA_500_meanwind_222.txt.gz
Wind_Speed
29 29 28 27 27 26 25 25 24 24 23 22 22 21 21 20 20 20 19 19 19 19 19 19 18 18 18 18 18 18 18 18 18 18 18 18 18 18 18 18 18 18 18
32 31 30 30 29 28 27 26 25 25 24 23 22 22 21 21 21 21 20 20 20 20 20 20 20 20 20 20 19 20 20 20 20 20 20 21 21 20 20 20 21 20 20
34 33 32 32 31 30 29 28 27 27 26 25 25 24 23 23 22 22 21 21 22 21 21 21 21 21 21 22 21 21 22 22 22 22 21 22 23 23 23 23 23 23 22
35 34 34 34 33 33 31 30 30 29 28 28 27 26 25 25 25 24 23 23 23 23 23 22 22 23 23 23 23 23 24 24 24 24 23 23 24 24 24 25 25 24 24
37 36 35 35 35 34 33 33 32 31 30 30 29 28 28 27 27 26 26 26 26 25 25 25 24 25 25 25 25 25 25 25 25 25 26 26 25 25 26 26 26 26 25
39 38 37 38 37 36 35 35 34 33 32 32 32 31 30 29 29 28 28 28 28 27 27 27 27 27 27 27 27 27 27 28 28 27 27 27 27 27 27 28 28 28 28
41 40 39 39 39 38 36 37 36 35 34 33 33 33 32 32 31 30 30 29 29 30 30 29 29 29 29 29 29 29 29 29 30 30 29 29 29 29 30 30 30 30 30
43 43 42 41 40 40 38 37 38 37 36 36 36 35 34 33 32 31 32 31 31 31 31 31 31 31 31 32 32 32 31 31 31 31 32 32 32 32 31 32 31 31 31
43 44 43 43 43 42 41 40 40 39 38 38 38 37 36 36 33 33 33 33 33 33 33 33 33 33 33 33 34 33 33 33 33 33 34 34 34 34 34 33 33 32 33
43 43 44 44 44 43 42 42 42 42 41 41 40 40 39 38 36 35 35 35 34 34 34 35 35 35 35 35 35 35 35 35 35 35 35 35 35 35 35 35 35 35 35
44 44 45 45 45 44 43 43 43 43 42 42 42 41 40 40 38 36 36 36 36 36 36 36 37 37 38 38 38 38 37 36 36 37 37 36 36 36 36 37 37 37 37
44 44 45 46 45 45 44 43 43 43 42 41 41 42 41 41 40 39 38 38 38 38 38 38 38 39 39 40 40 39 38 38 38 38 38 38 38 38 39 39 40 40 40
44 45 45 46 46 46 45 44 43 43 43 42 42 42 43 43 42 40 40 40 39 39 39 39 39 39 40 40 40 40 40 39 39 40 40 40 40 40 40 40 41 41 42
44 45 45 45 46 46 46 45 44 44 44 44 44 43 43 44 43 41 40 40 40 41 40 40 41 40 40 40 41 41 41 40 40 41 41 42 42 43 43 43 43 45 45
44 44 45 45 46 47 47 46 45 45 45 45 45 45 45 45 44 43 42 41 41 42 41 41 42 43 43 43 42 42 42 42 42 43 44 44 44 44 45 45 45 46 47
45 44 45 47 48 48 48 47 46 46 46 45 45 45 45 46 45 44 44 43 43 42 43 43 43 43 43 43 43 43 44 44 45 45 46 46 46 46 46 46 47 48 49
45 45 45 46 47 48 48 48 47 46 47 47 46 46 46 45 46 47 45 44 44 44 44 44 44 44 44 44 44 45 45 46 46 47 47 48 48 49 49 49 50 50 51
46 46 46 45 46 47 48 48 48 47 47 47 47 48 49 48 48 48 48 47 46 46 45 45 45 46 46 46 46 46 47 47 48 49 50 50 51 51 52 53 53 54 54
46 47 47 47 46 46 48 49 49 48 48 48 48 49 50 50 49 49 50 50 48 47 47 47 47 47 48 48 49 49 49 50 50 51 52 52 52 53 54 55 56 56 57
47 48 49 48 48 47 48 48 50 49 49 49 50 50 50 51 49 49 49 50 49 49 48 48 48 48 48 49 50 51 51 52 52 53 54 55 55 55 55 56 57 57 58
48 49 50 50 49 49 49 50 51 51 51 50 50 50 50 51 50 50 49 50 50 50 50 49 49 50 51 51 51 52 53 53 54 55 55 56 56 56 56 57 57 57 57
48 49 50 51 51 51 53 53 53 52 52 52 51 51 50 50 50 50 50 50 50 50 51 51 51 51 52 53 53 54 54 55 55 55 55 55 56 56 56 57 57 57 57
46 47 49 51 52 52 53 54 53 53 54 52 51 51 50 50 50 49 50 50 51 52 52 52 52 53 54 54 55 56 56 57 56 56 56 55 55 55 56 56 56 57 56
45 46 46 48 49 50 51 52 52 52 52 51 51 51 50 50 50 51 51 52 52 52 53 54 55 55 56 57 57 57 58 57 57 56 56 56 56 55 54 55 56 56 56
44 45 46 46 47 48 49 49 50 50 51 50 50 50 50 51 51 52 52 52 53 54 55 56 57 57 58 58 58 58 57 58 57 56 57 57 57 56 55 56 56 57 57
42 43 43 44 45 46 47 47 48 49 50 49 49 49 50 51 51 52 53 54 54 55 56 56 57 58 57 57 57 57 58 58 58 57 57 58 57 57 56 55 56 57 57

GEFSMA_500_meanwind_228.txt.gz
Wind_Speed
29 27 27 27 27 27 26 26 25 24 23 22 21 20 20 20 20 20 20 19 19 19 19 18 18 18 18 17 17 17 17 17 17 17 17 17 17 17 17 18 18 18 18
31 30 30 30 29 29 29 28 27 26 25 24 23 23 22 22 21 22 22 21 21 21 20 20 19 19 19 19 19 19 19 19 19 19 19 20 19 19 19 19 20 20 20
33 32 32 32 32 31 31 30 29 28 28 27 26 25 24 24 23 23 23 23 23 22 22 22 21 21 21 21 21 21 21 21 21 21 21 21 21 21 21 21 22 22 21
35 34 33 33 34 34 33 33 32 30 30 29 28 27 27 27 26 25 25 25 25 25 24 24 24 23 23 23 23 23 23 23 23 23 23 23 23 23 23 23 23 23 23
36 36 35 35 35 35 35 34 34 33 32 31 31 30 29 29 29 28 28 28 27 27 27 26 26 26 26 25 25 25 25 25 24 25 25 25 25 25 25 25 25 24 24
37 38 37 37 37 37 36 36 35 35 35 34 34 33 32 31 31 31 30 30 29 29 29 28 28 28 28 28 27 27 27 27 26 26 26 27 27 27 27 26 27 27 26
39 39 39 39 39 38 38 38 37 37 37 37 36 35 35 34 33 32 32 31 30 30 30 30 30 30 30 29 29 29 29 29 29 28 28 28 29 29 28 28 28 28 29
40 40 40 41 41 40 40 40 39 38 38 38 38 38 37 36 35 34 34 34 33 32 32 31 32 32 31 31 30 30 31 31 31 31 30 30 30 30 30 30 30 30 31
41 41 40 41 42 42 42 42 42 40 40 40 39 39 38 38 37 36 35 36 36 35 34 34 34 34 33 33 33 33 33 32 32 33 32 31 31 31 32 32 32 33 33
41 41 41 42 42 43 43 44 43 42 41 41 40 40 40 39 39 38 37 37 38 38 37 36 35 35 35 35 34 34 34 34 34 34 34 34 33 34 34 34 34 35 35
43 43 43 42 43 43 43 44 43 43 42 42 42 41 41 41 41 40 39 38 39 39 38 37 37 36 36 36 36 36 36 36 36 36 36 36 36 36 36 36 36 36 36
43 44 44 44 43 43 44 44 45 44 43 43 43 42 42 41 41 42 41 40 40 40 39 39 38 38 38 38 37 38 38 38 37 37 38 38 38 38 39 39 39 39 39
43 44 45 45 45 44 45 45 45 45 44 43 42 42 42 42 42 42 42 41 40 41 40 40 40 40 40 39 39 39 39 38 39 39 39 40 40 41 41 41 41 41 41
43 44 45 45 45 46 46 46 46 46 45 45 44 44 43 43 43 43 43 43 42 42 41 40 41 41 41 41 40 41 41 40 40 40 40 41 41 42 42 43 43 43 44
43 43 44 45 46 46 46 46 47 47 47 46 46 45 45 44 44 44 44 44 44 44 42 41 42 42 43 43 42 43 42 42 41 42 42 42 43 44 44 44 45 45 46
43 43 44 45 46 47 47 48 48 48 48 47 47 46 46 46 45 45 45 45 45 44 44 43 43 43 44 45 44 45 45 44 44 44 44 45 45 45 45 46 46 47 48
44 44 44 45 46 46 47 48 48 48 49 49 49 48 47 47 47 47 47 46 45 45 45 45 45 45 46 46 46 45 46 46 46 46 46 47 47 46 46 47 48 49 49
45 45 46 46 46 46 46 47 48 48 49 49 49 48 48 48 48 49 48 48 48 48 48 47 47 47 47 47 47 46 46 47 46 47 47 47 48 48 47 48 49 51 52
45 45 46 46 46 46 46 47 47 47 48 49 49 49 49 49 49 49 49 49 49 49 49 49 49 49 49 49 48 49 49 48 48 48 49 49 49 49 49 50 51 52 53
47 47 47 47 47 47 47 47 47 47 48 48 48 49 49 50 50 50 50 50 50 49 49 49 49 49 49 50 50 51 51 50 50 50 51 51 51 51 52 53 54 55 55
48 48 48 48 48 48 48 48 48 48 48 48 48 49 49 50 51 51 51 51 51 50 49 50 50 50 50 50 50 51 51 51 51 51 52 52 53 54 55 56 57 57 58
48 49 49 48 48 48 47 48 49 49 49 50 50 50 49 50 50 51 52 52 52 51 50 50 50 50 51 51 51 51 51 52 52 52 53 54 55 56 57 58 58 59 59
47 47 47 48 48 49 49 49 50 50 50 50 50 50 51 51 52 52 53 53 53 52 52 51 51 51 50 51 51 52 52 53 53 54 55 55 57 57 58 58 58 59 59
48 47 47 47 48 48 50 50 50 51 51 50 50 51 51 52 52 53 53 54 54 54 53 53 52 52 51 51 52 53 53 54 54 55 56 56 56 58 58 58 59 59 59
47 47 47 47 48 48 48 49 50 51 51 51 51 51 51 52 52 52 52 53 53 53 53 53 53 53 52 52 53 53 54 54 54 54 55 56 56 57 56 56 57 57 58
45 45 46 46 46 47 47 48 48 49 50 50 50 50 50 50 51 51 51 52 53 52 53 53 53 53 54 54 54 54 55 55 55 55 56 56 56 56 55 54 55 56 57

GEFSMA_500_meanwind_234.txt.gz
Wind_Speed
27 26 26 25 24 24 23 23 23 23 23 22 22 21 20 20 19 19 19 19 19 20 20 20 20 19 19 19 18 18 18 18 18 17 17 17 17 18 18 18 18 18 18
28 28 28 27 26 26 25 25 25 25 24 23 23 23 23 22 21 21 21 21 21 21 21 21 21 21 21 21 21 20 20 20 20 19 19 19 19 19 19 19 20 20 20
30 29 29 28 28 28 28 28 28 27 26 25 25 25 25 24 24 23 23 23 22 22 23 23 22 22 22 22 22 22 21 21 21 21 20 20 20 20 20 20 20 21 20
31 31 31 30 30 30 30 30 29 29 29 28 28 27 26 26 26 25 25 24 24 24 24 24 23 23 23 23 23 23 23 22 22 22 22 22 22 22 22 22 22 22 21
33 33 33 32 32 32 32 32 32 31 31 30 30 29 28 27 27 27 27 27 26 26 26 26 25 25 25 25 25 25 25 24 24 24 24 24 24 24 24 23 23 23 23
35 34 34 34 34 34 34 34 34 33 33 32 31 31 30 29 29 29 28 29 29 28 28 28 27 27 27 27 27 27 27 26 26 26 26 26 25 25 25 25 25 25 25
36 36 36 35 35 36 35 35 35 35 34 34 33 33 33 32 32 32 31 30 30 30 30 30 30 29 29 30 30 29 29 29 29 28 28 28 28 27 28 27 27 27 27
38 38 37 37 37 37 37 36 36 36 35 35 35 35 35 35 35 34 34 33 32 32 32 31 32 32 31 32 32 31 32 32 31 31 31 31 30 29 29 28 29 29 29
40 39 38 38 38 37 37 37 37 37 37 37 37 37 36 36 36 36 36 36 35 34 34 34 34 34 34 34 34 34 34 33 33 33 33 33 32 31 31 31 31 31 31
41 40 39 39 39 39 39 38 38 39 39 39 39 39 38 38 38 38 37 37 37 36 36 35 35 36 36 36 36 36 35 35 35 35 34 34 34 34 33 33 33 34 34
42 42 41 40 40 40 40 39 39 39 40 39 39 39 39 39 38 39 38 38 38 38 38 38 37 36 37 37 37 38 37 37 36 36 35 35 35 35 35 36 36 36 35
42 42 41 41 41 41 41 41 41 41 40 40 41 41 41 40 39 39 39 39 39 39 39 39 39 38 38 37 37 38 38 38 38 37 37 37 37 37 37 36 37 37 37
42 42 42 42 42 42 42 42 42 42 42 42 42 41 41 41 41 40 40 40 40 40 39 39 39 39 39 38 39 38 38 38 39 39 39 39 39 39 38 38 39 39 39
43 43 43 43 43 43 43 43 42 43 43 43 42 43 43 42 42 42 41 41 40 41 41 40 40 40 41 40 40 40 39 39 40 40 40 40 40 39 39 39 39 40 40
44 44 44 44 43 43 43 43 43 43 43 43 43 43 43 43 43 43 42 42 41 41 40 41 41 42 42 41 41 41 41 42 42 41 41 41 41 41 41 41 41 42 42
45 44 44 44 43 43 43 43 44 43 44 44 44 44 44 44 44 44 44 43 43 43 43 43 43 43 42 42 42 43 42 42 43 43 43 43 42 43 44 43 43 43 44
45 45 44 44 44 44 43 43 43 44 44 44 44 44 45 45 45 45 45 44 44 44 44 43 44 43 43 43 43 43 43 43 43 44 45 45 44 44 45 45 44 45 46
47 46 46 46 45 44 44 44 44 44 45 45 45 45 45 46 46 45 45 44 44 44 44 44 43 43 44 44 44 44 43 44 44 45 45 46 46 46 46 45 46 47 47
47 47 47 47 46 46 45 45 45 45 45 45 45 45 46 47 46 46 46 45 45 45 45 46 45 45 45 45 45 45 45 44 44 45 45 46 46 46 46 47 47 48 49
47 48 48 47 47 47 46 45 45 45 45 45 45 45 46 47 47 47 47 47 47 46 46 46 45 46 47 47 47 46 46 45 45 45 46 46 46 47 48 49 50 51 52
48 48 48 48 48 47 47 47 46 46 45 45 45 45 45 46 46 46 47 47 47 47 47 48 47 48 47 47 47 48 48 46 46 46 46 47 48 49 51 52 53 54 54
49 48 48 49 49 49 49 48 48 47 47 46 46 46 46 46 46 46 46 47 48 49 49 49 48 49 48 48 48 49 50 49 48 48 48 49 51 52 53 54 54 53 54
50 49 49 49 49 50 49 49 49 48 48 47 47 47 47 47 47 47 47 47 48 48 49 50 50 50 50 50 50 50 50 49 49 50 50 51 52 52 53 53 53 53 54
50 50 49 49 49 49 49 49 50 50 49 48 47 47 47 47 47 47 47 48 48 48 48 50 51 51 51 50 50 51 51 51 52 52 52 52 52 52 52 52 53 53 54
49 49 48 48 48 48 49 50 50 50 50 49 48 48 47 47 47 47 47 47 47 48 48 49 49 50 50 50 50 51 51 52 52 52 52 52 52 52 51 52 53 54 55
48 47 47 47 47 46 47 48 48 48 48 48 48 48 49 49 48 48 48 47 47 48 48 49 49 49 48 48 49 50 50 51 51 52 51 52 52 53 52 52 53 54 55

GEFSMA_500_meanwind_240.txt.gz
Wind_Speed
25 25 24 24 24 24 23 23 22 22 22 21 20 20 20 20 20 20 20 19 19 19 19 20 19 19 19 19 19 19 19 19 19 19 19 19 18 18 18 18 18 18 17
27 27 26 26 25 25 25 24 24 23 23 22 22 21 21 21 21 21 21 21 21 20 20 21 21 21 21 21 21 21 21 20 20 20 20 19 20 20 19 19 19 19 19
29 28 28 27 27 27 27 26 26 24 24 24 24 23 23 23 23 23 23 23 22 22 22 22 22 22 23 22 22 22 21 21 21 21 21 21 21 21 21 21 21 21 21
30 30 30 29 29 28 28 28 27 27 26 26 25 25 25 25 24 25 25 25 25 24 23 23 24 24 24 23 23 23 22 23 23 23 23 22 22 23 23 23 23 23 23
32 32 31 31 31 30 30 29 29 29 29 28 28 27 27 27 26 26 26 26 26 26 26 25 25 25 24 25 25 25 24 24 24 25 24 24 24 24 24 25 25 25 24
33 33 33 33 32 32 32 31 31 31 30 30 30 30 29 29 29 28 28 27 27 27 27 27 27 26 26 26 26 26 26 26 26 26 26 26 26 26 26 26 26 26 26
34 34 34 34 34 33 33 33 32 32 31 32 32 31 30 31 30 30 29 29 28 28 28 28 28 28 28 28 28 28 28 28 28 28 28 28 28 28 28 28 28 28 28
37 36 36 35 35 35 35 34 33 33 33 33 33 33 32 32 31 31 31 31 31 30 30 30 30 30 29 29 29 29 29 30 30 30 30 30 30 30 30 30 29 30 30
39 38 37 37 36 36 36 35 35 35 35 34 34 34 34 33 33 33 33 33 33 33 32 32 32 31 30 30 31 31 31 31 31 32 32 32 32 32 32 32 32 32 32
40 39 39 38 38 37 36 36 36 36 35 35 36 36 35 35 34 34 34 34 35 35 35 34 33 33 33 32 32 32 33 33 33 33 33 33 33 33 33 33 33 33 33
41 40 40 39 39 38 38 38 37 36 36 36 36 36 36 35 35 35 35 35 35 35 35 35 34 34 34 33 32 33 34 34 34 34 34 34 34 34 34 34 34 35 35
42 41 41 40 40 39 38 38 38 37 37 37 36 36 36 36 36 36 36 36 36 36 36 36 35 35 34 34 34 34 35 35 35 35 36 36 36 36 36 36 37 37 37
43 43 42 41 41 40 40 40 39 39 38 38 38 37 37 37 37 37 37 37 37 37 37 37 36 36 36 35 35 36 36 36 36 37 37 37 37 37 37 37 38 38 38
43 43 43 42 41 41 41 40 39 39 39 39 39 38 38 38 38 38 38 38 38 38 38 37 37 36 37 37 37 37 37 38 38 38 38 38 38 38 39 39 39 39 39
45 44 44 43 42 42 42 41 41 40 39 39 39 39 39 39 39 39 38 38 38 38 38 38 38 37 37 38 38 38 38 37 38 39 39 39 39 39 39 39 39 39 39
46 45 44 44 44 43 43 43 42 42 41 41 41 40 40 40 40 39 39 39 39 39 39 39 38 39 39 38 39 39 39 39 39 39 39 39 39 40 40 40 40 40 41
46 46 45 45 44 44 44 43 43 43 43 42 41 41 40 40 40 41 41 40 41 41 41 40 41 41 41 40 41 41 41 41 41 41 40 40 40 40 41 41 42 42 42
48 47 46 46 46 45 45 44 44 44 43 43 42 42 42 41 41 42 42 42 42 42 43 42 42 43 43 43 43 43 43 43 43 42 42 42 42 42 43 43 43 44 44
49 48 48 47 47 47 46 45 45 44 45 44 44 44 43 43 43 43 43 43 43 44 44 45 44 45 45 46 46 45 45 44 43 44 44 44 44 44 45 45 45 45 46
49 49 48 48 48 47 47 47 46 46 46 46 45 45 44 44 44 44 44 44 45 45 45 45 46 46 46 47 47 46 46 45 45 46 46 46 46 47 47 47 47 48 48
50 50 49 49 48 47 48 48 48 47 47 47 46 46 46 45 45 45 45 45 45 46 46 47 47 47 47 47 47 47 48 47 47 47 48 48 48 48 49 49 50 50 50
49 49 49 49 49 49 49 49 49 48 47 47 47 47 47 46 46 47 47 47 47 47 47 47 47 47 46 47 48 48 48 48 48 48 49 49 50 49 49 49 50 50 50
50 50 49 49 49 50 49 49 49 49 50 49 49 48 48 48 48 48 48 47 47 47 48 48 47 47 47 47 48 48 49 49 48 48 49 49 49 49 49 49 49 50 50
50 50 50 50 50 50 50 50 50 50 50 50 50 49 49 48 48 48 47 47 47 47 48 47 47 47 48 48 48 49 49 49 50 50 49 49 48 48 48 49 49 49 50
50 50 50 50 50 50 50 50 50 50 50 50 50 50 49 49 48 48 48 48 47 47 47 47 47 47 47 47 47 47 48 48 48 48 48 48 47 47 48 48 49 50 51
50 49 49 50 50 50 50 50 50 50 50 50 49 49 48 48 48 48 48 47 47 46 46 46 47 47 47 47 47 47 47 47 47 47 47 48 48 48 48 48 49 50 51

GEFSMA_500_meanwind_246.txt.gz
Wind_Speed
24 24 23 22 21 20 20 19 19 19 18 18 18 18 18 18 19 19 19 18 18 18 18 18 18 18 18 18 18 18 18 18 18 18 18 18 18 18 18 18 18 17 17
26 26 25 24 24 23 22 21 21 20 20 20 20 19 19 19 19 20 20 20 20 20 19 19 19 18 19 19 19 19 19 19 19 19 19 18 18 19 19 19 19 19 18
27 27 26 26 25 25 24 24 23 22 22 21 21 21 21 21 20 20 21 21 22 22 21 21 21 20 20 20 20 21 20 20 19 19 20 20 20 20 20 20 20 20 20
29 29 28 27 27 26 25 25 24 24 24 23 22 22 22 22 22 22 22 22 23 23 23 23 23 23 23 23 22 22 21 21 21 21 21 21 21 21 21 20 20 21 21
31 31 30 29 29 28 27 26 26 25 25 25 24 24 23 23 24 24 23 24 24 24 24 24 24 24 24 24 24 24 23 23 23 23 23 23 23 23 23 22 22 23 23
33 32 31 30 30 30 29 28 28 27 27 27 27 26 26 25 25 25 26 25 25 25 25 25 25 26 25 25 25 25 25 25 25 25 25 25 25 24 24 25 24 24 25
35 34 33 32 32 32 31 30 30 30 30 29 29 29 28 28 28 27 27 27 26 27 27 26 26 26 26 27 27 27 27 27 26 26 26 26 26 26 26 26 26 27 27
37 35 34 34 34 33 33 32 31 31 31 31 31 30 30 30 30 29 29 28 28 28 28 27 27 28 28 28 28 28 28 28 28 28 28 27 27 27 28 28 28 28 28
39 37 36 36 35 35 34 34 33 32 32 32 31 31 31 31 30 30 30 29 29 29 29 28 29 29 29 29 29 29 28 29 29 28 28 28 29 29 29 29 29 29 30
41 39 39 38 37 36 35 35 34 34 33 33 32 32 31 31 30 30 30 29 30 30 30 30 30 30 30 30 30 30 29 29 29 29 30 29 30 30 31 31 31 31 31
43 42 41 40 39 38 37 36 36 35 35 35 34 33 33 32 32 31 30 30 30 30 30 31 31 30 31 30 30 30 30 30 30 30 30 30 31 32 32 32 32 31 32
43 43 43 42 41 40 39 38 38 37 37 36 36 35 35 34 33 33 33 32 32 32 33 32 32 32 31 31 30 31 30 31 31 31 31 31 31 32 32 33 33 33 33
43 43 43 43 43 42 41 40 39 38 38 37 37 37 36 36 35 35 34 34 33 34 34 34 33 33 32 32 31 31 31 31 32 32 32 32 32 33 33 33 34 34 35
45 44 44 44 44 44 43 42 41 40 39 38 38 37 37 37 37 37 36 35 35 35 35 35 34 34 33 33 32 32 32 32 33 33 34 33 34 34 34 34 35 35 36
47 45 45 44 44 44 44 43 42 41 40 39 38 38 38 38 38 38 38 37 36 36 36 35 35 35 34 34 34 34 34 35 35 35 36 36 36 36 36 37 37 37 38
48 47 47 46 44 43 43 43 43 42 41 41 40 39 39 39 38 38 38 37 37 37 36 36 36 36 36 36 36 36 37 36 37 37 38 38 38 39 39 39 39 40 40
49 48 47 47 45 44 44 43 43 43 43 42 42 41 40 40 39 39 39 38 38 38 38 37 37 37 38 38 38 39 39 39 39 39 40 40 40 40 41 41 41 41 41
50 49 49 47 46 45 44 44 44 44 44 44 43 42 42 41 40 40 40 40 40 39 39 39 38 38 39 40 40 40 40 40 41 41 42 42 42 42 43 43 44 43 43
51 50 49 48 48 47 46 45 45 45 45 45 44 44 43 43 42 42 42 41 41 41 40 40 40 41 41 42 42 42 42 43 43 43 43 44 44 44 45 45 46 46 46
51 51 50 50 49 48 48 47 46 46 46 46 46 45 45 44 44 44 44 43 43 42 42 42 42 43 43 44 44 44 44 45 45 44 45 45 46 46 47 47 47 47 47
52 52 52 51 51 49 49 49 48 47 47 47 47 46 46 46 46 46 45 45 45 44 44 43 43 43 44 44 45 45 46 46 46 46 47 47 47 47 48 48 47 47 47
52 52 52 52 51 51 50 50 50 49 48 48 47 47 47 47 47 47 47 46 46 45 44 44 44 44 44 45 45 45 46 46 46 47 47 48 48 48 48 48 48 48 48
53 52 52 52 52 51 51 50 50 50 50 49 48 48 48 48 48 48 48 47 46 47 46 46 45 45 46 45 45 46 45 45 46 46 47 47 47 47 47 48 48 48 48
51 51 51 52 52 52 52 51 51 51 51 50 49 49 49 48 49 48 48 48 48 48 47 47 47 46 46 46 46 46 46 46 46 46 46 46 47 47 48 48 48 48 48
51 51 52 52 52 52 52 52 52 51 51 51 50 49 49 49 48 49 49 49 48 48 48 48 47 47 47 47 47 47 47 47 46 46 47 47 47 47 47 48 48 49 49
52 51 52 51 51 51 51 51 52 52 51 51 50 50 50 50 49 49 50 49 49 48 49 49 48 48 48 48 48 48 48 47 47 47 47 47 47 48 47 48 49 49 50

GEFSMA_500_meanwind_252.txt.gz
Wind_Speed
26 25 24 24 23 22 21 21 20 20 18 18 18 17 17 17 17 17 17 16 16 16 15 15 15 15 15 15 16 16 16 16 16 16 16 16 16 16 16 16 16 17 17
28 26 26 26 25 24 24 23 22 21 20 19 19 19 18 18 18 18 18 18 18 18 18 18 17 17 17 17 17 17 17 17 17 17 17 18 18 18 18 18 18 18 18
29 28 27 27 26 26 25 24 23 23 22 21 21 21 21 20 20 20 19 19 19 19 19 19 19 19 19 19 19 19 19 19 19 19 19 19 19 19 19 19 19 19 19
31 29 28 28 28 27 26 26 25 24 24 23 23 22 22 22 22 21 21 20 20 20 20 20 20 20 20 20 20 20 20 20 20 21 21 21 21 21 20 20 20 20 20
32 31 30 29 29 29 28 27 27 26 25 25 25 24 24 23 23 23 23 22 22 22 22 22 22 22 22 22 22 22 22 22 22 22 22 22 22 22 22 22 22 22 22
35 34 32 31 30 30 30 29 28 28 27 26 26 26 25 25 24 24 24 24 24 24 24 23 23 23 23 23 23 24 24 24 24 24 23 23 23 23 23 23 23 23 23
37 36 35 33 32 31 31 31 29 29 28 28 27 27 27 26 26 25 25 25 25 25 25 25 25 25 25 24 25 25 26 25 25 25 24 24 24 24 23 24 24 24 24
38 37 36 35 34 33 32 32 32 30 29 29 29 29 28 27 27 27 26 26 26 26 26 25 26 26 26 26 26 26 26 26 26 26 25 25 25 24 24 25 25 25 25
40 39 39 38 37 35 34 34 33 33 31 30 30 30 29 29 29 28 28 28 27 27 26 27 27 27 27 27 27 27 27 27 26 26 26 25 24 25 25 25 25 26 26
42 40 40 39 39 38 36 35 35 35 33 32 31 31 30 30 30 29 29 29 28 27 27 27 27 27 28 27 27 27 27 26 26 26 26 25 25 26 26 26 27 27 27
43 42 41 40 39 39 38 37 37 37 36 34 33 33 32 31 31 31 30 30 29 29 28 28 28 29 28 28 27 27 27 27 26 26 26 26 26 27 27 27 27 28 28
45 44 42 41 41 40 39 39 38 38 38 37 35 34 34 33 32 31 31 31 31 30 30 30 30 30 30 29 29 28 28 27 27 27 26 27 27 28 29 29 29 29 29
47 46 44 43 42 41 40 40 39 39 39 39 38 36 36 35 34 33 33 32 32 32 31 31 31 31 31 30 30 29 29 29 28 28 28 29 29 30 31 31 31 31 31
49 47 47 46 45 44 42 41 41 40 40 39 39 38 38 37 36 35 34 34 33 33 33 33 33 32 32 31 31 31 31 31 31 31 31 31 31 32 32 33 33 34 34
50 49 48 47 46 45 44 43 42 41 41 41 40 40 39 38 38 37 36 35 35 34 34 34 34 33 33 33 34 33 33 33 33 33 33 33 33 34 34 35 35 36 37
51 51 50 48 47 46 45 45 44 42 42 42 41 41 41 40 39 38 37 37 37 36 36 35 36 36 35 35 35 35 35 34 34 35 35 35 35 36 36 37 37 38 38
52 51 51 50 48 47 46 45 44 44 44 43 42 42 42 42 41 40 40 39 39 39 39 38 38 38 38 37 37 37 37 36 36 37 37 37 38 38 38 39 39 40 40
54 53 51 50 49 48 47 47 46 45 45 44 44 43 43 44 44 43 42 41 41 41 41 40 40 40 40 40 40 39 39 39 39 39 39 40 40 40 40 40 41 41 41
54 53 53 51 50 49 48 48 47 47 46 45 45 45 44 45 45 45 44 43 42 42 42 42 42 42 42 42 42 41 41 41 41 41 41 41 42 42 42 42 42 43 43
55 54 53 52 51 50 49 49 48 48 47 47 47 46 46 46 46 46 46 45 44 43 43 43 43 43 43 42 43 43 43 43 42 42 43 43 43 43 44 44 44 44 44
55 54 54 53 52 52 51 50 50 49 48 48 47 47 47 47 47 47 47 46 46 45 45 44 44 44 44 43 43 43 43 43 44 44 44 45 45 45 45 45 45 45 46
55 55 54 54 53 53 52 52 51 50 50 49 48 48 48 48 47 47 47 47 47 47 46 46 45 45 45 45 44 44 44 44 45 46 46 46 46 46 46 46 46 46 47
55 55 55 55 54 54 53 52 52 52 51 50 49 48 48 47 48 48 48 48 48 49 49 48 47 46 46 46 46 46 46 46 47 47 47 47 47 47 47 47 47 47 47
55 54 54 54 53 53 53 52 52 51 51 50 50 49 48 48 49 49 49 49 49 50 49 49 49 48 48 48 48 48 48 49 48 48 48 48 48 48 48 48 48 48 48
56 55 54 54 53 53 52 52 52 52 52 51 51 50 49 49 49 50 50 49 49 50 50 50 50 50 49 49 49 50 50 50 49 49 49 49 49 49 49 49 49 49 49
56 55 55 55 54 54 54 54 53 53 53 53 52 51 51 51 51 51 50 50 50 50 50 50 50 50 50 50 50 50 50 50 49 49 50 50 50 50 49 49 49 50 50

GEFSMA_500_meanwind_258.txt.gz
Wind_Speed
26 25 24 23 23 22 21 20 20 19 19 18 17 17 17 16 15 14 14 15 15 14 14 14 13 14 14 14 14 14 14 15 15 16 16 17 17 17 17 17 17 17 17
28 27 26 25 24 23 23 22 21 21 20 19 18 18 18 17 16 16 16 16 16 16 16 15 15 15 15 16 16 16 16 17 17 18 18 18 18 18 18 18 18 18 18
30 29 27 27 26 25 24 23 23 22 22 22 21 20 20 19 18 17 17 17 17 18 17 17 16 17 17 17 17 18 18 18 19 19 19 19 19 20 20 20 19 19 18
31 30 29 28 27 26 25 24 24 24 24 23 22 22 22 21 20 19 19 19 18 18 18 18 18 18 18 18 19 19 19 19 20 20 20 20 21 21 21 21 20 19 19
33 32 31 29 28 27 27 26 25 24 25 25 24 24 23 23 22 21 21 21 20 20 19 18 18 19 19 20 20 20 20 21 20 20 21 22 22 22 21 21 21 20 20
35 34 33 32 30 29 28 27 27 26 25 25 25 24 24 24 23 22 21 21 21 21 21 20 20 20 20 21 21 21 21 21 21 22 22 22 22 22 21 21 20 20 20
37 36 35 34 32 32 31 29 29 28 27 26 26 25 25 25 24 23 23 22 22 22 22 22 21 21 21 22 22 22 22 22 22 23 23 23 22 22 21 21 20 20 21
39 38 38 36 34 33 33 31 30 30 29 28 28 27 26 26 26 25 25 24 24 24 24 23 22 22 22 23 23 23 23 24 23 24 23 23 22 22 22 22 22 22 22
40 40 39 38 36 35 35 34 32 32 31 30 29 28 27 26 26 26 26 26 25 25 24 24 24 24 24 24 24 24 24 25 24 24 24 24 23 23 22 22 22 22 22
43 41 40 39 38 37 36 35 35 33 32 31 30 29 29 29 28 27 27 27 26 26 26 26 26 25 25 25 25 25 25 26 25 25 25 24 24 23 22 23 23 23 24
45 44 42 41 39 38 37 36 36 34 34 33 32 31 31 30 30 28 28 28 27 27 27 27 27 27 26 26 26 26 26 26 26 25 25 25 25 24 24 24 24 24 24
46 45 44 43 42 39 37 36 37 36 35 35 34 34 33 32 32 31 30 29 29 29 29 28 28 28 27 27 27 27 27 27 27 27 26 26 26 25 25 25 26 26 26
47 46 45 44 43 42 40 39 38 37 36 36 36 35 34 34 34 33 32 31 31 31 31 30 30 29 29 29 29 29 28 28 28 28 28 27 27 27 28 28 28 28 29
49 48 47 47 46 45 44 43 40 39 38 37 36 36 36 36 35 34 33 32 32 32 32 31 31 31 31 30 30 30 30 29 28 29 29 29 29 29 29 30 30 30 31
51 51 49 49 48 47 46 45 43 41 40 39 38 38 37 36 36 36 35 34 34 33 33 32 32 32 32 32 32 32 31 30 30 30 30 30 31 31 31 32 32 32 33
52 52 50 49 48 48 47 45 45 43 42 41 41 40 39 38 37 36 36 35 35 35 34 34 34 33 33 33 33 33 33 32 32 32 32 33 33 33 34 34 34 35 34
53 52 51 50 49 49 48 47 46 45 44 43 42 42 41 41 39 38 38 37 37 36 35 35 35 34 34 35 35 35 34 35 35 34 34 35 35 35 35 36 36 36 36
54 53 52 51 50 50 49 48 47 46 45 44 44 44 43 42 41 40 39 39 38 38 37 37 36 35 36 36 37 37 37 37 37 37 37 37 37 37 38 38 38 38 39
55 53 53 52 51 50 50 49 48 47 46 45 44 44 43 43 42 41 40 40 40 39 39 39 38 38 38 38 38 39 39 39 39 39 40 40 39 39 39 39 40 40 41
55 55 54 53 52 51 51 50 50 49 48 47 46 46 45 45 44 43 42 42 41 41 41 41 40 41 41 41 40 40 41 41 41 41 42 42 41 41 41 42 42 43 43
56 55 55 54 54 53 52 52 51 50 49 49 48 48 47 46 45 45 44 44 44 44 44 43 43 43 43 43 42 42 43 43 43 43 43 43 44 44 45 44 45 45 46
57 56 56 56 55 55 54 53 52 51 50 49 48 48 48 47 46 46 47 47 46 46 45 45 44 44 44 44 44 44 44 44 44 45 45 45 45 46 47 47 47 47 47
57 57 56 56 56 55 55 54 53 52 51 50 50 49 49 49 48 48 48 48 48 48 47 46 46 46 45 46 46 46 46 46 46 46 46 46 46 46 47 48 48 48 48
56 57 56 56 56 56 56 56 55 54 53 52 52 51 51 50 50 49 49 49 48 48 48 48 47 47 47 48 48 48 48 48 48 48 48 48 48 48 49 49 49 50 50
55 56 57 56 56 56 56 56 56 55 54 53 53 52 52 52 51 51 50 49 49 48 48 49 49 48 48 49 49 50 49 49 49 49 49 50 50 50 50 51 51 51 51
54 54 55 56 55 55 55 54 55 55 54 54 54 53 52 52 51 51 51 50 49 49 49 49 49 49 49 50 50 51 51 51 51 51 51 52 52 52 51 51 51 51 52